Date StartTime U_cm/s V_cm/s W_cm/s Ustd_cm/s Vstd_cm/s Wstd_cm/s Uvar_(cm/s)^2 Vvar_(cm/s)^2 Wvar_(cm/s)^2 KE_(m/s)^2 TurbulentKE_(m/s)^2 HorizWindSpeed_cm/s FrictionSpeec_cm/s DragCoef SpeedOfSound_m/s SonicTemperature_C Pressure_mb 
01/21/2015  00:00:00        0.266       37.496       -8.791       21.339       14.770        7.217      455.373      218.164       52.086        0.110        0.036       37.497        8.601        0.053      333.506        2.866      866.320
01/21/2015  00:01:00      -19.186       27.779       -0.114       14.871       20.456        8.840      221.155      418.435       78.137        0.093        0.036       33.761        6.345        0.035      333.549        2.936      866.307
01/21/2015  00:02:00       -0.153       44.080       -7.914       18.891       22.590        7.625      356.883      510.304       58.134        0.147        0.046       44.080        6.518        0.022      333.567        2.968      866.297
01/21/2015  00:03:00        9.524       25.754       -3.662       10.221       15.514        6.400      104.468      240.683       40.954        0.058        0.019       27.459        6.304        0.053      333.529        2.903      866.296
01/21/2015  00:04:00       -4.585        7.393        1.898       10.760       16.657        7.089      115.775      277.464       50.256        0.026        0.022        8.699        5.433        0.390      333.604        3.029      866.287
01/21/2015  00:05:00      -22.942      -11.140       -7.617       17.846       10.794       12.744      318.481      116.504      162.400        0.065        0.030       25.503       12.807        0.252      333.300        2.524      866.278
01/21/2015  00:06:00      -19.601        4.307      -10.326       19.672       17.702       11.923      387.000      313.348      142.154        0.068        0.042       20.068        7.592        0.143      333.372        2.644      866.267
01/21/2015  00:07:00      -28.509        0.862       -3.884       16.461       27.277       12.579      270.978      744.022      158.233        0.100        0.059       28.522        6.744        0.056      333.341        2.592      866.262
01/21/2015  00:08:00      -53.632      -24.554      -12.282       13.580       13.080       10.013      184.421      171.086      100.267        0.204        0.023       58.986        5.566        0.009      333.033        2.083      866.260
01/21/2015  00:09:00      -63.399      -23.453       -7.633       22.025       14.133        9.747      485.112      199.749       95.006        0.270        0.039       67.598        9.774        0.021      333.019        2.060      866.273
01/21/2015  00:10:00      -75.039      -29.443      -11.040       12.666       11.766       13.103      160.429      138.434      171.689        0.354        0.024       80.608        7.946        0.010      332.992        2.014      866.285
01/21/2015  00:11:00      -59.148      -30.321      -14.084       12.723       11.879        9.660      161.875      141.109       93.322        0.251        0.020       66.467        8.748        0.017      332.992        2.016      866.307
01/21/2015  00:12:00      -45.515      -32.233      -13.485       10.817       12.557        9.143      117.001      157.667       83.592        0.183        0.018       55.772        7.008        0.016      333.015        2.055      866.320
01/21/2015  00:13:00      -65.341      -14.349      -11.173       12.596       13.182        7.693      158.653      173.775       59.181        0.250        0.020       66.898        5.597        0.007      333.019        2.059      866.327
01/21/2015  00:14:00      -80.276      -13.338      -14.692       12.888       13.733        9.319      166.095      188.583       86.842        0.364        0.022       81.377        4.522        0.003      333.037        2.090      866.334
01/21/2015  00:15:00      -59.557       -5.544      -15.770       10.863       16.382       12.976      117.999      268.372      168.369        0.219        0.028       59.814        5.672        0.009      333.120        2.226      866.350
01/21/2015  00:16:00      -84.250      -33.056      -10.972       15.818       21.108       12.655      250.225      445.543      160.144        0.458        0.043       90.503        8.391        0.009      332.914        1.886      866.365
01/21/2015  00:17:00      -81.523      -34.062      -11.506       27.841       17.295       13.359      775.140      299.114      178.456        0.460        0.063       88.352       11.164        0.016      332.832        1.753      866.371
01/21/2015  00:18:00      -96.729      -39.954       -7.271       22.947       18.549       15.239      526.546      344.052      232.233        0.605        0.055      104.656        9.754        0.009      332.775        1.657      866.375
01/21/2015  00:19:00      -42.937      -47.521        6.303       30.090       27.314       18.399      905.378      746.060      338.527        0.307        0.099       64.046       16.012        0.063      332.799        1.699      866.370
01/21/2015  00:20:00      -43.773      -27.650       -8.856       35.007       19.627       18.313     1225.456      385.208      335.381        0.235        0.097       51.774       14.837        0.082      332.800        1.699      866.358
01/21/2015  00:21:00     -103.757      -33.189      -11.162       24.996       18.564        9.677      624.799      344.620       93.644        0.653        0.053      108.936        8.189        0.006      332.713        1.554      866.348
01/21/2015  00:22:00     -118.162      -36.410      -11.057       13.901       24.406       11.844      193.226      595.655      140.279        0.817        0.046      123.644        9.290        0.006      332.709        1.550      866.342
01/21/2015  00:23:00     -101.801      -23.013      -12.083       15.763       14.469       13.080      248.486      209.346      171.074        0.583        0.031      104.370        2.638        0.001      332.714        1.555      866.354
01/21/2015  00:24:00      -89.948      -12.828      -11.699       14.249       16.453       15.041      203.025      270.702      226.237        0.455        0.035       90.859        8.098        0.008      332.697        1.528      866.361
01/21/2015  00:25:00     -102.282       -9.259      -13.264       21.191       17.711       15.620      449.049      313.697      243.988        0.586        0.050      102.700       14.187        0.019      332.633        1.422      866.364
01/21/2015  00:26:00      -96.264        6.571      -11.011       19.204       18.892       18.967      368.785      356.913      359.743        0.526        0.054       96.488       10.789        0.013      332.657        1.463      866.373
01/21/2015  00:27:00      -98.637        2.698      -14.087       18.483       14.562       15.865      341.623      212.059      251.708        0.537        0.040       98.674        7.632        0.006      332.650        1.451      866.390
01/21/2015  00:28:00      -55.511       -4.465       -2.860       24.090       17.092       13.874      580.330      292.131      192.501        0.209        0.053       55.690        9.854        0.031      332.700        1.534      866.414
01/21/2015  00:29:00      -66.172      -23.866      -13.207       20.374       17.195       10.076      415.096      295.671      101.522        0.297        0.041       70.344        6.348        0.008      332.708        1.547      866.427
01/21/2015  00:30:00      -61.788       -8.471      -12.836       18.119       14.567       12.108      328.292      212.190      146.601        0.237        0.034       62.366       11.113        0.032      332.674        1.491      866.435
01/21/2015  00:31:00      -86.763      -21.723      -16.385       17.961       16.398       10.295      322.601      268.881      105.988        0.448        0.035       89.442        7.064        0.006      332.694        1.524      866.436
01/21/2015  00:32:00      -78.256      -22.325      -10.467       15.897       18.410       12.646      252.706      338.946      159.930        0.374        0.038       81.378        5.863        0.005      332.685        1.508      866.441
01/21/2015  00:33:00      -76.857      -25.585       -7.124       18.820       19.131       12.390      354.206      366.010      153.522        0.374        0.044       81.004        9.411        0.013      332.667        1.479      866.451
01/21/2015  00:34:00      -89.492      -27.273      -12.562       16.506       13.386       12.233      272.436      179.176      149.656        0.476        0.030       93.555        8.139        0.008      332.601        1.370      866.464
01/21/2015  00:35:00      -93.109      -29.814      -12.271       24.229       14.700       12.910      587.044      216.104      166.656        0.534        0.048       97.766        9.727        0.010      332.563        1.305      866.472
01/21/2015  00:36:00      -79.417       -8.799      -10.481       26.258       19.463       13.562      689.460      378.802      183.939        0.387        0.063       79.903       11.201        0.020      332.499        1.201      866.465
01/21/2015  00:37:00      -55.317      -18.485       -6.764       23.872       19.269       13.284      569.856      371.312      176.454        0.228        0.056       58.323        8.048        0.019      332.443        1.108      866.448
01/21/2015  00:38:00      -29.462       -5.594       -6.001       16.946       14.708       12.585      287.155      216.324      158.376        0.080        0.033       29.989       11.822        0.155      332.514        1.225      866.437
01/21/2015  00:39:00      -17.377        6.049       -2.993       12.061       17.414        6.806      145.460      303.247       46.315        0.042        0.025       18.400        5.199        0.080      332.854        1.788      866.433
01/21/2015  00:40:00        6.519       -0.699        7.131       11.268        5.243        6.339      126.967       27.492       40.187        0.014        0.010        6.556        1.412        0.046      332.857        1.792      866.419
01/21/2015  00:41:00       19.376       -4.331        5.881        8.801        6.736        8.726       77.457       45.370       76.142        0.031        0.010       19.854        3.088        0.024      332.913        1.887      866.406
01/21/2015  00:42:00       13.444        9.942        9.030        6.744        9.980        6.936       45.487       99.601       48.102        0.028        0.010       16.721        4.569        0.075      332.846        1.775      866.397
01/21/2015  00:43:00       20.177       27.314        3.673        9.895       17.146        8.809       97.901      293.973       77.607        0.082        0.023       33.959       10.780        0.101      333.100        2.194      866.399
01/21/2015  00:44:00       13.176       28.715        3.180       10.163        8.323        6.970      103.283       69.270       48.581        0.061        0.011       31.593        4.899        0.024      333.155        2.285      866.406
01/21/2015  00:45:00       22.245       19.328        4.616        6.540        8.004        6.730       42.776       64.057       45.295        0.052        0.008       29.468        4.025        0.019      332.999        2.027      866.401
01/21/2015  00:46:00       34.173       17.773        4.025        8.983        5.882        5.972       80.687       34.592       35.665        0.083        0.008       38.518        3.220        0.007      332.928        1.909      866.403
01/21/2015  00:47:00       23.132       13.487        0.485        7.151        6.645        4.756       51.140       44.160       22.621        0.042        0.006       26.776        2.570        0.009      332.935        1.922      866.401
01/21/2015  00:48:00        6.103       19.582        1.480        4.566        5.832        2.807       20.851       34.014        7.882        0.024        0.003       20.512        1.682        0.007      333.099        2.190      866.395
01/21/2015  00:49:00        4.355       12.706        0.477        6.595        5.198        2.510       43.495       27.018        6.301        0.013        0.004       13.432        1.157        0.007      333.155        2.282      866.378
01/21/2015  00:50:00       -5.507        6.853        3.444        6.307        4.719        5.833       39.784       22.265       34.030        0.009        0.005        8.792        4.227        0.231      333.042        2.099      866.366
01/21/2015  00:51:00      -14.776       -1.820        3.345        5.370        6.317        6.401       28.834       39.905       40.968        0.017        0.005       14.888        3.129        0.044      332.741        1.601      866.373
01/21/2015  00:52:00       -8.827       -4.145       -3.074        7.297        4.506        3.395       53.243       20.301       11.525        0.009        0.004        9.752        1.744        0.032      332.642        1.436      866.392
01/21/2015  00:53:00      -25.240      -10.012       -5.331        7.933        6.958        4.360       62.937       48.414       19.010        0.045        0.007       27.154        2.813        0.011      332.711        1.549      866.403
01/21/2015  00:54:00      -31.615       -6.212       -7.946        7.660        6.836        7.963       58.682       46.727       63.404        0.063        0.008       32.219        3.839        0.014      332.667        1.478      866.406
01/21/2015  00:55:00      -37.864      -16.104       -5.285        6.774       10.890        6.205       45.890      118.599       38.508        0.096        0.010       41.146        3.659        0.008      332.698        1.529      866.416
01/21/2015  00:56:00      -34.036      -19.444       -2.959        6.838        7.512        4.906       46.755       56.435       24.073        0.084        0.006       39.199        2.310        0.003      332.626        1.412      866.422
01/21/2015  00:57:00      -51.850      -15.111       -6.244       11.214        8.657        7.053      125.761       74.951       49.749        0.160        0.013       54.007        3.182        0.003      332.626        1.410      866.429
01/21/2015  00:58:00      -70.619      -19.611       -7.536       14.562       10.096        6.364      212.056      101.935       40.503        0.289        0.018       73.292        5.289        0.005      332.543        1.274      866.436
01/21/2015  00:59:00      -72.949      -13.735       -6.780       12.050       10.245        6.362      145.197      104.963       40.479        0.292        0.015       74.231        4.703        0.004      332.571        1.320      866.454
01/21/2015  01:00:00      -77.141      -18.111      -12.890       13.470       10.982        8.093      181.450      120.604       65.504        0.341        0.018       79.238        3.244        0.002      332.568        1.315      866.460
01/21/2015  01:01:00      -98.264      -28.137      -14.442        7.933       11.454        9.821       62.935      131.194       96.450        0.547        0.015      102.213        4.704        0.002      332.576        1.329      866.462
01/21/2015  01:02:00      -66.826      -13.980      -11.315       12.765       11.811        7.785      162.951      139.500       60.599        0.258        0.018       68.273        5.764        0.007      332.530        1.251      866.468
01/21/2015  01:03:00      -61.326       -6.638      -11.934        9.620       17.336       10.478       92.540      300.544      109.780        0.223        0.025       61.684        9.043        0.021      332.531        1.254      866.479
01/21/2015  01:04:00      -38.388       -0.730       -6.593       18.106       20.017        8.736      327.810      400.679       76.313        0.116        0.040       38.394        8.931        0.054      332.498        1.200      866.488
01/21/2015  01:05:00      -77.253       47.012      -17.472       19.102       20.274       13.924      364.893      411.034      193.884        0.473        0.048       90.433       10.545        0.014      332.752        1.618      866.500
01/21/2015  01:06:00      -69.225       23.626       -9.352       15.905       15.898       13.893      252.959      252.737      193.007        0.307        0.035       73.146       11.179        0.023      332.717        1.561      866.507
01/21/2015  01:07:00      -65.928       19.525       -9.264       16.119       18.100        9.042      259.806      327.609       81.758        0.274        0.033       68.759        6.300        0.008      332.639        1.433      866.508
01/21/2015  01:08:00      -70.113       20.097       -8.595       14.616       10.127        9.712      213.620      102.557       94.326        0.290        0.021       72.936        6.056        0.007      332.661        1.469      866.492
01/21/2015  01:09:00      -50.865       11.320       -7.065       16.147       15.966        9.323      260.737      254.903       86.913        0.168        0.030       52.109        7.686        0.022      332.664        1.475      866.479
01/21/2015  01:10:00      -52.022        8.106       -6.314       14.111       15.161        6.709      199.112      229.869       45.014        0.164        0.024       52.650        5.489        0.011      332.652        1.455      866.452
01/21/2015  01:11:00      -21.188      -16.385        3.070       12.337        8.145        8.694      152.190       66.334       75.578        0.051        0.015       26.785        4.330        0.026      332.651        1.453      866.434
01/21/2015  01:12:00       -0.491      -11.122       -5.521       12.694       11.128        9.268      161.130      123.824       85.903        0.026        0.019       11.132        4.285        0.148      332.738        1.597      866.426
01/21/2015  01:13:00        8.211      -12.968        6.679       11.115       10.848       12.895      123.550      117.681      166.294        0.034        0.020       15.349        9.632        0.394      332.682        1.505      866.424
01/21/2015  01:14:00       26.276      -23.392        0.973        7.079        7.430        5.040       50.111       55.205       25.406        0.068        0.007       35.180        2.887        0.007      332.620        1.400      866.425
01/21/2015  01:15:00       20.693      -21.774       -2.194       10.866        7.158        7.582      118.071       51.231       57.479        0.057        0.011       30.039        6.927        0.053      332.725        1.575      866.425
01/21/2015  01:16:00      -10.612      -31.822        1.116       16.675       12.774       13.772      278.051      163.178      189.657        0.088        0.032       33.545       10.738        0.102      332.731        1.585      866.419
01/21/2015  01:17:00      -23.370      -26.803       -4.054       17.421       10.971        9.567      303.480      120.368       91.529        0.090        0.026       35.560        8.069        0.051      332.602        1.371      866.417
01/21/2015  01:18:00      -51.453      -13.742        2.611       12.923        7.109        7.372      167.003       50.536       54.343        0.156        0.014       53.257        7.021        0.017      332.562        1.305      866.406
01/21/2015  01:19:00      -28.828      -20.169       -2.928       18.449       12.783        7.532      340.384      163.398       56.734        0.090        0.028       35.183        3.097        0.008      332.492        1.188      866.410
01/21/2015  01:20:00      -24.483      -22.628       -2.715       20.574       15.446        9.917      423.306      238.592       98.345        0.094        0.038       33.339        8.539        0.066      332.431        1.090      866.405
01/21/2015  01:21:00        7.143       -1.521        8.950        7.936        7.059        6.278       62.985       49.824       39.410        0.014        0.008        7.303        3.989        0.298      332.410        1.053      866.403
01/21/2015  01:22:00      -15.964      -20.320       -4.474       15.456       23.143       11.198      238.900      535.577      125.397        0.079        0.045       25.841       13.256        0.263      332.416        1.064      866.409
01/21/2015  01:23:00       -8.072      -19.866       -9.977       25.265       21.562       16.385      638.339      464.915      268.453        0.097        0.069       21.443       13.524        0.398      332.324        0.911      866.421
01/21/2015  01:24:00        1.384      -29.336       -0.528       19.374       16.645       14.321      375.359      277.063      205.095        0.086        0.043       29.369        9.704        0.109      332.321        0.907      866.448
01/21/2015  01:25:00      -11.396       -9.997       -9.134       14.381       14.371       14.281      206.814      206.523      203.933        0.047        0.031       15.159        6.429        0.180      332.240        0.775      866.470
01/21/2015  01:26:00      -19.698      -11.498       -0.777       18.297       12.425       14.108      334.793      154.374      199.023        0.060        0.034       22.808       12.401        0.296      332.244        0.779      866.482
01/21/2015  01:27:00      -48.471      -14.421       -5.149       15.239       12.698        9.965      232.223      161.237       99.294        0.154        0.025       50.571        5.186        0.011      332.382        1.007      866.479
01/21/2015  01:28:00       -5.765       -5.545        1.037       10.097       15.448        9.477      101.955      238.637       89.822        0.025        0.022        7.999        9.645        1.454      332.301        0.874      866.469
01/21/2015  01:29:00      -22.086        4.839        6.193       12.617       10.154        7.704      159.192      103.110       59.352        0.044        0.016       22.610        8.252        0.133      332.333        0.927      866.471
01/21/2015  01:30:00      -24.846        5.197        1.180       13.236       13.469       11.538      175.183      181.408      133.124        0.057        0.024       25.383        5.568        0.048      332.412        1.058      866.463
01/21/2015  01:31:00      -32.887       -6.889      -10.861       11.958       11.230        8.012      143.001      126.120       64.193        0.079        0.017       33.601        3.392        0.010      332.410        1.055      866.461
01/21/2015  01:32:00      -38.371       -1.904       -2.343       11.142       13.626       10.531      124.150      185.668      110.892        0.095        0.021       38.418        6.325        0.027      332.386        1.015      866.459
01/21/2015  01:33:00      -15.037      -12.764        1.828       11.732        9.078        7.844      137.637       82.413       61.522        0.034        0.014       19.724        8.130        0.170      332.265        0.813      866.469
01/21/2015  01:34:00      -33.336      -11.687       -1.621       13.138        8.901        8.255      172.616       79.236       68.145        0.079        0.016       35.325        5.748        0.026      332.312        0.893      866.470
01/21/2015  01:35:00        2.402      -18.725       -5.225        8.856        8.557        7.743       78.427       73.229       59.961        0.030        0.011       18.878        4.179        0.049      332.374        0.995      866.475
01/21/2015  01:36:00      -31.032      -13.904        1.630       12.359        7.612        6.253      152.740       57.938       39.105        0.070        0.012       34.005        5.216        0.024      332.398        1.035      866.483
01/21/2015  01:37:00      -46.529      -16.621       -3.316        6.216        5.177        7.435       38.634       26.802       55.280        0.129        0.006       49.408        4.988        0.010      332.357        0.966      866.490
01/21/2015  01:38:00      -47.083      -16.918       -0.523        9.531        7.997        6.419       90.843       63.949       41.199        0.135        0.010       50.030        4.214        0.007      332.385        1.011      866.498
01/21/2015  01:39:00       -0.666      -19.342        3.218        8.440       13.716        9.264       71.237      188.124       85.817        0.036        0.017       19.353        7.271        0.141      332.373        0.992      866.511
01/21/2015  01:40:00       -4.928       -9.481       -7.799        6.952        9.344        7.157       48.332       87.303       51.228        0.018        0.009       10.686        4.605        0.186      332.257        0.801      866.522
01/21/2015  01:41:00       10.560        7.282        9.386        8.926        5.531        8.310       79.674       30.596       69.054        0.022        0.009       12.827        6.689        0.272      332.158        0.638      866.530
01/21/2015  01:42:00       11.905       12.988        0.027        6.168        7.899        3.257       38.049       62.389       10.606        0.021        0.006       17.618        0.778        0.002      332.148        0.623      866.531
01/21/2015  01:43:00       21.084       16.201        6.742        8.361        8.844        7.965       69.914       78.214       63.445        0.048        0.011       26.590        6.124        0.053      332.017        0.406      866.532
01/21/2015  01:44:00       12.539       10.320        8.945        6.698        5.830        3.878       44.863       33.991       15.035        0.022        0.005       16.240        2.390        0.022      332.054        0.468      866.537
01/21/2015  01:45:00       -9.573       -7.803       -1.204        9.904        9.271        5.763       98.097       85.958       33.211        0.019        0.011       12.351        3.434        0.077      332.070        0.494      866.541
01/21/2015  01:46:00      -32.780      -15.198       -6.341        7.397        6.627        6.848       54.721       43.924       46.890        0.075        0.007       36.132        1.337        0.001      332.240        0.775      866.547
01/21/2015  01:47:00      -28.043       -9.865       -5.229        8.080        5.711        4.671       65.282       32.616       21.818        0.052        0.006       29.727        3.120        0.011      332.259        0.807      866.553
01/21/2015  01:48:00      -26.364       -6.629       -4.085        3.988        3.534        2.861       15.907       12.487        8.184        0.040        0.002       27.184        1.468        0.003      332.249        0.787      866.556
01/21/2015  01:49:00      -14.900       -5.590       -1.491        4.923        4.485        3.524       24.240       20.114       12.419        0.016        0.003       15.914        2.654        0.028      332.256        0.800      866.565
01/21/2015  01:50:00      -15.937        0.603       -2.529        4.041        5.134        3.965       16.331       26.355       15.722        0.016        0.003       15.948        2.809        0.031      332.222        0.746      866.560
01/21/2015  01:51:00      -24.364        0.836       -1.090        7.298        6.168        2.387       53.259       38.043        5.698        0.035        0.005       24.378        2.261        0.009      332.193        0.696      866.566
01/21/2015  01:52:00      -32.854       -9.494       -5.111        6.744        7.608        3.949       45.486       57.883       15.593        0.066        0.006       34.198        3.574        0.011      332.094        0.535      866.565
01/21/2015  01:53:00      -27.901       -7.476       -3.274        7.734        7.071        5.312       59.814       49.997       28.222        0.049        0.007       28.885        3.465        0.014      332.124        0.583      866.561
01/21/2015  01:54:00      -24.679        1.662       -5.947        5.065        4.673        4.256       25.658       21.836       18.110        0.036        0.003       24.735        2.034        0.007      332.151        0.627      866.552
01/21/2015  01:55:00      -33.523        5.622       -4.159        5.383        4.169        4.813       28.975       17.377       23.165        0.062        0.003       33.991        1.823        0.003      332.195        0.702      866.550
01/21/2015  01:56:00      -40.608       10.414       -4.663        7.755        5.999        4.438       60.133       35.991       19.696        0.095        0.006       41.922        2.037        0.002      332.262        0.810      866.552
01/21/2015  01:57:00      -51.150        2.298       -5.541        5.579        9.023        4.152       31.128       81.417       17.238        0.139        0.006       51.202        2.750        0.003      332.208        0.721      866.545
01/21/2015  01:58:00      -54.386      -28.017       -0.135       16.050       15.060       12.076      257.595      226.791      145.821        0.219        0.032       61.179       12.294        0.040      332.166        0.653      866.539
01/21/2015  01:59:00      -34.160       -8.120        1.345       16.338       13.023        8.183      266.914      169.597       66.960        0.087        0.025       35.112        2.466        0.005      332.000        0.380      866.528
01/21/2015  02:00:00      -37.645        5.634       -8.193        5.648        5.311        5.703       31.904       28.211       32.523        0.080        0.005       38.064        2.633        0.005      331.979        0.344      866.538
01/21/2015  02:01:00      -45.704        1.684       -7.309        7.606       12.211        5.489       57.856      149.097       30.128        0.119        0.012       45.735        4.629        0.010      332.086        0.521      866.532
01/21/2015  02:02:00      -45.669      -30.734       -7.421       18.377       10.792       11.721      337.704      116.476      137.377        0.184        0.030       55.047       10.461        0.036      331.992        0.366      866.528
01/21/2015  02:03:00      -70.579      -27.689       -4.542       14.257       14.358        9.457      203.257      206.154       89.435        0.313        0.025       75.816        7.540        0.010      332.011        0.398      866.522
01/21/2015  02:04:00      -47.374        3.563       -4.246       11.360       15.397        8.793      129.046      237.062       77.316        0.136        0.022       47.508        7.361        0.024      331.973        0.334      866.529
01/21/2015  02:05:00      -57.680       -8.008      -10.591       11.010       10.540        5.559      121.230      111.085       30.902        0.188        0.013       58.234        4.276        0.005      332.133        0.598      866.527
01/21/2015  02:06:00      -62.716       -4.659       -9.312       13.513       10.911        8.648      182.596      119.058       74.787        0.221        0.019       62.889        7.502        0.014      332.002        0.383      866.530
01/21/2015  02:07:00      -54.093        9.840      -15.739        7.439        9.684        7.557       55.345       93.786       57.113        0.174        0.010       54.981        4.410        0.006      332.049        0.459      866.550
01/21/2015  02:08:00      -47.203      -10.414       -7.574        7.866       10.828        6.568       61.870      117.254       43.141        0.131        0.011       48.338        5.248        0.012      332.152        0.628      866.571
01/21/2015  02:09:00      -50.978       -8.124       -9.077        9.303       12.521        6.328       86.537      156.786       40.042        0.152        0.014       51.621        4.909        0.009      332.018        0.409      866.577
01/21/2015  02:10:00      -49.814        3.074      -10.452        8.681       17.562       10.029       75.367      308.413      100.589        0.154        0.024       49.909        7.049        0.020      332.102        0.549      866.579
01/21/2015  02:11:00      -48.691      -17.653       -9.526        9.495        9.651       10.128       90.153       93.137      102.569        0.153        0.014       51.792        5.614        0.012      331.960        0.313      866.581
01/21/2015  02:12:00      -63.509       -8.152       -3.051       37.929       19.671       13.111     1438.582      386.939      171.887        0.305        0.100       64.030        6.556        0.010      332.020        0.412      866.585
01/21/2015  02:13:00      -66.094      -11.717       -4.178       28.632       25.767       15.940      819.777      663.924      254.077        0.313        0.087       67.124       11.449        0.029      331.928        0.260      866.592
01/21/2015  02:14:00      -62.459        8.430       -3.721       33.926       30.809       21.305     1150.962      949.169      453.918        0.327        0.128       63.026       15.009        0.057      332.138        0.605      866.609
01/21/2015  02:15:00      -87.264      -13.529      -12.202       25.917       24.226       13.817      671.682      586.908      190.913        0.470        0.072       88.306        7.766        0.008      332.249        0.789      866.612
01/21/2015  02:16:00      -91.035      -37.617       -3.478       20.911       15.803       11.541      437.282      249.727      133.190        0.527        0.041       98.501        6.289        0.004      332.005        0.386      866.618
01/21/2015  02:17:00      -54.190      -15.758        0.309       28.230       20.553       11.233      796.929      422.407      126.175        0.227        0.067       56.435       12.422        0.048      331.960        0.312      866.620
01/21/2015  02:18:00      -23.660      -13.914        2.628       32.988       32.039       14.964     1088.229     1026.517      223.919        0.155        0.117       27.448       12.370        0.203      332.045        0.453      866.627
01/21/2015  02:19:00      -43.681       -3.262      -11.016       23.840       25.122       14.409      568.353      631.140      207.611        0.172        0.070       43.803       11.527        0.069      332.285        0.848      866.628
01/21/2015  02:20:00      -30.639      -18.408       -7.360       15.093       14.509       11.821      227.787      210.499      139.740        0.095        0.029       35.744        8.947        0.063      332.340        0.940      866.623
01/21/2015  02:21:00      -40.730      -14.268       -4.984       12.024       19.313        9.422      144.583      373.002       88.780        0.125        0.030       43.156        9.996        0.054      332.188        0.687      866.627
01/21/2015  02:22:00      -45.459      -11.421       -6.188       18.719       21.246        9.854      350.410      451.412       97.110        0.157        0.045       46.871        7.155        0.023      332.177        0.672      866.631
01/21/2015  02:23:00      -49.236       32.642       -8.777       18.157       25.646       12.844      329.661      657.724      164.962        0.236        0.058       59.073        9.777        0.027      332.387        1.017      866.635
01/21/2015  02:24:00      -30.191       86.069      -17.335       33.311       36.025       22.353     1109.606     1297.824      499.672        0.576        0.145       91.210       20.469        0.050      332.765        1.641      866.641
01/21/2015  02:25:00       -1.477       74.835       -6.347       30.703       33.683       17.877      942.673     1134.534      319.601        0.402        0.120       74.849       18.157        0.059      332.544        1.276      866.636
01/21/2015  02:26:00      -64.730       23.655      -11.389       17.500       27.630       15.528      306.261      763.424      241.117        0.309        0.066       68.917        7.848        0.013      332.656        1.461      866.626
01/21/2015  02:27:00       -4.353       17.546        2.863       35.261       20.932       12.230     1243.343      438.151      149.569        0.108        0.092       18.078       10.762        0.354      332.491        1.189      866.623
01/21/2015  02:28:00      -36.643       -9.610        4.687       27.390       17.315       16.371      750.191      299.824      268.011        0.139        0.066       37.882       16.255        0.184      332.387        1.016      866.633
01/21/2015  02:29:00      -46.725      -20.189       -8.848        9.566       15.089        8.155       91.500      227.683       66.508        0.153        0.019       50.900        4.862        0.009      332.242        0.777      866.633
01/21/2015  02:30:00      -25.477      -11.654       -6.499        9.878       10.518        6.690       97.567      110.621       44.751        0.054        0.013       28.016        5.438        0.038      332.303        0.879      866.639
01/21/2015  02:31:00      -10.776       -9.421        1.597       10.278       10.618       10.272      105.631      112.749      105.514        0.027        0.016       14.314        6.739        0.222      332.320        0.905      866.639
01/21/2015  02:32:00        4.757       13.490       -4.841       27.037       19.662       11.991      731.023      386.578      143.789        0.074        0.063       14.304       13.561        0.899      332.641        1.437      866.643
01/21/2015  02:33:00       -1.734        4.859        6.197       23.783       16.071       11.767      565.653      258.280      138.459        0.051        0.048        5.159        5.266        1.042      332.502        1.206      866.637
01/21/2015  02:34:00       -2.524        1.435       -1.654       13.518       15.673        9.492      182.739      245.635       90.103        0.026        0.026        2.904        7.646        6.934      332.552        1.288      866.630
01/21/2015  02:35:00      -29.544       16.586       -5.676       22.043       26.868       12.692      485.890      721.915      161.083        0.127        0.068       33.881        7.662        0.051      332.545        1.278      866.631
01/21/2015  02:36:00      -19.514       15.853      -10.634       19.105       35.866       16.399      364.985     1286.375      268.919        0.133        0.096       25.142       14.117        0.315      332.382        1.008      866.634
01/21/2015  02:37:00      -32.115      -23.635       -6.824       13.326       11.290        7.161      177.574      127.456       51.275        0.100        0.018       39.874        7.647        0.037      332.263        0.812      866.649
01/21/2015  02:38:00      -55.720      -18.282      -10.586        8.481       13.578        7.852       71.923      184.370       61.650        0.193        0.016       58.643        4.439        0.006      332.038        0.444      866.670
01/21/2015  02:39:00      -51.348      -28.893      -12.576        8.313       12.144        9.082       69.098      147.477       82.480        0.196        0.015       58.919        5.531        0.009      332.097        0.539      866.680
01/21/2015  02:40:00      -56.488      -24.211      -10.078       10.160        9.722        7.950      103.233       94.516       63.204        0.207        0.013       61.458        4.833        0.006      332.001        0.380      866.693
01/21/2015  02:41:00      -54.901      -28.742       -1.042       11.973       24.707       14.761      143.355      610.450      217.874        0.241        0.049       61.969       12.758        0.042      331.965        0.320      866.698
01/21/2015  02:42:00      -56.871      -16.153      -17.099       22.682       14.482        9.798      514.494      209.730       95.992        0.230        0.041       59.120        6.733        0.013      331.977        0.341      866.707
01/21/2015  02:43:00      -34.237      -28.698       -5.584       13.845       19.196       10.849      191.687      368.492      117.692        0.135        0.034       44.674        9.471        0.045      332.084        0.517      866.713
01/21/2015  02:44:00      -33.916      -18.376      -16.563       13.834       12.429       12.234      191.385      154.478      149.660        0.113        0.025       38.574        7.910        0.042      332.155        0.635      866.719
01/21/2015  02:45:00      -31.536       -8.713      -10.937       11.195       12.065        7.188      125.331      145.554       51.668        0.076        0.016       32.717        6.574        0.040      332.136        0.602      866.728
01/21/2015  02:46:00      -35.392       -4.955      -13.859       14.632       11.598        8.939      214.098      134.520       79.906        0.095        0.021       35.737        5.647        0.025      332.150        0.626      866.735
01/21/2015  02:47:00      -43.268      -20.179      -11.961       22.612       12.032        7.424      511.286      144.767       55.109        0.157        0.036       47.742        4.255        0.008      332.287        0.853      866.750
01/21/2015  02:48:00      -33.965      -16.902       -4.429       14.824       12.359       10.857      219.745      152.748      117.875        0.097        0.025       37.938        9.884        0.068      332.020        0.411      866.750
01/21/2015  02:49:00      -25.375      -10.308       -4.318       14.297        7.515        4.457      204.397       56.482       19.867        0.052        0.014       27.389        4.286        0.024      332.070        0.493      866.741
01/21/2015  02:50:00      -28.826       -2.447       -3.753        8.996        7.982        8.232       80.930       63.710       67.767        0.053        0.011       28.929        8.226        0.081      332.220        0.743      866.725
01/21/2015  02:51:00      -13.307      -12.779        3.663       18.101       12.242       11.980      327.662      149.863      143.525        0.049        0.031       18.449       11.692        0.402      332.237        0.770      866.707
01/21/2015  02:52:00       10.629       27.659       -1.196       12.881       16.811       11.170      165.925      282.613      124.777        0.073        0.029       29.631        7.353        0.062      332.417        1.065      866.704
01/21/2015  02:53:00       27.702       10.538        2.624       14.062       19.312       12.488      197.737      372.938      155.955        0.081        0.036       29.639        9.259        0.098      332.431        1.089      866.703
01/21/2015  02:54:00       46.248       28.240        1.681       21.580       20.840       19.638      465.706      434.319      385.651        0.211        0.064       54.188       11.697        0.047      332.542        1.272      866.715
01/21/2015  02:55:00       14.634       37.248       -3.483       28.499       13.225       11.242      812.190      174.900      126.384        0.136        0.056       40.020        8.435        0.044      332.518        1.234      866.728
01/21/2015  02:56:00       22.887       24.245        8.054       18.519       22.341       15.484      342.939      499.112      239.740        0.113        0.054       33.341       13.803        0.171      332.436        1.098      866.746
01/21/2015  02:57:00        5.853       55.601       -5.745       24.801       22.888       16.395      615.099      523.850      268.810        0.228        0.070       55.909       11.091        0.039      332.484        1.177      866.760
01/21/2015  02:58:00       12.859      101.747      -11.311       23.589       34.507       13.722      556.431     1190.718      188.281        0.629        0.097      102.557       14.547        0.020      332.559        1.299      866.778
01/21/2015  02:59:00       28.592       95.288      -11.834       16.862       27.552       16.101      284.325      759.110      259.242        0.567        0.065       99.486       13.398        0.018      332.529        1.250      866.807
01/21/2015  03:00:00       25.642       66.565       -5.066       22.998       55.296       22.522      528.925     3057.669      507.238        0.460        0.205       71.333       28.688        0.162      332.510        1.218      866.835
01/21/2015  03:01:00       29.764       40.009       -2.546       30.370       30.321       18.298      922.323      919.393      334.829        0.233        0.109       49.866       18.321        0.135      332.474        1.161      866.854
01/21/2015  03:02:00       26.164       36.385       -2.436       26.691       25.388       12.745      712.384      644.568      162.426        0.177        0.076       44.815       11.344        0.064      332.498        1.200      866.864
01/21/2015  03:03:00       13.863      -13.379        5.677       11.241       15.813        9.988      126.361      250.060       99.763        0.044        0.024       19.266        6.425        0.111      332.381        1.006      866.875
01/21/2015  03:04:00       11.946      -31.530        2.445       12.331        9.996       10.484      152.047       99.924      109.915        0.075        0.018       33.718        8.268        0.060      332.437        1.097      866.878
01/21/2015  03:05:00        3.147      -18.283        5.723        8.290        9.912        8.070       68.722       98.251       65.132        0.030        0.012       18.552        3.720        0.040      332.357        0.965      866.880
01/21/2015  03:06:00       -8.984      -31.060        2.473       16.005       21.042       10.198      256.170      442.761      103.996        0.093        0.040       32.333        7.158        0.049      332.275        0.830      866.881
01/21/2015  03:07:00      -15.911      -18.315       -0.432       25.280       14.559       11.075      639.103      211.974      122.665        0.078        0.049       24.261        6.757        0.078      332.180        0.675      866.876
01/21/2015  03:08:00      -25.771       -8.599       -3.070       13.323        8.841       11.045      177.500       78.165      122.003        0.056        0.019       27.168        6.579        0.059      332.157        0.638      866.880
01/21/2015  03:09:00      -38.094       -1.895        0.185       13.077       13.945        8.999      171.004      194.462       80.988        0.095        0.022       38.141        3.071        0.006      332.047        0.456      866.883
01/21/2015  03:10:00      -26.685        4.910       -7.060       14.110       10.269        6.906      199.092      105.443       47.693        0.057        0.018       27.133        5.063        0.035      332.122        0.580      866.891
01/21/2015  03:11:00      -28.560       15.543        2.474       11.049       10.873        7.290      122.085      118.213       53.145        0.068        0.015       32.516        3.616        0.012      332.171        0.660      866.902
01/21/2015  03:12:00        9.494       35.804       -8.033       24.008       20.761       12.426      576.391      431.006      154.407        0.130        0.058       37.042       16.757        0.205      332.369        0.986      866.915
01/21/2015  03:13:00       -7.816       63.782      -13.827       17.584       27.166       12.704      309.209      737.973      161.394        0.276        0.060       64.260       13.789        0.046      332.440        1.102      866.913
01/21/2015  03:14:00        7.608       25.122        3.784       28.935       15.296       15.303      837.256      233.965      234.184        0.100        0.065       26.249        9.196        0.123      332.324        0.912      866.903
01/21/2015  03:15:00       -1.780       78.454       -8.758       15.212       16.852       12.705      231.410      284.002      161.418        0.346        0.034       78.474        4.201        0.003      332.357        0.965      866.887
01/21/2015  03:16:00       -7.089       82.637      -11.168       12.571       13.553        9.895      158.025      183.676       97.909        0.372        0.022       82.941        7.681        0.009      332.413        1.059      866.871
01/21/2015  03:17:00       -6.525       77.969      -10.288       17.388       18.773       11.532      302.345      352.409      132.991        0.351        0.039       78.242        8.068        0.011      332.426        1.080      866.853
01/21/2015  03:18:00      -28.019       49.804       -5.350       18.436       21.400       11.057      339.902      457.941      122.268        0.211        0.046       57.145        8.645        0.023      332.305        0.880      866.847
01/21/2015  03:19:00      -54.846        1.993       -9.382       15.857       23.558        9.744      251.446      554.999       94.952        0.200        0.045       54.882       10.092        0.034      332.112        0.563      866.831
01/21/2015  03:20:00      -50.424      -24.899       -6.948       15.332       16.686       11.538      235.070      278.430      133.123        0.193        0.032       56.236        3.805        0.005      332.029        0.425      866.815
01/21/2015  03:21:00      -11.189      -17.247        1.136       18.316       18.758       14.523      335.471      351.870      210.921        0.066        0.045       20.559       14.617        0.505      331.951        0.297      866.797
01/21/2015  03:22:00      -29.350      -35.644       -3.355       20.250       14.710       11.917      410.064      216.392      142.010        0.146        0.038       46.173        8.904        0.037      331.983        0.351      866.782
01/21/2015  03:23:00      -29.012      -26.933        7.436       29.506       16.624       14.209      870.602      276.357      201.898        0.149        0.067       39.586       15.559        0.154      331.891        0.198      866.780
01/21/2015  03:24:00     -104.344      -11.153      -14.093       16.517       15.144        9.505      272.796      229.340       90.353        0.590        0.030      104.938        5.424        0.003      331.895        0.203      866.768
01/21/2015  03:25:00      -94.766      -26.669       -8.996       18.286       14.287       13.318      334.362      204.130      177.369        0.524        0.036       98.447        9.944        0.010      331.863        0.154      866.764
01/21/2015  03:26:00      -99.885      -13.465      -11.609       14.281       10.759       12.085      203.951      115.764      146.052        0.538        0.023      100.788        7.496        0.006      331.843        0.119      866.773
01/21/2015  03:27:00      -71.001      -28.632       -7.099       19.767       14.949       11.686      390.717      223.471      136.567        0.333        0.038       76.557        8.316        0.012      331.766       -0.008      866.786
01/21/2015  03:28:00      -67.968      -34.454       -5.949       15.105       12.524        8.132      228.160      156.863       66.137        0.315        0.023       76.202        8.405        0.012      331.780        0.016      866.808
01/21/2015  03:29:00      -67.802      -45.920       -8.405        9.451       11.473        7.758       89.317      131.636       60.189        0.353        0.014       81.889        4.792        0.003      331.949        0.293      866.816
01/21/2015  03:30:00      -79.702      -37.838      -14.091        7.989        7.670        7.281       63.824       58.825       53.016        0.408        0.009       88.228        4.529        0.003      332.025        0.421      866.807
01/21/2015  03:31:00      -94.567      -19.710      -14.323       12.510       13.804        8.148      156.491      190.558       66.389        0.497        0.021       96.599        6.385        0.004      331.976        0.338      866.791
01/21/2015  03:32:00      -77.321      -25.881      -11.236        8.901       11.092        6.679       79.223      123.033       44.615        0.351        0.012       81.538        3.187        0.002      332.001        0.380      866.775
01/21/2015  03:33:00      -97.763      -41.462      -15.039       10.523       14.198        8.965      110.741      201.593       80.373        0.595        0.020      106.192        5.173        0.002      332.010        0.395      866.756
01/21/2015  03:34:00      -91.817      -48.348       -2.055       22.934       17.139       10.254      525.954      293.738      105.151        0.585        0.046      103.769        9.326        0.008      331.952        0.298      866.738
01/21/2015  03:35:00      -72.115      -34.872       -8.701       10.972        6.971        6.617      120.383       48.591       43.783        0.335        0.011       80.104        2.748        0.001      331.900        0.213      866.742
01/21/2015  03:36:00      -73.036      -19.522       -8.595       13.919       14.451        9.827      193.738      208.837       96.577        0.314        0.025       75.600        6.670        0.008      331.876        0.175      866.748
01/21/2015  03:37:00     -106.976      -23.395      -16.107       19.501       11.322       13.736      380.292      128.189      188.679        0.647        0.035      109.505        8.424        0.006      331.852        0.135      866.750
01/21/2015  03:38:00      -91.531      -39.704      -12.230       18.808       12.450       10.794      353.723      155.012      116.504        0.536        0.031       99.772        5.454        0.003      331.769       -0.002      866.752
01/21/2015  03:39:00      -87.148      -34.754       -8.882       23.645       26.818       12.893      559.103      719.182      166.227        0.516        0.072       93.822       12.322        0.017      331.748       -0.037      866.776
01/21/2015  03:40:00     -100.491      -27.236       -6.248       39.569       21.944       16.343     1565.744      481.549      267.092        0.660        0.116      104.117       17.530        0.028      331.739       -0.050      866.805
01/21/2015  03:41:00      -95.237      -10.354        4.066       31.393       28.662       17.216      985.495      821.488      296.394        0.565        0.105       95.798       12.371        0.017      331.708       -0.103      866.828
01/21/2015  03:42:00     -109.213       -2.253       -6.770       42.787       29.754       19.068     1830.690      885.291      363.594        0.753        0.154      109.236       19.549        0.032      331.743       -0.043      866.855
01/21/2015  03:43:00      -86.161      -10.628       -0.590       34.025       20.273       17.523     1157.733      411.009      307.063        0.471        0.094       86.814       18.898        0.047      331.744       -0.043      866.872
01/21/2015  03:44:00     -100.350      -24.947       -0.792       21.261       16.998       13.810      452.021      288.933      190.708        0.581        0.047      103.404        5.444        0.003      331.709       -0.101      866.873
01/21/2015  03:45:00      -77.201      -22.571       -8.357       17.738       13.451       11.351      314.637      180.933      128.850        0.358        0.031       80.433        4.588        0.003      331.681       -0.145      866.882
01/21/2015  03:46:00      -97.536      -29.650       -5.171       22.296       23.663       12.032      497.119      559.938      144.764        0.581        0.060      101.943        8.054        0.006      331.694       -0.125      866.887
01/21/2015  03:47:00     -102.289      -19.119      -10.044       23.299       13.418       12.452      542.855      180.055      155.045        0.590        0.044      104.061        6.426        0.004      331.702       -0.113      866.894
01/21/2015  03:48:00      -82.445      -33.409       -6.806       11.813       14.149       10.798      139.537      200.199      116.599        0.421        0.023       88.957        6.020        0.005      331.654       -0.189      866.899
01/21/2015  03:49:00      -90.235      -38.419       -6.433       17.059       17.148       10.874      291.015      294.050      118.243        0.518        0.035       98.073        7.878        0.006      331.678       -0.151      866.909
01/21/2015  03:50:00      -83.553      -33.783       -4.099       29.588       21.175       15.895      875.454      448.399      252.660        0.486        0.079       90.124       16.285        0.033      331.660       -0.179      866.920
01/21/2015  03:51:00      -85.119      -27.396      -10.980       21.704       13.568        9.198      471.075      184.094       84.601        0.443        0.037       89.419        5.180        0.003      331.655       -0.190      866.930
01/21/2015  03:52:00     -106.746      -34.325      -11.304       15.894       15.839       11.201      252.611      250.869      125.453        0.666        0.031      112.129        4.549        0.002      331.708       -0.101      866.928
01/21/2015  03:53:00      -92.307      -20.817       -7.467       22.653       20.296       11.756      513.166      411.922      138.207        0.504        0.053       94.625        9.565        0.010      331.705       -0.106      866.937
01/21/2015  03:54:00      -70.494      -32.611       -1.780       28.753       21.148       10.482      826.753      447.217      109.882        0.371        0.069       77.671       10.380        0.018      331.733       -0.062      866.947
01/21/2015  03:55:00      -79.391      -25.985       -3.174       13.879       14.098       10.126      192.630      198.758      102.529        0.374        0.025       83.535        5.441        0.004      331.786        0.024      866.960
01/21/2015  03:56:00      -63.152      -32.900        1.621       19.670       17.395       14.619      386.908      302.575      213.726        0.299        0.045       71.208        8.401        0.014      331.779        0.015      866.975
01/21/2015  03:57:00      -77.836      -28.342       -6.909       15.508       15.520       10.687      240.492      240.856      114.214        0.375        0.030       82.836        6.953        0.007      331.822        0.085      866.995
01/21/2015  03:58:00      -80.463      -42.978       -6.563       11.777        9.194       11.976      138.702       84.534      143.436        0.437        0.018       91.222        5.640        0.004      331.814        0.072      867.010
01/21/2015  03:59:00      -83.904      -37.189       -7.489       12.033        9.790        9.310      144.799       95.845       86.674        0.440        0.016       91.776        5.031        0.003      331.788        0.030      867.019
01/21/2015  04:00:00      -58.098      -25.672       -4.668       21.015       19.828        9.023      441.641      393.156       81.409        0.249        0.046       63.517        8.798        0.019      331.745       -0.042      867.032
01/21/2015  04:01:00      -71.604      -22.198       -7.216       21.402       15.204       11.383      458.029      231.149      129.576        0.325        0.041       74.965        4.223        0.003      331.691       -0.130      867.050
01/21/2015  04:02:00      -94.578      -20.950      -10.961       14.686       17.924       10.761      215.683      321.256      115.802        0.508        0.033       96.871        6.276        0.004      331.652       -0.194      867.073
01/21/2015  04:03:00     -115.052      -29.647       -8.399       16.626       11.433        9.931      276.417      130.719       98.625        0.735        0.025      118.811        2.365        0.000      331.649       -0.198      867.091
01/21/2015  04:04:00     -121.718      -29.341       -7.631       18.917       17.346       14.252      357.860      300.867      203.122        0.830        0.043      125.205        8.172        0.004      331.621       -0.245      867.095
01/21/2015  04:05:00      -91.027      -43.549       -3.356       17.077       15.897       10.446      291.612      252.718      109.127        0.542        0.033      100.908        9.028        0.008      331.669       -0.167      867.095
01/21/2015  04:06:00      -49.458      -32.284        0.640       16.101       19.551       14.488      259.231      382.232      209.902        0.217        0.043       59.062       10.420        0.031      331.669       -0.166      867.103
01/21/2015  04:07:00      -71.894      -40.114       -8.559       18.244       19.322       11.659      332.832      373.354      135.930        0.385        0.042       82.327       10.390        0.016      331.611       -0.263      867.119
01/21/2015  04:08:00      -79.492      -48.185       -1.328       23.559       15.044       16.362      555.019      226.317      267.700        0.485        0.052       92.956       12.863        0.019      331.583       -0.309      867.142
01/21/2015  04:09:00      -61.589      -46.548        0.323       19.806       13.907       16.575      392.268      193.417      274.714        0.341        0.043       77.200       12.736        0.027      331.643       -0.210      867.162
01/21/2015  04:10:00      -86.453      -45.107       -8.548       13.312       15.115        7.772      177.202      228.461       60.409        0.502        0.023       97.512        6.233        0.004      331.668       -0.168      867.184
01/21/2015  04:11:00      -90.815      -29.005       -6.977       12.786       16.541       10.240      163.491      273.603      104.864        0.484        0.027       95.334        7.152        0.006      331.639       -0.216      867.199
01/21/2015  04:12:00     -103.366      -19.352       -6.213       19.232       17.077       14.504      369.885      291.635      210.362        0.598        0.044      105.162       11.858        0.013      331.644       -0.207      867.209
01/21/2015  04:13:00      -90.264      -28.873       -4.539       24.296       17.182       17.863      590.306      295.238      319.069        0.510        0.060       94.770       15.835        0.028      331.664       -0.176      867.208
01/21/2015  04:14:00      -70.626      -15.060        0.023       33.991       28.948       13.572     1155.357      837.967      184.194        0.370        0.109       72.214        8.750        0.015      331.626       -0.237      867.213
01/21/2015  04:15:00      -40.516      -21.866        1.238       28.602       20.134       14.619      818.048      405.388      213.727        0.178        0.072       46.040       13.446        0.085      331.606       -0.270      867.220
01/21/2015  04:16:00      -84.177       -9.338      -10.383       22.760       19.449       14.990      518.010      378.262      224.703        0.420        0.056       84.693       11.723        0.019      331.683       -0.142      867.239
01/21/2015  04:17:00      -77.332      -17.073       -6.897       34.685       20.913       14.204     1203.056      437.356      201.766        0.408        0.092       79.195       10.691        0.018      331.637       -0.218      867.267
01/21/2015  04:18:00      -71.829      -14.439       -0.730       27.779       21.173       15.572      771.655      448.299      242.476        0.342        0.073       73.266       15.191        0.043      331.591       -0.295      867.290
01/21/2015  04:19:00      -91.206       -6.489       -6.949       37.218       22.664       16.053     1385.178      513.648      257.702        0.528        0.108       91.436       18.184        0.040      331.612       -0.259      867.302
01/21/2015  04:20:00      -97.768      -10.565       -8.249       26.662       21.057       15.071      710.871      443.402      227.136        0.556        0.069       98.337       13.069        0.018      331.622       -0.243      867.299
01/21/2015  04:21:00      -51.699       -8.559       -2.373       27.834       26.200       16.014      774.738      686.421      256.447        0.223        0.086       52.403       12.066        0.053      331.575       -0.321      867.302
01/21/2015  04:22:00      -79.098       -7.887       -5.321       18.434       17.773       14.346      339.819      315.875      205.800        0.360        0.043       79.490       10.574        0.018      331.662       -0.176      867.318
01/21/2015  04:23:00      -63.903       -1.432       -4.496       32.023       23.581       16.337     1025.495      556.060      266.907        0.298        0.092       63.919       15.336        0.058      331.624       -0.241      867.326
01/21/2015  04:24:00      -70.077        2.555       -9.167       34.586       19.082       16.715     1196.216      364.120      279.376        0.342        0.092       70.124       15.747        0.050      331.616       -0.253      867.324
01/21/2015  04:25:00      -62.037        7.344       -8.822       14.925       18.606       10.378      222.761      346.202      107.698        0.233        0.034       62.470        8.402        0.018      331.742       -0.046      867.308
01/21/2015  04:26:00      -48.044      -17.535       -9.286       16.701       14.750        9.037      278.928      217.558       81.660        0.164        0.029       51.144        5.509        0.012      331.732       -0.061      867.291
01/21/2015  04:27:00      -64.485      -28.823       -5.607        9.694       13.165        6.570       93.976      173.329       43.167        0.267        0.016       70.634        5.129        0.005      331.718       -0.086      867.272
01/21/2015  04:28:00      -72.928      -30.564       -5.012        6.942       17.810        6.318       48.185      317.214       39.921        0.334        0.020       79.074        3.997        0.003      331.752       -0.031      867.243
01/21/2015  04:29:00      -59.587      -29.483       -9.251        7.955        7.685        6.416       63.281       59.059       41.162        0.233        0.008       66.482        4.404        0.004      331.800        0.049      867.223
01/21/2015  04:30:00      -40.616      -24.297      -10.660        8.515        6.317        6.512       72.502       39.904       42.401        0.125        0.008       47.329        4.208        0.008      331.822        0.086      867.212
01/21/2015  04:31:00      -20.803      -30.320       -6.888       11.115        9.128        8.648      123.534       83.317       74.783        0.084        0.014       36.770        6.270        0.029      331.891        0.198      867.208
01/21/2015  04:32:00      -45.839      -28.374       -7.118        7.354        5.630        5.714       54.080       31.696       32.652        0.154        0.006       53.910        3.034        0.003      331.895        0.208      867.211
01/21/2015  04:33:00      -52.988      -34.244      -11.360       14.048        9.000        8.682      197.348       80.992       75.378        0.223        0.018       63.090        5.868        0.009      331.961        0.313      867.221
01/21/2015  04:34:00      -78.158      -43.220       -9.920       14.044        7.004        6.200      197.227       49.061       38.439        0.418        0.014       89.312        4.306        0.002      331.951        0.298      867.234
01/21/2015  04:35:00      -75.419      -48.443       -7.529       16.969       14.416       10.276      287.950      207.822      105.598        0.435        0.030       89.637        4.711        0.003      331.903        0.217      867.244
01/21/2015  04:36:00      -72.358      -51.281       -8.614       23.639       15.079       13.728      558.789      227.371      188.455        0.446        0.049       88.688        8.718        0.010      331.758       -0.020      867.250
01/21/2015  04:37:00      -59.137      -44.129        3.515       29.368       26.353       19.093      862.482      694.463      364.545        0.369        0.096       73.787       16.369        0.049      331.541       -0.376      867.266
01/21/2015  04:38:00     -126.643      -48.528       -7.474       13.778       13.791       11.444      189.840      190.192      130.961        0.948        0.026      135.622        7.798        0.003      331.614       -0.256      867.273
01/21/2015  04:39:00     -112.449      -55.788      -15.233       17.381       13.556       13.197      302.108      183.764      174.148        0.832        0.033      125.527       11.100        0.008      331.538       -0.382      867.274
01/21/2015  04:40:00      -98.005      -58.411       -6.539       26.126       19.388       16.893      682.586      375.911      285.387        0.720        0.067      114.091        8.442        0.005      331.468       -0.497      867.272
01/21/2015  04:41:00     -112.916      -65.960        0.870       32.851       30.733       22.194     1079.207      944.498      492.563        0.981        0.126      130.770       19.486        0.022      331.408       -0.595      867.283
01/21/2015  04:42:00      -95.553      -69.892       -0.125       34.221       24.577       21.259     1171.078      604.052      451.957        0.812        0.111      118.386       19.110        0.026      331.423       -0.571      867.308
01/21/2015  04:43:00      -91.250      -59.090       -4.241       42.010       22.903       20.770     1764.843      524.545      431.392        0.728        0.136      108.712       20.846        0.037      331.375       -0.650      867.332
01/21/2015  04:44:00      -83.085      -52.226       -2.268       33.580       23.937       24.225     1127.609      572.991      586.850        0.596        0.114       98.136       20.466        0.043      331.353       -0.686      867.362
01/21/2015  04:45:00      -96.000      -57.273       -4.048       22.944       17.704       13.925      526.434      313.418      193.918        0.677        0.052      111.786       14.005        0.016      331.335       -0.716      867.374
01/21/2015  04:46:00     -103.129      -58.120      -10.617       17.648       15.128       12.808      311.456      228.863      164.034        0.742        0.035      118.379        8.588        0.005      331.320       -0.740      867.369
01/21/2015  04:47:00      -87.904      -55.887      -13.105       18.591       23.277       13.412      345.617      541.801      179.881        0.604        0.053      104.166        8.405        0.007      331.412       -0.589      867.369
01/21/2015  04:48:00      -99.628      -56.103      -11.463       18.443       20.932       12.009      340.142      438.153      144.213        0.706        0.046      114.339        7.190        0.004      331.343       -0.704      867.388
01/21/2015  04:49:00      -62.439      -34.953       -7.226       36.942       27.035       21.675     1364.732      730.895      469.806        0.387        0.128       71.556       14.606        0.042      331.341       -0.707      867.411
01/21/2015  04:50:00      -82.098      -57.527       -1.542       49.245       33.362       26.782     2425.028     1113.026      717.292        0.715        0.213      100.247       29.306        0.085      331.292       -0.786      867.437
01/21/2015  04:51:00     -109.998      -62.849       -4.147       39.794       23.625       20.923     1583.556      558.135      437.774        0.932        0.129      126.687       21.244        0.028      331.242       -0.869      867.453
01/21/2015  04:52:00      -98.983      -63.611       -4.384       29.684       28.714       21.406      881.127      824.487      458.214        0.801        0.108      117.660       17.784        0.023      331.287       -0.796      867.463
01/21/2015  04:53:00     -110.681      -31.363       -7.904       22.168       21.468       10.963      491.403      460.873      120.184        0.718        0.054      115.039        6.903        0.004      331.286       -0.797      867.478
01/21/2015  04:54:00     -132.742      -31.999       -6.359       24.789       21.414       16.919      614.495      458.576      286.264        1.002        0.068      136.544        8.791        0.004      331.231       -0.887      867.486
01/21/2015  04:55:00     -118.909      -36.933      -11.884       35.825       25.416       15.445     1283.446      645.986      238.540        0.891        0.108      124.512       15.662        0.016      331.172       -0.985      867.502
01/21/2015  04:56:00     -118.147      -56.418      -12.750       17.244       18.714       12.571      297.366      350.211      158.033        0.905        0.040      130.926        6.281        0.002      331.192       -0.951      867.506
01/21/2015  04:57:00      -67.772      -39.686       -4.629       28.941       24.409       15.857      837.581      595.778      251.432        0.394        0.084       78.537       10.566        0.018      331.218       -0.908      867.510
01/21/2015  04:58:00      -56.836      -53.134       -1.021       32.226       19.719       16.090     1038.511      388.836      258.894        0.387        0.084       77.804       14.988        0.037      331.191       -0.953      867.521
01/21/2015  04:59:00      -96.037      -36.479       -9.512       11.508       12.397        8.812      132.441      153.677       77.658        0.550        0.018      102.732        5.124        0.002      331.247       -0.860      867.526
01/21/2015  05:00:00      -75.545      -31.622      -12.998       10.603       10.677        8.095      112.423      113.988       65.534        0.358        0.015       81.897        2.218        0.001      331.306       -0.762      867.535
01/21/2015  05:01:00      -80.146      -27.320       -9.757       10.258       11.263       10.147      105.220      126.845      102.965        0.380        0.017       84.674        5.676        0.004      331.364       -0.668      867.521
01/21/2015  05:02:00      -81.018      -19.184       -8.816        8.122       13.102        8.515       65.969      171.659       72.508        0.366        0.016       83.258        3.270        0.002      331.305       -0.765      867.502
01/21/2015  05:03:00      -83.357       -8.822      -18.104       15.287       13.164       11.906      233.686      173.296      141.742        0.395        0.027       83.823       10.709        0.016      331.396       -0.616      867.490
01/21/2015  05:04:00      -86.362      -22.000      -11.809        9.721        9.343        9.680       94.490       87.283       93.705        0.418        0.014       89.120        5.666        0.004      331.397       -0.615      867.484
01/21/2015  05:05:00      -87.590      -15.376      -10.590       17.302       13.639       10.004      299.368      186.031      100.082        0.430        0.029       88.929        8.588        0.009      331.441       -0.543      867.476
01/21/2015  05:06:00      -86.632      -17.642      -11.290       12.342        9.660        9.128      152.333       93.323       83.319        0.414        0.016       88.410        6.680        0.006      331.398       -0.615      867.480
01/21/2015  05:07:00      -91.225      -26.503      -10.627       11.759       11.118        8.501      138.264      123.620       72.268        0.474        0.017       94.997        4.964        0.003      331.411       -0.591      867.500
01/21/2015  05:08:00      -85.081      -28.425       -8.518       13.539       12.988        8.664      183.293      168.681       75.058        0.427        0.021       89.704        4.098        0.002      331.401       -0.609      867.529
01/21/2015  05:09:00      -62.133      -20.595       -7.315       11.824       11.274        6.858      139.817      127.101       47.039        0.233        0.016       65.457        2.473        0.001      331.393       -0.623      867.567
01/21/2015  05:10:00      -49.083      -25.921        0.611       14.945       12.713        6.594      223.345      161.627       43.484        0.175        0.021       55.507        4.778        0.007      331.377       -0.647      867.588
01/21/2015  05:11:00      -58.418      -28.621       -6.001       14.408        9.935        7.902      207.588       98.711       62.449        0.232        0.018       65.053        6.218        0.009      331.422       -0.574      867.601
01/21/2015  05:12:00      -84.411      -29.349       -9.409       16.671       10.436        8.672      277.910      108.916       75.209        0.427        0.023       89.368        6.009        0.005      331.401       -0.609      867.606
01/21/2015  05:13:00      -89.952      -24.010       -7.917       11.954       10.808        9.792      142.909      116.814       95.887        0.454        0.018       93.101        3.245        0.001      331.353       -0.687      867.609
01/21/2015  05:14:00      -83.027      -23.266      -12.871        9.066       13.044        9.079       82.198      170.139       82.427        0.397        0.017       86.226        6.100        0.005      331.428       -0.564      867.615
01/21/2015  05:15:00      -71.378      -14.027       -8.460       14.107       11.643       10.239      199.005      135.556      104.842        0.290        0.022       72.743        4.411        0.004      331.443       -0.538      867.617
01/21/2015  05:16:00      -77.095      -26.674      -10.410        9.197       10.196        8.918       84.589      103.958       79.535        0.352        0.013       81.579        5.088        0.004      331.471       -0.492      867.624
01/21/2015  05:17:00      -77.617      -21.966      -12.445       12.156        9.198        7.965      147.763       84.598       63.434        0.348        0.015       80.666        6.200        0.006      331.490       -0.462      867.638
01/21/2015  05:18:00      -30.846      -16.989        4.789       15.914       12.712       11.027      253.255      161.601      121.587        0.090        0.027       35.215        9.091        0.067      331.388       -0.629      867.674
01/21/2015  05:19:00      -38.477       -4.709        2.794       19.646       14.363       10.983      385.972      206.297      120.621        0.111        0.036       38.764       11.090        0.082      331.344       -0.701      867.705
01/21/2015  05:20:00      -46.016      -20.998        1.792       19.913       18.948       10.389      396.528      359.044      107.933        0.171        0.043       50.580        9.672        0.037      331.343       -0.703      867.724
01/21/2015  05:21:00      -68.193      -24.137       -2.679       20.157       14.286        8.905      406.313      204.082       79.307        0.296        0.034       72.339        9.728        0.018      331.329       -0.725      867.724
01/21/2015  05:22:00      -88.982      -12.443       -5.917       20.610       17.766       12.418      424.776      315.620      154.195        0.450        0.045       89.847       10.350        0.013      331.333       -0.719      867.729
01/21/2015  05:23:00      -78.851      -23.463       -5.311       23.155       16.488       14.569      536.143      271.862      212.255        0.391        0.051       82.268       14.088        0.029      331.410       -0.592      867.725
01/21/2015  05:24:00      -41.561       -9.058       -0.178       20.906       12.480       10.957      437.072      155.757      120.050        0.126        0.036       42.536       10.119        0.057      331.368       -0.662      867.719
01/21/2015  05:25:00      -60.966      -21.968       -2.990       11.680       11.936        8.258      136.423      142.458       68.189        0.228        0.017       64.804        6.325        0.010      331.385       -0.632      867.699
01/21/2015  05:26:00      -40.744      -15.325       -1.988       11.027       10.543        7.177      121.584      111.160       51.508        0.109        0.014       43.531        5.424        0.016      331.429       -0.563      867.686
01/21/2015  05:27:00       -3.598       -0.029       -1.383       19.366       13.148        7.839      375.028      172.860       61.450        0.031        0.030        3.598        4.981        1.916      331.372       -0.656      867.674
01/21/2015  05:28:00       -5.591       31.568       33.968       12.813       25.555       20.917      164.166      653.078      437.527        0.172        0.063       32.059       10.632        0.110      331.218       -0.908      867.673
01/21/2015  05:29:00      -10.771       11.387       35.709       11.480       18.978       14.298      131.790      360.166      204.425        0.111        0.035       15.674       13.083        0.697      331.178       -0.974      867.674
01/21/2015  05:30:00       22.230       33.701       26.035       19.512       15.538       17.312      380.736      241.428      299.718        0.161        0.046       40.372       12.830        0.101      331.103       -1.098      867.681
01/21/2015  05:31:00       25.278       18.648       20.761       20.602       14.216       19.834      424.455      202.081      393.405        0.122        0.051       31.412       16.205        0.266      331.014       -1.245      867.688
01/21/2015  05:32:00       46.367       18.077       31.368       42.224       26.922       31.451     1782.875      724.802      989.157        0.348        0.175       49.767       26.705        0.288      330.862       -1.493      867.692
01/21/2015  05:33:00       35.900       20.969       19.885       22.104       23.433       17.836      488.592      549.087      318.112        0.174        0.068       41.575       11.795        0.080      330.782       -1.626      867.698
01/21/2015  05:34:00       44.864       39.170       28.481       22.878       14.111       13.432      523.425      199.114      180.430        0.263        0.045       59.557       11.994        0.041      330.817       -1.567      867.710
01/21/2015  05:35:00       37.456       24.883       12.326       24.942       17.195       16.877      622.087      295.675      284.821        0.169        0.060       44.968       15.238        0.115      330.786       -1.618      867.727
01/21/2015  05:36:00       26.891       22.919       21.131       17.642       15.477       10.922      311.238      239.548      119.299        0.118        0.034       35.332        5.047        0.020      330.811       -1.578      867.736
01/21/2015  05:37:00        6.829       15.845       14.682        8.539       10.323        5.223       72.918      106.572       27.285        0.036        0.010       17.254        3.471        0.040      330.755       -1.668      867.754
01/21/2015  05:38:00        4.091        1.538        8.817        8.655       11.535        9.371       74.906      133.057       87.821        0.020        0.015        4.370        8.108        3.442      330.783       -1.623      867.764
01/21/2015  05:39:00       -6.874       16.049       23.881        4.722        9.198        7.740       22.298       84.610       59.914        0.052        0.008       17.459        6.582        0.142      330.779       -1.630      867.765
01/21/2015  05:40:00        3.112        7.452       14.501       14.383       12.291       10.481      206.869      151.076      109.847        0.037        0.023        8.075        9.888        1.499      330.826       -1.552      867.739
01/21/2015  05:41:00        2.984       12.027        6.818        5.670        6.519        7.854       32.146       42.501       61.689        0.017        0.007       12.392        2.430        0.038      330.910       -1.414      867.693
01/21/2015  05:42:00        8.982        3.859       -1.200        7.743        6.821        7.049       59.947       46.525       49.694        0.013        0.008        9.776        5.933        0.368      330.976       -1.306      867.656
01/21/2015  05:43:00       15.175        7.582        9.041       11.279        6.995        7.953      127.209       48.928       63.250        0.030        0.012       16.963        4.152        0.060      331.018       -1.238      867.630
01/21/2015  05:44:00        2.606       -6.192        9.597        7.074        7.073        4.590       50.045       50.026       21.065        0.013        0.006        6.718        3.964        0.348      331.036       -1.207      867.594
01/21/2015  05:45:00        8.912       -7.290        6.811       12.206        9.644        9.693      148.991       93.004       93.957        0.026        0.017       11.514       10.164        0.779      331.127       -1.060      867.561
01/21/2015  05:46:00       -4.686        7.936       25.457        6.091       13.585        9.344       37.099      184.546       87.314        0.052        0.015        9.217        8.710        0.893      330.954       -1.342      867.529
01/21/2015  05:47:00       -6.847       14.901       33.639        7.904       13.686        9.663       62.476      187.301       93.372        0.087        0.017       16.399        9.688        0.349      330.869       -1.482      867.518
01/21/2015  05:48:00       -1.674      -20.608       32.512       24.005       52.230       23.338      576.242     2728.005      544.667        0.267        0.192       20.676       20.220        0.956      330.909       -1.415      867.512
01/21/2015  05:49:00       58.272      -97.548      -19.503       32.781       43.757       25.350     1074.625     1914.635      642.626        0.846        0.182      113.627       17.219        0.023      331.098       -1.107      867.510
01/21/2015  05:50:00       39.917      -31.832       17.791       38.264       56.925       37.326     1464.166     3240.413     1393.230        0.451        0.305       51.055       41.355        0.656      331.065       -1.160      867.500
01/21/2015  05:51:00       10.087       13.749       38.517       23.270       27.821       18.363      541.514      774.035      337.208        0.171        0.083       17.053       18.052        1.121      330.962       -1.328      867.492
01/21/2015  05:52:00       17.022        1.127       33.393       31.900       25.846       27.167     1017.595      668.007      738.044        0.191        0.121       17.060       24.345        2.037      330.936       -1.371      867.464
01/21/2015  05:53:00       21.445       -6.229       25.060       27.067       43.835       25.556      732.607     1921.509      653.094        0.222        0.165       22.331       28.045        1.577      330.978       -1.303      867.447
01/21/2015  05:54:00       14.033      -30.873       10.700       21.272       29.945       24.611      452.485      896.701      605.721        0.161        0.098       33.912       19.920        0.345      331.085       -1.128      867.436
01/21/2015  05:55:00        7.940      -23.781       22.725       27.009       27.535       15.649      729.477      758.170      244.886        0.144        0.087       25.072       14.341        0.327      331.041       -1.200      867.447
01/21/2015  05:56:00      -12.151       -7.756       26.522       12.461       37.688       22.708      155.270     1420.361      515.637        0.150        0.105       14.415       24.255        2.831      331.035       -1.209      867.477
01/21/2015  05:57:00       -9.070        4.144       32.011        9.687       21.821       11.277       93.833      476.164      127.164        0.091        0.035        9.972       12.726        1.629      330.924       -1.391      867.506
01/21/2015  05:58:00       -5.914       12.009       23.890        6.661       12.764        8.253       44.365      162.917       68.118        0.051        0.014       13.386        7.215        0.290      330.813       -1.574      867.550
01/21/2015  05:59:00       29.811       25.138        4.648       28.321       14.881       14.553      802.105      221.439      211.777        0.139        0.062       38.995       14.340        0.135      330.749       -1.680      867.602
01/21/2015  06:00:00       32.095       38.673       -4.631       11.808       13.798       11.471      139.417      190.378      131.582        0.150        0.023       50.256        4.607        0.008      330.669       -1.811      867.625
01/21/2015  06:01:00       13.698       32.645       -8.328       12.555        8.952        7.640      157.621       80.144       58.368        0.081        0.015       35.403        3.516        0.010      330.657       -1.830      867.643
01/21/2015  06:02:00        8.548       33.329       -3.505       10.897        8.028        6.732      118.736       64.443       45.326        0.071        0.011       34.408        5.414        0.025      330.657       -1.830      867.638
01/21/2015  06:03:00       -1.011       33.963       -7.755        4.957        6.473        4.564       24.568       41.896       20.834        0.065        0.004       33.978        2.473        0.005      330.645       -1.849      867.631
01/21/2015  06:04:00       10.480       43.166       -6.459       10.256       10.209        5.925      105.176      104.222       35.108        0.113        0.012       44.420        3.113        0.005      330.636       -1.865      867.647
01/21/2015  06:05:00        7.106       55.049       -9.837        8.621        6.124        4.641       74.316       37.506       21.543        0.166        0.007       55.506        2.163        0.002      330.646       -1.849      867.665
01/21/2015  06:06:00       11.025       20.481       -4.998        8.369       16.127        6.125       70.046      260.079       37.513        0.047        0.018       23.260        4.884        0.044      330.604       -1.917      867.670
01/21/2015  06:07:00       24.267       18.840        0.928       12.044       12.444       10.747      145.062      154.859      115.498        0.068        0.021       30.721        8.956        0.085      330.619       -1.891      867.660
01/21/2015  06:08:00       38.927       50.266        6.747       10.490        9.756        7.606      110.034       95.183       57.855        0.218        0.013       63.576        2.175        0.001      330.617       -1.894      867.656
01/21/2015  06:09:00       39.109       39.494        2.257        9.575        8.927        9.174       91.683       79.687       84.161        0.167        0.013       55.582        5.207        0.009      330.616       -1.898      867.643
01/21/2015  06:10:00       29.068       27.474        2.780        8.833       13.506        7.648       78.018      182.414       58.491        0.096        0.016       39.997        6.301        0.025      330.571       -1.970      867.639
01/21/2015  06:11:00       25.168       24.675        3.332       10.384        6.860        5.702      107.830       47.062       32.510        0.072        0.009       35.246        3.974        0.013      330.630       -1.874      867.644
01/21/2015  06:12:00        6.237       21.601       -4.197       10.314        6.497        4.634      106.375       42.205       21.471        0.035        0.009       22.484        3.515        0.024      330.579       -1.959      867.646
01/21/2015  06:13:00       -8.454       12.744       -1.711        3.911        4.028        2.943       15.294       16.222        8.661        0.014        0.002       15.293        1.529        0.010      330.606       -1.915      867.661
01/21/2015  06:14:00       -5.295        7.642        4.084        4.529        7.080        6.918       20.516       50.133       47.860        0.011        0.006        9.297        1.899        0.042      330.648       -1.846      867.645
01/21/2015  06:15:00        5.148       27.518       -2.765        6.518       10.216        5.729       42.479      104.364       32.817        0.049        0.009       27.995        5.821        0.043      330.639       -1.860      867.611
01/21/2015  06:16:00        1.879       31.510       -2.704        7.039       10.678        3.548       49.542      114.024       12.589        0.059        0.009       31.566        4.147        0.017      330.662       -1.821      867.576
01/21/2015  06:17:00        7.396       20.067       -5.135        4.460        6.713        3.358       19.888       45.063       11.273        0.028        0.004       21.387        2.292        0.011      330.698       -1.763      867.547
01/21/2015  06:18:00       -8.389       17.333       -0.249        8.916        6.606        4.161       79.492       43.643       17.317        0.026        0.007       19.256        2.176        0.013      330.740       -1.695      867.544
01/21/2015  06:19:00      -37.766       -6.431       -6.530       12.354       10.519        6.497      152.628      110.656       42.208        0.091        0.015       38.309        5.191        0.018      330.609       -1.908      867.563
01/21/2015  06:20:00      -59.911      -16.524       -1.728       18.019       19.405       12.795      324.675      376.572      163.702        0.237        0.043       62.148        6.671        0.012      330.461       -2.152      867.605
01/21/2015  06:21:00      -58.670      -11.780       -1.998       28.220       21.452       15.706      796.350      460.177      246.680        0.254        0.075       59.841       13.065        0.048      330.389       -2.269      867.657
01/21/2015  06:22:00      -55.034       -0.675       -1.685       26.453       22.420       16.662      699.748      502.655      277.616        0.226        0.074       55.038       13.455        0.060      330.323       -2.378      867.703
01/21/2015  06:23:00      -96.001       -6.519       -4.573       53.403       18.225       16.434     2851.923      332.157      270.074        0.637        0.173       96.222       21.316        0.049      330.367       -2.305      867.726
01/21/2015  06:24:00     -128.743       -9.222       -8.826       27.899       23.482       19.083      778.363      551.400      364.172        0.922        0.085      129.073       18.057        0.020      330.396       -2.257      867.746
01/21/2015  06:25:00     -118.178      -25.032      -11.384       33.462       21.466       17.943     1119.689      460.796      321.952        0.831        0.095      120.800       16.558        0.019      330.405       -2.243      867.761
01/21/2015  06:26:00     -121.853      -12.274      -10.962       23.734       19.879       12.539      563.312      395.161      157.233        0.812        0.056      122.469       12.439        0.010      330.421       -2.216      867.764
01/21/2015  06:27:00     -138.910       -3.261      -16.054       17.679       13.154       11.844      312.534      173.016      140.287        1.009        0.031      138.948       10.055        0.005      330.419       -2.220      867.749
01/21/2015  06:28:00     -141.269        1.880      -16.706       26.586       19.103       15.363      706.837      364.934      236.008        1.077        0.065      141.282        9.601        0.005      330.402       -2.249      867.699
01/21/2015  06:29:00     -144.970        8.038      -15.315       39.089       28.186       15.561     1527.924      794.464      242.153        1.194        0.128      145.192       13.208        0.008      330.407       -2.241      867.667
01/21/2015  06:30:00      -91.952       19.619       -8.318       39.511       23.367       15.255     1561.122      546.013      232.726        0.562        0.117       94.022       15.309        0.027      330.461       -2.152      867.661
01/21/2015  06:31:00     -124.979       31.158      -15.713       27.234       18.921       14.627      741.701      357.986      213.951        0.908        0.066      128.804        7.723        0.004      330.459       -2.154      867.684
01/21/2015  06:32:00     -104.077       25.382      -10.907       39.992       27.611       22.893     1599.345      762.355      524.106        0.724        0.144      107.127       26.615        0.062      330.443       -2.182      867.714
01/21/2015  06:33:00     -113.412        0.482      -10.344       33.245       39.236       25.771     1105.237     1539.475      664.153        0.814        0.165      113.413       19.767        0.030      330.460       -2.153      867.738
01/21/2015  06:34:00      -74.144      -18.710      -13.632       44.664       32.258       23.707     1994.891     1040.574      562.034        0.481        0.180       76.468       25.004        0.107      330.370       -2.301      867.753
01/21/2015  06:35:00      -83.405      -18.317       -8.552       31.917       36.225       22.838     1018.664     1312.217      521.589        0.511        0.143       85.393       15.878        0.035      330.403       -2.247      867.729
01/21/2015  06:36:00      -65.284       -6.576      -12.224       20.890       31.657       17.010      436.374     1002.140      289.336        0.309        0.086       65.614       12.912        0.039      330.495       -2.096      867.676
01/21/2015  06:37:00      -71.720       -7.196       -3.381       42.437       24.678       21.615     1800.878      608.985      467.191        0.404        0.144       72.080       19.362        0.072      330.430       -2.201      867.619
01/21/2015  06:38:00      -83.034       -9.634      -14.092       24.228       22.172       11.881      587.001      491.617      141.155        0.420        0.061       83.591        3.476        0.002      330.482       -2.118      867.570
01/21/2015  06:39:00      -51.316       11.369      -11.717       14.374       30.784       11.759      206.614      947.684      138.266        0.210        0.065       52.560        4.917        0.009      330.698       -1.763      867.561
01/21/2015  06:40:00      -49.126       -5.337      -14.203       16.083       12.565       10.537      258.650      157.879      111.035        0.159        0.026       49.415        5.627        0.013      330.615       -1.899      867.563
01/21/2015  06:41:00      -64.151      -26.074      -16.701       17.931       15.267        9.439      321.525      233.070       89.089        0.286        0.032       69.247        8.681        0.016      330.415       -2.225      867.576
01/21/2015  06:42:00      -90.720      -25.699      -18.642       19.481       12.903       10.756      379.501      166.491      115.692        0.495        0.033       94.289        8.845        0.009      330.240       -2.514      867.592
01/21/2015  06:43:00     -108.003      -23.710      -14.028       18.920       16.335       17.011      357.981      266.817      289.372        0.667        0.046      110.575       10.642        0.009      330.266       -2.471      867.603
01/21/2015  06:44:00      -95.142       -2.805       -8.348       33.919       32.701       22.060     1150.496     1069.346      486.623        0.592        0.135       95.184       18.467        0.038      330.286       -2.438      867.618
01/21/2015  06:45:00      -90.374        7.067       -4.258       48.818       34.653       24.574     2383.188     1200.815      603.865        0.621        0.209       90.650       25.973        0.082      330.289       -2.433      867.625
01/21/2015  06:46:00      -95.603        4.534       -0.270       48.497       30.233       23.004     2351.967      914.019      529.174        0.648        0.190       95.710       28.622        0.089      330.291       -2.430      867.655
01/21/2015  06:47:00      -81.292        0.703        4.419       35.760       29.167       24.147     1278.754      850.725      583.085        0.467        0.136       81.295       21.217        0.068      330.299       -2.416      867.682
01/21/2015  06:48:00      -77.032       -1.838       -4.985       38.239       26.696       17.880     1462.233      712.693      319.680        0.423        0.125       77.054       17.272        0.050      330.289       -2.432      867.716
01/21/2015  06:49:00      -36.677      -18.242       -6.471       25.765       15.851       12.614      663.836      251.261      159.112        0.140        0.054       40.963        6.283        0.024      330.359       -2.319      867.741
01/21/2015  06:50:00      -31.287       -6.959       -7.670       16.615       18.591        8.998      276.049      345.626       80.965        0.089        0.035       32.052        8.371        0.068      330.406       -2.242      867.757
01/21/2015  06:51:00      -49.805      -28.039      -10.647       21.830       18.796       13.044      476.563      353.277      170.151        0.219        0.050       57.155        9.223        0.026      330.350       -2.333      867.764
01/21/2015  06:52:00      -56.049      -23.174       -5.198       29.716       15.649       13.725      883.040      244.895      188.378        0.251        0.066       60.651       13.372        0.049      330.294       -2.426      867.733
01/21/2015  06:53:00      -48.021      -22.341        0.661       28.659       18.257       14.759      821.357      333.324      217.821        0.209        0.069       52.964       16.448        0.096      330.263       -2.475      867.688
01/21/2015  06:54:00      -95.566      -13.355      -14.838       32.097       17.634       14.520     1030.248      310.973      210.830        0.554        0.078       96.494        9.862        0.010      330.295       -2.424      867.641
01/21/2015  06:55:00     -115.025       -5.627       -7.327       26.412       33.545       21.502      697.579     1125.258      462.342        0.780        0.114      115.163       18.296        0.025      330.198       -2.584      867.613
01/21/2015  06:56:00      -93.311      -12.599      -10.123       32.419       22.098       20.676     1050.990      488.307      427.515        0.547        0.098       94.158       18.352        0.038      330.164       -2.639      867.605
01/21/2015  06:57:00     -106.222       -6.502      -17.357       24.914       22.113       14.523      620.686      488.999      210.904        0.647        0.066      106.421        8.151        0.006      330.207       -2.569      867.630
01/21/2015  06:58:00      -71.067       -3.903       -1.434       27.013       20.104       15.118      729.695      404.157      228.558        0.321        0.068       71.174       11.048        0.024      330.140       -2.678      867.648
01/21/2015  06:59:00      -61.138       -4.695      -11.649       12.955       21.806       11.807      167.820      475.518      139.409        0.234        0.039       61.318       10.478        0.029      330.174       -2.622      867.669
01/21/2015  07:00:00      -55.233      -26.825       -8.525       19.596       18.626       14.126      384.009      346.928      199.535        0.239        0.047       61.402        8.627        0.020      330.199       -2.581      867.692
01/21/2015  07:01:00      -78.609      -16.768      -13.064       19.269       14.184       12.050      371.293      201.186      145.211        0.367        0.036       80.378       10.357        0.017      330.193       -2.592      867.702
01/21/2015  07:02:00      -49.769       -7.159       -2.866       35.326       30.594       16.268     1247.917      936.004      264.651        0.249        0.122       50.281       14.854        0.087      330.317       -2.387      867.694
01/21/2015  07:03:00      -24.589       10.574       -5.628       19.024       25.926       15.041      361.898      672.155      226.240        0.100        0.063       26.766        8.134        0.092      330.401       -2.251      867.680
01/21/2015  07:04:00      -96.418        7.529       -3.070       44.724       37.716       24.126     2000.270     1422.507      582.059        0.668        0.200       96.712       21.975        0.052      330.296       -2.421      867.672
01/21/2015  07:05:00     -130.045       20.317      -19.201       35.353       31.748       28.200     1249.846     1007.949      795.216        1.037        0.153      131.623       19.966        0.023      330.195       -2.588      867.671
01/21/2015  07:06:00     -140.341       35.129      -16.161       41.601       31.734       20.860     1730.681     1007.026      435.140        1.218        0.159      144.670       17.446        0.015      330.248       -2.502      867.680
01/21/2015  07:07:00     -137.502       33.545      -17.202       38.198       28.390       21.539     1459.070      805.989      463.938        1.153        0.136      141.534       15.580        0.012      330.267       -2.468      867.701
01/21/2015  07:08:00      -87.417       16.847       -4.916       37.164       41.173       22.593     1381.137     1695.224      510.426        0.577        0.179       89.025       16.025        0.032      330.321       -2.379      867.736
01/21/2015  07:09:00      -87.282      -14.113      -10.509       37.980       24.872       18.805     1442.448      618.605      353.620        0.517        0.121       88.415       17.296        0.038      330.279       -2.451      867.786
01/21/2015  07:10:00      -95.067      -12.130       -6.248       14.770       21.304       13.375      218.150      453.868      178.885        0.504        0.043       95.838        7.899        0.007      330.306       -2.405      867.846
01/21/2015  07:11:00      -51.658      -23.679      -17.612       28.783       20.438       14.686      828.464      417.692      215.682        0.250        0.073       56.826       12.150        0.046      330.275       -2.456      867.891
01/21/2015  07:12:00      -60.647      -21.311      -13.256       22.443       18.765       10.640      503.690      352.114      113.201        0.264        0.048       64.282        8.202        0.016      330.294       -2.427      867.909
01/21/2015  07:13:00      -63.552      -18.351       -8.153       19.147       13.944        8.122      366.626      194.421       65.974        0.253        0.031       66.148        5.817        0.008      330.276       -2.457      867.920
01/21/2015  07:14:00      -99.258      -26.984       -7.443       18.887       22.980       12.739      356.712      528.064      162.278        0.584        0.052      102.860        7.191        0.005      330.201       -2.579      867.930
01/21/2015  07:15:00      -66.564      -26.214      -21.829       12.659       15.151       13.512      160.251      229.563      182.581        0.308        0.029       71.540        6.651        0.009      330.321       -2.381      867.930
01/21/2015  07:16:00      -48.136        0.646      -10.925       13.184       17.324       10.155      173.810      300.132      103.125        0.151        0.029       48.140        8.214        0.029      330.414       -2.228      867.940
01/21/2015  07:17:00      -46.923      -10.112      -11.369       11.508       10.231        7.239      132.432      104.669       52.404        0.136        0.014       48.000        3.672        0.006      330.505       -2.078      867.938
01/21/2015  07:18:00      -47.591      -10.760       -8.063        9.910       10.181        7.415       98.201      103.655       54.988        0.135        0.013       48.792        4.163        0.007      330.426       -2.210      867.948
01/21/2015  07:19:00      -46.127      -14.602       -6.601        9.552       11.321        7.289       91.235      128.165       53.131        0.133        0.014       48.383        7.191        0.022      330.487       -2.109      867.948
01/21/2015  07:20:00      -40.600      -24.923      -11.019       10.139        8.623        7.172      102.795       74.363       51.438        0.131        0.011       47.639        4.837        0.010      330.499       -2.088      867.944
01/21/2015  07:21:00      -14.831      -20.597        0.214       11.222       11.504       10.604      125.938      132.332      112.455        0.051        0.019       25.381        6.144        0.059      330.807       -1.585      867.938
01/21/2015  07:22:00       -4.368       -1.763        1.360        6.511        6.931        5.893       42.392       48.037       34.725        0.007        0.006        4.711        3.081        0.428      330.841       -1.529      867.931
01/21/2015  07:23:00      -18.006      -15.815       -3.635       13.614       14.055       11.142      185.353      197.557      124.147        0.055        0.025       23.965        8.710        0.132      330.721       -1.724      867.918
01/21/2015  07:24:00        8.382       -0.178       -0.190       20.290       13.295       13.036      411.673      176.757      169.935        0.041        0.038        8.384        8.546        1.039      330.816       -1.568      867.915
01/21/2015  07:25:00       16.847       18.245       -1.762        9.023       12.070        7.219       81.410      145.686       52.115        0.045        0.014       24.833        4.639        0.035      330.867       -1.485      867.910
01/21/2015  07:26:00       16.216       41.610       -5.837        8.637       14.609        5.299       74.604      213.422       28.081        0.117        0.016       44.658        6.462        0.021      331.039       -1.202      867.902
01/21/2015  07:27:00       19.059       49.777       -3.969       11.447       13.019        9.584      131.028      169.484       91.853        0.162        0.020       53.301        6.693        0.016      330.982       -1.297      867.899
01/21/2015  07:28:00       25.509       60.848      -10.467       12.637       15.121        8.115      159.698      228.649       65.851        0.246        0.023       65.978        6.572        0.010      331.011       -1.248      867.898
01/21/2015  07:29:00       13.949       81.706      -13.870       16.978       11.919        7.459      288.247      142.060       55.644        0.377        0.024       82.888        7.562        0.008      331.107       -1.091      867.897
01/21/2015  07:30:00      -10.375       81.182       -9.978       14.203       16.437       11.078      201.718      270.175      122.730        0.370        0.030       81.842        7.633        0.009      331.166       -0.994      867.903
01/21/2015  07:31:00       -7.162       80.365       -8.575       10.819       12.788        6.132      117.044      163.531       37.603        0.345        0.016       80.683        3.901        0.002      331.204       -0.932      867.918
01/21/2015  07:32:00      -14.617       40.588       -2.872       17.380       26.189        8.753      302.069      685.859       76.612        0.147        0.053       43.140        6.580        0.023      331.192       -0.952      867.940
01/21/2015  07:33:00      -50.415      -19.340       -4.921       11.077       14.655        9.362      122.693      214.775       87.643        0.168        0.021       53.997        5.395        0.010      330.666       -1.816      867.941
01/21/2015  07:34:00      -54.496      -23.076      -17.388       12.918       13.456        9.525      166.866      181.070       90.720        0.212        0.022       59.181        7.308        0.015      330.581       -1.954      867.954
01/21/2015  07:35:00      -81.872      -13.399      -14.561       12.554       12.054       11.378      157.614      145.293      129.456        0.376        0.022       82.961        5.897        0.005      330.454       -2.164      867.967
01/21/2015  07:36:00      -84.465      -20.000      -10.231       10.784       13.613       10.900      116.302      185.319      118.820        0.403        0.021       86.800        4.954        0.003      330.499       -2.088      867.967
01/21/2015  07:37:00      -83.839      -10.366      -10.624       20.819       18.217       12.316      433.445      331.863      151.695        0.408        0.046       84.477        9.804        0.013      330.501       -2.086      867.972
01/21/2015  07:38:00      -83.599        1.345      -14.314       20.056       10.424       11.817      402.232      108.669      139.637        0.392        0.033       83.610       10.007        0.014      330.478       -2.124      867.978
01/21/2015  07:39:00      -80.973        5.929      -13.479       18.255       15.937       10.368      333.237      253.986      107.496        0.373        0.035       81.190        6.436        0.006      330.573       -1.967      867.988
01/21/2015  07:40:00      -47.220        3.504      -17.979       19.026       15.611       10.284      361.981      243.700      105.751        0.164        0.036       47.350        9.746        0.042      330.947       -1.353      868.020
01/21/2015  07:41:00      -29.119       18.028      -13.067       25.116       19.453       11.485      630.814      378.428      131.915        0.124        0.057       34.248        8.976        0.069      331.222       -0.901      868.034
01/21/2015  07:42:00      -16.293       30.063       -2.604       18.340       14.858       10.364      336.367      220.773      107.403        0.092        0.033       34.195        5.568        0.027      331.275       -0.815      868.039
01/21/2015  07:43:00       13.062       80.323      -10.358       16.420       14.700       11.582      269.621      216.098      134.131        0.367        0.031       81.378        3.299        0.002      331.517       -0.418      868.058
01/21/2015  07:44:00        4.179       96.765      -10.479       19.063       19.774       13.042      363.393      391.024      170.091        0.521        0.046       96.855       10.657        0.012      331.555       -0.354      868.069
01/21/2015  07:45:00        3.715       64.695       -7.531       10.754       17.736       12.023      115.649      314.552      144.546        0.242        0.029       64.802       11.057        0.029      331.539       -0.381      868.089
01/21/2015  07:46:00       10.724       71.197      -14.803       17.573       15.472       10.000      308.812      239.377       99.995        0.303        0.032       72.000        8.183        0.013      331.556       -0.352      868.098
01/21/2015  07:47:00       10.710       76.942       -9.640       18.570       29.784       13.787      344.856      887.090      190.078        0.377        0.071       77.683       13.661        0.031      331.610       -0.264      868.113
01/21/2015  07:48:00       14.689       57.443       -2.644       23.970       24.040       18.107      574.565      577.923      327.860        0.250        0.074       59.291       12.516        0.045      331.649       -0.197      868.120
01/21/2015  07:49:00       16.360       25.705       -0.396       18.784       24.968       17.692      352.853      623.403      313.010        0.111        0.064       30.470       14.828        0.237      331.757       -0.021      868.139
01/21/2015  07:50:00       36.315       45.068        2.746       25.786       21.090       18.395      664.919      444.798      338.369        0.240        0.072       57.878       11.764        0.041      331.717       -0.087      868.157
01/21/2015  07:51:00       66.263       56.162        5.983       24.921       24.092       21.342      621.070      580.426      455.466        0.462        0.083       86.861       16.368        0.036      331.701       -0.112      868.163
01/21/2015  07:52:00       76.640       55.776        4.415       34.993       22.116       20.945     1224.522      489.105      438.681        0.558        0.108       94.787       10.734        0.013      331.687       -0.135      868.166
01/21/2015  07:53:00       60.009       51.377        5.498       33.391       29.263       27.369     1114.949      856.336      749.063        0.450        0.136       78.998       19.834        0.063      331.752       -0.030      868.155
01/21/2015  07:54:00       59.358       38.901       11.912       26.948       18.717       28.687      726.206      350.313      822.929        0.354        0.095       70.969       12.311        0.030      331.798        0.045      868.136
01/21/2015  07:55:00       41.557       25.681       10.884       26.801       14.519       15.978      718.292      210.807      255.308        0.184        0.059       48.852        7.989        0.027      331.809        0.063      868.126
01/21/2015  07:56:00       52.695       21.011       17.557       21.287       17.782       15.784      453.148      316.190      249.137        0.227        0.051       56.730        9.688        0.029      331.792        0.034      868.140
01/21/2015  07:57:00       37.821       26.782       12.076       22.546       24.462       23.925      508.302      598.366      572.426        0.199        0.084       46.343       15.704        0.115      331.755       -0.025      868.173
01/21/2015  07:58:00       21.396       -2.168        9.919       18.375       13.145       12.379      337.642      172.803      153.232        0.061        0.033       21.506       13.676        0.404      331.877        0.176      868.226
01/21/2015  07:59:00       18.033       13.742       20.164       19.806       13.317       14.687      392.272      177.340      215.696        0.085        0.039       22.673       14.041        0.384      331.928        0.259      868.282
01/21/2015  08:00:00        9.707       14.720       21.334       14.583       13.491       14.052      212.669      182.003      197.457        0.068        0.030       17.632        2.203        0.016      332.018        0.407      868.333
01/21/2015  08:01:00      -13.349      -20.839       -0.549       26.459       14.951       14.415      700.076      223.530      207.786        0.087        0.057       24.748        4.458        0.032      331.794        0.037      868.372
01/21/2015  08:02:00      -16.123       -1.742        2.463       15.822       20.000        9.834      250.334      400.008       96.701        0.051        0.037       16.217       11.726        0.523      331.753       -0.028      868.398
01/21/2015  08:03:00      -13.225       20.751        6.186       19.458        8.259       12.360      378.604       68.218      152.767        0.062        0.030       24.607       10.503        0.182      331.743       -0.045      868.412
01/21/2015  08:04:00      -29.465      -11.576        7.053       18.799       16.742       13.582      353.389      280.305      184.476        0.093        0.041       31.657        9.971        0.099      331.546       -0.369      868.416
01/21/2015  08:05:00      -38.689      -15.994       -2.083       14.141       13.379       13.487      199.976      178.991      181.907        0.116        0.028       41.865        8.015        0.037      331.494       -0.455      868.420
01/21/2015  08:06:00      -15.164       -6.968        1.107       16.695        9.415        8.448      278.727       88.648       71.374        0.036        0.022       16.688        9.660        0.335      331.848        0.129      868.440
01/21/2015  08:07:00        7.675      -13.687       -6.293       19.571       12.480       13.335      383.035      155.761      177.832        0.050        0.036       15.692        9.104        0.337      331.873        0.168      868.484
01/21/2015  08:08:00        1.623       -3.067       -6.056        7.557        7.550       12.232       57.103       57.010      149.624        0.016        0.013        3.471        7.176        4.275      332.198        0.705      868.517
01/21/2015  08:09:00        4.867        4.881       15.059        9.208        6.677       10.071       84.786       44.579      101.430        0.025        0.012        6.893        3.403        0.244      332.270        0.824      868.551
01/21/2015  08:10:00       19.216        0.112       -6.948       10.572        9.293        9.256      111.776       86.366       85.680        0.035        0.014       19.217        4.126        0.046      331.952        0.300      868.570
01/21/2015  08:11:00       20.679       23.866        9.803       15.174       14.848       13.693      230.258      220.471      187.505        0.087        0.032       31.579        9.486        0.090      331.929        0.261      868.562
01/21/2015  08:12:00       29.815       41.364       20.775       13.985       12.182       21.694      195.587      148.411      470.649        0.192        0.041       50.989       11.539        0.051      331.929        0.261      868.553
01/21/2015  08:13:00        9.854       13.335       32.590       18.634       16.651        9.379      347.229      277.257       87.970        0.102        0.036       16.581        5.930        0.128      332.313        0.893      868.552
01/21/2015  08:14:00       19.233       27.434       22.177       24.743       14.242       15.813      612.211      202.836      250.048        0.134        0.053       33.504       11.985        0.128      332.102        0.545      868.549
01/21/2015  08:15:00       77.713       55.008       -0.386       18.455       21.715       21.956      340.599      471.544      482.079        0.518        0.065       95.211       16.978        0.032      331.975        0.337      868.559
01/21/2015  08:16:00       57.734       73.238       -7.163       27.862       30.114       31.060      776.306      906.863      964.693        0.570        0.132       93.258       24.376        0.068      332.103        0.547      868.578
01/21/2015  08:17:00       76.380       49.825        5.042       33.014       21.332       22.850     1089.896      455.066      522.143        0.520        0.103       91.194       17.715        0.038      332.085        0.517      868.593
01/21/2015  08:18:00       75.139       44.460       10.343       23.077       19.401       21.896      532.566      376.386      479.427        0.456        0.069       87.307        9.105        0.011      332.104        0.549      868.612
01/21/2015  08:19:00       97.051       48.822       -7.668       22.880       20.991       22.938      523.491      440.607      526.151        0.668        0.075      108.639        6.184        0.003      332.188        0.689      868.639
01/21/2015  08:20:00       92.178       59.292        8.911       36.794       42.587       33.738     1353.812     1813.637     1138.280        0.820        0.215      109.601       21.989        0.040      332.182        0.677      868.664
01/21/2015  08:21:00      117.336       61.169        5.264       43.589       33.197       29.343     1899.987     1102.021      861.033        1.070        0.193      132.323        9.309        0.005      332.127        0.589      868.682
01/21/2015  08:22:00       97.428       79.198        5.520       26.721       30.203       28.901      714.000      912.197      835.257        0.913        0.123      125.557       20.509        0.027      332.105        0.552      868.694
01/21/2015  08:23:00       75.672       45.118       20.766       42.694       27.051       30.436     1822.747      731.759      926.379        0.584        0.174       88.101       13.222        0.023      332.179        0.674      868.712
01/21/2015  08:24:00      104.199       49.686        4.847       36.384       28.461       28.038     1323.796      810.011      786.155        0.813        0.146      115.439       12.821        0.012      332.094        0.532      868.746
01/21/2015  08:25:00      128.004       50.621        8.805       32.544       34.132       29.113     1059.105     1165.015      847.538        1.105        0.154      137.650       10.610        0.006      332.138        0.606      868.758
01/21/2015  08:26:00       68.235       59.892        9.106       27.778       29.466       30.224      771.594      868.219      913.461        0.544        0.128       90.791       19.875        0.048      332.235        0.766      868.750
01/21/2015  08:27:00       38.871       27.105        4.831       23.635       18.066       24.827      558.599      326.387      616.366        0.188        0.075       47.389        7.978        0.028      332.349        0.953      868.728
01/21/2015  08:28:00       23.444       48.909        9.605       25.504       18.415       23.410      650.467      339.096      548.037        0.229        0.077       54.237        8.633        0.025      332.320        0.906      868.695
01/21/2015  08:29:00      -11.847        8.967       19.200       28.607       22.108       16.124      818.336      488.749      259.969        0.108        0.078       14.858       10.457        0.495      332.505        1.211      868.666
01/21/2015  08:30:00       16.513       -6.721       26.436       22.141       20.175       20.373      490.221      407.025      415.056        0.116        0.066       17.828        9.796        0.302      332.801        1.700      868.662
01/21/2015  08:31:00       43.018        4.501       33.824       31.950       45.909       28.889     1020.774     2107.608      834.558        0.349        0.198       43.253       20.855        0.232      332.473        1.158      868.654
01/21/2015  08:32:00       24.238       24.117       17.879       28.311       19.123       29.518      801.519      365.677      871.295        0.176        0.102       34.193       23.901        0.489      332.540        1.269      868.660
01/21/2015  08:33:00       48.575       63.538       43.632       27.705       23.667       19.429      767.553      560.145      377.477        0.500        0.085       79.979       18.064        0.051      332.505        1.211      868.678
01/21/2015  08:34:00       49.351       76.603       59.918       69.007       38.139       36.637     4761.954     1454.561     1342.280        0.972        0.378       91.124       45.017        0.244      332.550        1.284      868.701
01/21/2015  08:35:00       89.673       65.784        1.214       34.552       27.027       25.160     1193.835      730.484      633.009        0.746        0.128      111.215       18.891        0.029      332.392        1.025      868.741
01/21/2015  08:36:00       53.661       39.384       19.212       40.218       25.260       28.333     1617.449      638.092      802.748        0.393        0.153       66.563       24.429        0.135      332.642        1.437      868.764
01/21/2015  08:37:00      117.108       64.504        6.416       49.858       30.350       29.213     2485.842      921.114      853.413        1.109        0.213      133.697       13.559        0.010      332.576        1.329      868.793
01/21/2015  08:38:00      113.456       80.132        6.544       40.545       34.749       35.708     1643.882     1207.496     1275.052        1.173        0.206      138.901       24.206        0.030      332.409        1.052      868.804
01/21/2015  08:39:00       61.734       59.672       38.415       61.859       48.809       43.885     3826.505     2382.361     1925.861        0.849        0.407       85.859       41.686        0.236      332.718        1.563      868.797
01/21/2015  08:40:00       37.252       88.964       90.238       54.910       44.641       45.135     3015.153     1992.786     2037.183        1.224        0.352       96.448       45.396        0.222      332.648        1.446      868.776
01/21/2015  08:41:00       75.891       62.272        4.969       51.834       45.915       37.492     2686.762     2108.175     1405.684        0.793        0.310       98.170       28.592        0.085      332.558        1.298      868.771
01/21/2015  08:42:00       59.673       51.907       40.318       66.409       62.021       40.815     4410.208     3846.607     1665.875        0.890        0.496       79.090       39.394        0.248      332.701        1.533      868.755
01/21/2015  08:43:00      109.414       84.997       34.065       73.150       38.387       28.483     5350.905     1473.533      811.257        1.399        0.382      138.549       14.135        0.010      332.610        1.385      868.748
01/21/2015  08:44:00      117.438       69.962        0.258       63.981       60.945       48.765     4093.564     3714.289     2378.061        1.443        0.509      136.698       31.174        0.052      332.539        1.267      868.765
01/21/2015  08:45:00       37.825       47.270       14.700       51.749       53.514       37.658     2677.949     2863.761     1418.104        0.542        0.348       60.541       33.769        0.311      332.725        1.574      868.769
01/21/2015  08:46:00       81.971       60.498       14.628       47.595       34.557       28.136     2265.323     1194.180      791.662        0.742        0.213      101.878       16.177        0.025      332.619        1.399      868.771
01/21/2015  08:47:00       49.946       41.860       30.137       36.748       33.960       37.459     1350.450     1153.287     1403.185        0.453        0.195       65.168       31.347        0.231      332.897        1.859      868.770
01/21/2015  08:48:00       71.643       97.039       76.048       56.913       41.328       44.395     3239.114     1708.008     1970.874        1.362        0.346      120.621       34.360        0.081      332.749        1.614      868.765
01/21/2015  08:49:00       85.734        4.813        5.871       78.075       40.584       42.313     6095.727     1647.025     1790.365        0.847        0.477       85.869       41.507        0.234      332.658        1.463      868.772
01/21/2015  08:50:00       63.627       33.740       26.112       36.169       40.936       29.209     1308.229     1675.782      853.161        0.485        0.192       72.019       26.003        0.130      332.861        1.799      868.768
01/21/2015  08:51:00       19.543       56.925       76.192       54.993       46.829       38.976     3024.270     2192.938     1519.143        0.808        0.337       60.186       36.412        0.366      333.166        2.304      868.774
01/21/2015  08:52:00       22.499       81.775      100.171       52.293       58.576       32.534     2734.524     3431.090     1058.482        1.222        0.361       84.814       28.934        0.116      332.960        1.961      868.778
01/21/2015  08:53:00      101.080       55.617       58.839       52.026       54.391       47.176     2706.705     2958.430     2225.618        1.233        0.395      115.370       39.342        0.116      332.636        1.427      868.783
01/21/2015  08:54:00       41.701       12.499       35.986       55.319       51.581       36.120     3060.190     2660.630     1304.652        0.511        0.351       43.534       35.424        0.662      332.982        1.998      868.775
01/21/2015  08:55:00       36.625       67.005       75.803       59.284       38.620       39.124     3514.613     1491.528     1530.702        0.906        0.327       76.362       38.184        0.250      333.019        2.060      868.782
01/21/2015  08:56:00       83.563       67.927       81.114       61.666       47.349       41.057     3802.653     2241.952     1685.657        1.295        0.387      107.689       38.206        0.126      332.798        1.696      868.772
01/21/2015  08:57:00       36.708       50.855       36.734       46.457       39.945       37.777     2158.207     1595.616     1427.107        0.523        0.259       62.720       26.943        0.185      333.018        2.058      868.764
01/21/2015  08:58:00       -3.118       59.485       86.327       29.489       41.853       40.578      869.627     1751.685     1646.571        0.763        0.213       59.567       28.970        0.237      333.361        2.625      868.757
01/21/2015  08:59:00       88.883       60.967       77.089       54.861       46.882       44.913     3009.675     2197.945     2017.194        1.239        0.361      107.783       28.820        0.071      332.957        1.957      868.758
01/21/2015  09:00:00      110.625       98.152       55.700       45.303       24.444       37.257     2052.345      597.527     1388.074        1.451        0.202      147.891       28.063        0.036      332.891        1.849      868.753
01/21/2015  09:01:00       46.825       58.800       47.352       49.090       45.633       47.209     2409.844     2082.342     2228.648        0.731        0.336       75.167       29.083        0.150      333.155        2.285      868.746
01/21/2015  09:02:00       80.715       67.946       36.823       63.014       58.240       53.392     3970.705     3391.942     2850.742        1.135        0.511      105.506       41.673        0.156      332.961        1.963      868.748
01/21/2015  09:03:00      130.272       91.875       41.444       63.459       58.176       67.048     4027.031     3384.396     4495.464        1.952        0.595      159.411       56.219        0.124      332.915        1.887      868.741
01/21/2015  09:04:00      111.793       74.429      113.706       77.582       66.815       49.976     6018.995     4464.267     2497.598        2.197        0.649      134.303       47.457        0.125      332.944        1.935      868.729
01/21/2015  09:05:00      128.226       60.811       56.982       53.688       63.529       62.316     2882.448     4035.872     3883.256        1.709        0.540      141.915       48.442        0.117      332.913        1.885      868.719
01/21/2015  09:06:00       95.126       65.479       67.107       56.000       71.574       47.856     3136.029     5122.797     2290.230        1.419        0.527      115.484       43.316        0.141      332.909        1.878      868.706
01/21/2015  09:07:00       57.104       71.655       84.761       58.780       64.100       49.049     3455.136     4108.866     2405.759        1.277        0.498       91.626       46.793        0.261      333.029        2.077      868.713
01/21/2015  09:08:00       58.656       68.043       68.161       44.535       40.184       36.980     1983.351     1614.778     1367.540        0.884        0.248       89.835       25.322        0.079      333.102        2.196      868.711
01/21/2015  09:09:00      124.194       91.721       43.077       59.030       43.201       45.666     3484.515     1866.341     2085.358        1.656        0.372      154.392       40.381        0.068      333.028        2.074      868.704
01/21/2015  09:10:00       73.634       78.052       67.162       85.407       55.586       49.190     7294.369     3089.772     2419.672        1.441        0.640      107.304       51.655        0.232      333.061        2.130      868.710
01/21/2015  09:11:00       24.572       48.944       66.979       41.077       34.715       20.128     1687.307     1205.150      405.120        0.539        0.165       54.766       10.368        0.036      333.416        2.717      868.721
01/21/2015  09:12:00        8.718       29.811       62.943       23.850       35.836       18.913      568.843     1284.189      357.712        0.357        0.111       31.060       11.420        0.135      333.564        2.961      868.734
01/21/2015  09:13:00       29.264      -22.626       36.304       35.859       52.316       35.682     1285.838     2737.016     1273.198        0.399        0.265       36.991       29.963        0.656      333.441        2.757      868.749
01/21/2015  09:14:00       39.840       63.989       48.367       47.950       48.314       38.312     2299.231     2334.249     1467.780        0.706        0.305       75.378       18.317        0.059      333.563        2.959      868.764
01/21/2015  09:15:00       89.880       65.048       47.009       47.670       36.098       29.615     2272.405     1303.088      877.068        0.949        0.223      110.949       20.005        0.033      333.280        2.492      868.774
01/21/2015  09:16:00       32.219       80.804       88.550       49.066       38.940       34.751     2407.514     1516.294     1207.657        1.027        0.257       86.990       32.305        0.138      333.345        2.598      868.779
01/21/2015  09:17:00       95.363      101.283       39.250       79.777       46.332       72.297     6364.433     2146.618     5226.871        1.731        0.687      139.113       66.406        0.228      333.207        2.371      868.772
01/21/2015  09:18:00       99.735       90.412       47.520       60.945       46.587       53.644     3714.275     2170.312     2877.693        1.457        0.438      134.615       40.327        0.090      333.255        2.450      868.781
01/21/2015  09:19:00       28.101       74.823       67.960       50.601       41.036       44.134     2560.500     1683.941     1947.785        0.860        0.310       79.925       41.322        0.267      333.152        2.280      868.774
01/21/2015  09:20:00       85.451       70.796       26.106       68.560       37.984       39.006     4700.461     1442.805     1521.449        1.033        0.383      110.969       31.121        0.079      333.344        2.596      868.764
01/21/2015  09:21:00      147.088       84.720       15.761       41.474       26.170       28.699     1720.112      684.859      823.617        1.614        0.161      169.742       23.294        0.019      332.902        1.866      868.761
01/21/2015  09:22:00      150.272       84.776       32.690       38.476       34.007       31.460     1480.400     1156.468      989.711        1.723        0.181      172.536       16.556        0.009      332.895        1.856      868.748
01/21/2015  09:23:00      168.730       99.931       28.181       42.463       30.402       29.306     1803.128      924.281      858.832        2.142        0.179      196.102       15.460        0.006      332.940        1.928      868.746
01/21/2015  09:24:00       87.144       84.000       59.149       51.736       36.102       39.773     2676.609     1303.342     1581.878        1.185        0.278      121.037       33.436        0.076      333.073        2.149      868.734
01/21/2015  09:25:00      172.603       84.293       11.035       38.501       34.902       37.452     1482.365     1218.167     1402.654        2.056        0.205      192.086       16.421        0.007      332.995        2.021      868.732
01/21/2015  09:26:00       67.478       46.982       19.104       45.168       35.474       24.468     2040.107     1258.396      598.699        0.551        0.195       82.222       19.006        0.053      333.303        2.529      868.712
01/21/2015  09:27:00       14.164       29.398       24.979       34.473       28.903       19.392     1188.397      835.381      376.066        0.204        0.120       32.633        7.664        0.055      333.743        3.259      868.692
01/21/2015  09:28:00       29.247       46.485       47.272       53.020       41.433       32.514     2811.159     1716.679     1057.158        0.542        0.279       54.921       27.254        0.246      333.692        3.174      868.682
01/21/2015  09:29:00      123.030       60.652        6.102       41.763       35.983       41.005     1744.140     1294.775     1681.386        1.179        0.236      137.168       13.750        0.010      333.245        2.433      868.676
01/21/2015  09:30:00       87.002       80.061       31.007       65.830       33.345       40.439     4333.615     1111.881     1635.321        1.101        0.354      118.233       43.697        0.137      333.370        2.643      868.682
01/21/2015  09:31:00       30.668       33.267       62.798       55.250       45.854       43.542     3052.528     2102.563     1895.904        0.652        0.353       45.246       38.750        0.733      333.840        3.418      868.686
01/21/2015  09:32:00       69.344       42.540       18.099       59.652       55.368       50.266     3558.318     3065.589     2526.659        0.805        0.458       81.353       19.855        0.060      333.434        2.747      868.684
01/21/2015  09:33:00       84.855       61.136        8.416       76.026       52.130       45.948     5779.892     2717.511     2111.231        1.081        0.530      104.585       21.366        0.042      333.632        3.075      868.675
01/21/2015  09:34:00      161.773       85.169       32.454       73.890       46.392       40.417     5459.701     2152.184     1633.524        2.186        0.462      182.823       31.210        0.029      333.451        2.771      868.662
01/21/2015  09:35:00      144.794       88.795       17.214       45.055       34.639       38.527     2029.932     1199.891     1484.345        1.693        0.236      169.852        9.417        0.003      333.239        2.422      868.665
01/21/2015  09:36:00       32.259       70.807       53.988       51.273       41.696       34.912     2628.897     1738.578     1218.841        0.728        0.279       77.809       32.175        0.171      333.549        2.936      868.661
01/21/2015  09:37:00       31.027       46.779       19.506       32.943       42.602       40.485     1085.246     1814.967     1639.047        0.403        0.227       56.133       18.248        0.106      333.758        3.283      868.670
01/21/2015  09:38:00       36.796       55.832       61.413       60.780       48.607       46.289     3694.262     2362.603     2142.644        0.822        0.410       66.867       47.959        0.514      333.776        3.313      868.678
01/21/2015  09:39:00       70.591       46.124        0.193       45.823       43.176       37.473     2099.709     1864.130     1404.204        0.624        0.268       84.324        5.944        0.005      333.730        3.236      868.699
01/21/2015  09:40:00      111.111       83.148       44.546       57.099       37.173       42.707     3260.274     1381.811     1823.921        1.385        0.323      138.778       30.042        0.047      333.479        2.820      868.718
01/21/2015  09:41:00       67.623      113.904       84.975       54.850       43.670       57.298     3008.515     1907.050     3283.095        1.648        0.410      132.464       52.367        0.156      333.330        2.574      868.716
01/21/2015  09:42:00      101.352       58.463       23.685       46.232       39.451       31.630     2137.369     1556.401     1000.430        0.947        0.235      117.005        9.050        0.006      333.359        2.621      868.731
01/21/2015  09:43:00      118.636       96.867       23.447       48.694       33.948       49.894     2371.087     1152.464     2489.392        1.501        0.301      153.160       30.323        0.039      333.323        2.563      868.724
01/21/2015  09:44:00      102.666       76.215       -0.074       67.676       47.314       32.354     4580.010     2238.613     1046.799        1.211        0.393      127.863       26.351        0.042      333.315        2.548      868.729
01/21/2015  09:45:00      115.955       79.077       15.699       59.501       38.821       37.050     3540.376     1507.070     1372.733        1.318        0.321      140.353       22.290        0.025      333.317        2.551      868.711
01/21/2015  09:46:00       63.889       61.412       -1.570       51.549       43.561       35.208     2657.320     1897.532     1239.589        0.682        0.290       88.618       16.611        0.035      333.425        2.731      868.706
01/21/2015  09:47:00       59.883       34.215        8.544       32.650       26.913       31.302     1066.004      724.329      979.815        0.380        0.139       68.969        9.998        0.021      333.516        2.881      868.690
01/21/2015  09:48:00       85.286       43.758       22.575       64.390       38.745       34.081     4146.093     1501.174     1161.526        0.825        0.340       95.856       22.211        0.054      333.763        3.292      868.687
01/21/2015  09:49:00      149.190       84.745       17.396       37.743       46.676       41.264     1424.560     2178.655     1702.700        1.752        0.265      171.579       23.474        0.019      333.516        2.882      868.691
01/21/2015  09:50:00      106.205       70.249        9.269       51.224       38.061       30.371     2623.921     1448.656      922.401        1.065        0.250      127.336       21.523        0.029      333.594        3.012      868.694
01/21/2015  09:51:00       65.119       52.505        8.732       48.617       48.338       41.724     2363.573     2336.543     1740.916        0.676        0.322       83.650       31.546        0.142      333.700        3.187      868.699
01/21/2015  09:52:00       41.496       99.240       -6.785       38.233       63.916       32.571     1461.761     4085.295     1060.847        0.911        0.330      107.567       30.343        0.080      333.711        3.204      868.701
01/21/2015  09:53:00       49.030      122.972        0.930       53.329       55.745       48.643     2844.013     3107.482     2366.175        1.292        0.416      132.386       41.568        0.099      333.669        3.135      868.696
01/21/2015  09:54:00      120.428       86.562        5.273       81.255       44.853       39.913     6602.303     2011.757     1593.071        1.611        0.510      148.310       24.006        0.026      333.742        3.255      868.715
01/21/2015  09:55:00       74.375       71.430       36.729       68.556       49.614       45.196     4699.928     2461.504     2042.719        1.059        0.460      103.120       31.591        0.094      333.927        3.563      868.727
01/21/2015  09:56:00        3.030        6.533        5.598       40.911       37.673       33.220     1673.703     1419.265     1103.552        0.214        0.210        7.201       20.906        8.427      333.921        3.553      868.755
01/21/2015  09:57:00        0.723       72.980       67.017       35.287       31.565       32.949     1245.207      996.364     1085.637        0.657        0.166       72.984       26.915        0.136      334.074        3.807      868.776
01/21/2015  09:58:00      105.495      103.304       46.778       68.988       48.000       43.608     4759.360     2304.047     1901.691        1.648        0.448      147.652       36.773        0.062      333.988        3.663      868.794
01/21/2015  09:59:00      100.159      134.041      105.308       71.509       53.884       51.696     5113.539     2903.448     2672.474        2.489        0.534      167.328       38.666        0.053      333.780        3.319      868.798
01/21/2015  10:00:00       29.591       77.919       84.932       81.969       69.301       65.343     6718.911     4802.690     4269.733        1.497        0.790       83.349       60.366        0.525      333.831        3.403      868.814
01/21/2015  10:01:00      125.597       76.844        8.847       70.497       54.257       42.163     4969.860     2943.862     1777.700        1.572        0.485      147.240        2.658        0.000      333.685        3.162      868.832
01/21/2015  10:02:00       70.587       87.331       -7.226       73.315       42.930       35.849     5375.129     1843.001     1285.115        1.058        0.425      112.291       18.957        0.028      333.741        3.254      868.840
01/21/2015  10:03:00      160.881      106.097       18.479       83.329       60.261       43.176     6943.732     3631.350     1864.179        2.496        0.622      192.716       23.004        0.014      333.846        3.426      868.835
01/21/2015  10:04:00       32.003       66.848       58.517       46.135       55.166       44.244     2128.419     3043.301     1957.489        0.802        0.356       74.114       19.910        0.072      334.172        3.969      868.846
01/21/2015  10:05:00       64.429       90.385       97.701       68.200       55.414       59.008     4651.300     3070.658     3481.921        1.653        0.560      110.998       45.556        0.168      334.013        3.704      868.866
01/21/2015  10:06:00      115.847       76.900       35.639       69.949       55.998       52.396     4892.914     3135.737     2745.387        1.569        0.539      139.047       34.300        0.061      334.040        3.748      868.882
01/21/2015  10:07:00       62.715       56.819       40.661       69.259       40.503       36.565     4796.871     1640.470     1336.989        0.829        0.389       84.626       13.956        0.027      334.245        4.090      868.897
01/21/2015  10:08:00        7.815       83.019       79.680       56.750       54.253       57.914     3220.569     2943.389     3354.038        1.141        0.476       83.386       42.514        0.260      334.218        4.045      868.899
01/21/2015  10:09:00      145.997       83.496       42.204       78.769       53.713       46.135     6204.567     2885.076     2128.467        2.064        0.561      168.186       33.489        0.040      333.984        3.657      868.918
01/21/2015  10:10:00       86.928       75.566       19.594       65.324       47.927       42.425     4267.264     2296.958     1799.909        1.101        0.418      115.182       22.530        0.038      334.140        3.916      868.909
01/21/2015  10:11:00      148.903       84.462       21.340       63.527       46.126       36.065     4035.700     2127.640     1300.682        1.861        0.373      171.190       25.170        0.022      334.208        4.026      868.909
01/21/2015  10:12:00       96.703       74.355        1.728       59.920       45.252       29.253     3590.397     2047.788      855.751        1.069        0.325      121.984       14.285        0.014      334.122        3.887      868.908
01/21/2015  10:13:00       80.269       76.268       12.188       78.865       58.456       39.346     6219.739     3417.094     1548.114        1.179        0.559      110.725       26.913        0.059      334.395        4.339      868.901
01/21/2015  10:14:00       16.511       11.549       40.319       58.646       86.295       39.623     3439.310     7446.777     1570.005        0.724        0.623       20.149       33.407        2.749      334.459        4.445      868.908
01/21/2015  10:15:00       27.397       17.390       55.394       47.152       61.741       32.417     2223.327     3811.906     1050.882        0.560        0.354       32.450       28.040        0.747      334.557        4.608      868.902
01/21/2015  10:16:00      109.389      127.550      105.378       90.875       68.540       62.196     8258.186     4697.714     3868.295        2.808        0.841      168.033       43.054        0.066      334.246        4.090      868.899
01/21/2015  10:17:00      106.225      136.853      107.389      102.528       95.573       61.503    10512.007     9134.206     3782.675        3.248        1.171      173.241       57.396        0.110      334.201        4.014      868.884
01/21/2015  10:18:00       57.922       93.641       59.416       69.028       62.781       70.414     4764.916     3941.419     4958.075        1.466        0.683      110.107       53.353        0.235      334.412        4.367      868.902
01/21/2015  10:19:00       48.991       52.029       14.592       51.055       43.739       49.992     2606.651     1913.094     2499.172        0.617        0.351       71.464       25.829        0.131      334.370        4.298      868.909
01/21/2015  10:20:00       22.368       88.703      105.415       52.225       62.392       50.826     2727.446     3892.749     2583.279        1.434        0.460       91.480       46.719        0.261      334.544        4.585      868.900
01/21/2015  10:21:00       61.647       70.929       42.982       67.914       49.740       51.160     4612.357     2474.037     2617.368        1.019        0.485       93.975       32.514        0.120      334.561        4.614      868.903
01/21/2015  10:22:00       32.237       68.886       60.686       44.681       39.411       45.045     1996.435     1553.233     2029.063        0.752        0.279       76.056       37.367        0.241      334.505        4.523      868.891
01/21/2015  10:23:00      194.059      108.769       23.981       75.990       50.861       49.691     5774.417     2586.812     2469.236        3.045        0.542      222.462       39.144        0.031      334.322        4.216      868.895
01/21/2015  10:24:00      179.332       73.466       14.365       83.205       51.551       54.377     6923.016     2657.536     2956.829        2.515        0.627      193.797       35.924        0.034      334.168        3.960      868.898
01/21/2015  10:25:00      137.875       85.483       33.427       76.079       62.174       36.309     5788.003     3865.546     1318.374        1.920        0.549      162.225       17.141        0.011      334.260        4.112      868.901
01/21/2015  10:26:00      114.167       68.824       48.550       57.886       39.269       50.663     3350.803     1542.074     2566.735        1.379        0.373      133.308       43.319        0.106      334.181        3.985      868.900
01/21/2015  10:27:00      112.658       70.724       29.131       38.382       26.240       39.617     1473.141      688.553     1569.481        1.114        0.187      133.018       20.077        0.023      334.069        3.798      868.906
01/21/2015  10:28:00      196.832      111.185       28.403       81.880       51.224       37.795     6704.368     2623.881     1428.470        3.133        0.538      226.064       30.438        0.018      334.133        3.902      868.910
01/21/2015  10:29:00      120.002       61.384       47.625       52.736       36.919       39.388     2781.126     1363.016     1551.393        1.307        0.285      134.791       19.842        0.022      334.410        4.364      868.920
01/21/2015  10:30:00       73.077       38.116       34.367       74.590       53.448       43.676     5563.620     2856.672     1907.556        0.915        0.516       82.421       41.832        0.258      334.756        4.938      868.934
01/21/2015  10:31:00       19.860       92.227      110.512       50.636       78.929       49.827     2563.973     6229.770     2482.726        1.619        0.564       94.341       49.307        0.273      334.572        4.633      868.926
01/21/2015  10:32:00       19.903       99.819       96.366       76.297       51.435       47.389     5821.156     2645.517     2245.683        1.518        0.536      101.784       48.529        0.227      334.768        4.957      868.922
01/21/2015  10:33:00      112.032       57.303       24.979       50.595       43.661       41.663     2559.806     1906.297     1735.768        1.133        0.310      125.837       23.938        0.036      334.633        4.735      868.921
01/21/2015  10:34:00       52.905       51.725        7.407       77.887       57.047       37.696     6066.352     3254.351     1421.021        0.813        0.537       73.989       25.381        0.118      334.621        4.714      868.901
01/21/2015  10:35:00       88.803       75.970       47.226       78.253       61.176       59.653     6123.528     3742.540     3558.492        1.465        0.671      116.865       39.595        0.115      334.643        4.749      868.866
01/21/2015  10:36:00       59.340       73.834       98.114       60.302       67.646       47.974     3636.285     4575.925     2301.534        1.455        0.526       94.724       50.177        0.281      334.654        4.768      868.856
01/21/2015  10:37:00       22.028       14.365       49.955       65.408       46.106       39.384     4278.160     2125.721     1551.136        0.557        0.398       26.298       19.016        0.523      334.746        4.921      868.832
01/21/2015  10:38:00       89.130       70.609       54.152       96.431       62.253       61.229     9298.931     3875.453     3748.947        1.639        0.846      113.709       58.169        0.262      334.645        4.752      868.832
01/21/2015  10:39:00      145.086      107.880       20.550       62.701       54.538       38.580     3931.402     2974.412     1488.414        2.075        0.420      180.798       24.174        0.018      334.363        4.284      868.830
01/21/2015  10:40:00      219.516      144.594       17.206       68.020       56.360       61.240     4626.788     3176.503     3750.369        4.047        0.578      262.858       40.011        0.023      334.340        4.242      868.826
01/21/2015  10:41:00       88.239       74.605       15.829       62.175       46.747       44.300     3865.674     2185.284     1962.505        1.081        0.401      115.551       27.518        0.057      334.502        4.516      868.826
01/21/2015  10:42:00       36.836       55.961       19.422       60.847       57.543       42.945     3702.343     3311.176     1844.278        0.686        0.443       66.997       33.211        0.246      334.744        4.917      868.825
01/21/2015  10:43:00       20.581      126.547       -7.524       36.610       72.413       42.425     1340.328     5243.689     1799.885        1.244        0.419      128.210       41.692        0.106      334.577        4.641      868.808
01/21/2015  10:44:00       40.756      118.808       -0.913       47.691       81.087       39.016     2274.466     6575.060     1522.262        1.307        0.519      125.604       44.490        0.125      334.570        4.628      868.792
01/21/2015  10:45:00       66.185       72.174       12.522       64.847       43.199       43.575     4205.096     1866.173     1898.749        0.886        0.399       97.926       31.351        0.102      334.814        5.034      868.778
01/21/2015  10:46:00      126.033       87.014       -7.959       51.899       41.200       38.208     2693.546     1697.460     1459.849        1.468        0.293      153.153       31.069        0.041      334.424        4.386      868.777
01/21/2015  10:47:00       24.707       60.936       -3.291       39.332       34.687       29.089     1547.014     1203.185      846.160        0.396        0.180       65.754       27.468        0.175      334.652        4.765      868.755
01/21/2015  10:48:00       65.489       64.025       30.913       83.928       55.933       35.806     7043.883     3128.544     1282.049        1.040        0.573       91.586       19.173        0.044      334.955        5.268      868.753
01/21/2015  10:49:00      122.712      106.723       75.108       98.971       58.749       60.591     9795.187     3451.483     3671.308        2.450        0.846      162.628       59.974        0.136      334.835        5.068      868.727
01/21/2015  10:50:00      151.540      110.289       10.501       87.052       50.434       43.487     7577.996     2543.589     1891.089        2.362        0.601      187.425       26.130        0.019      334.572        4.630      868.727
01/21/2015  10:51:00       45.094      130.066       -3.132       54.480       70.639       39.924     2968.088     4989.810     1593.901        1.425        0.478      137.661       37.814        0.075      334.664        4.785      868.708
01/21/2015  10:52:00      160.466      104.657       50.069       77.405       55.097       57.116     5991.466     3035.661     3262.203        2.575        0.614      191.578       44.083        0.053      334.754        4.934      868.712
01/21/2015  10:53:00      101.500       57.348       32.683       71.640       69.629       47.408     5132.333     4848.219     2247.500        1.344        0.611      116.581       24.811        0.045      334.541        4.581      868.713
01/21/2015  10:54:00      118.385       75.807       26.375       43.058       35.153       48.668     1853.997     1235.765     2368.598        1.296        0.273      140.576       15.351        0.012      334.818        5.041      868.703
01/21/2015  10:55:00      111.921       86.756       16.763       45.704       34.321       41.995     2088.887     1177.955     1763.570        1.268        0.252      141.608       27.994        0.039      334.522        4.550      868.673
01/21/2015  10:56:00       40.179       80.506        4.305       43.166       44.737       33.876     1863.312     2001.439     1147.598        0.656        0.251       89.976       32.083        0.127      334.758        4.942      868.655
01/21/2015  10:57:00       67.630       39.624       21.883       62.719       39.890       39.642     3933.647     1591.190     1571.457        0.686        0.355       78.383       26.828        0.117      334.991        5.329      868.625
01/21/2015  10:58:00      127.359       -7.891       43.832       73.608       78.829       53.149     5418.168     6214.086     2824.863        1.633        0.723      127.603       54.999        0.186      334.896        5.170      868.608
01/21/2015  10:59:00      101.896      112.213      133.650      106.613       77.056       67.089    11366.370     5937.701     4500.921        3.132        1.090      151.574       61.258        0.163      334.781        4.978      868.578
01/21/2015  11:00:00      144.957      143.760       85.451       72.643       55.039       62.308     5277.004     3029.328     3882.226        3.058        0.609      204.156       51.653        0.064      334.698        4.839      868.575
01/21/2015  11:01:00       72.533       31.718       45.770       53.111       48.519       33.377     2820.756     2354.133     1114.020        0.732        0.314       79.165       28.831        0.133      335.107        5.521      868.572
01/21/2015  11:02:00       65.767       50.755       58.319       54.741       43.544       37.750     2996.567     1896.047     1425.097        0.831        0.316       83.074       30.244        0.133      335.030        5.394      868.545
01/21/2015  11:03:00       92.170      107.333       56.574       83.735       65.827       55.260     7011.526     4333.189     3053.657        1.880        0.720      141.477       43.650        0.095      335.331        5.893      868.532
01/21/2015  11:04:00      100.669      136.618      117.098       97.797      102.695       99.606     9564.221    10546.308     9921.440        3.627        1.502      169.702       85.550        0.254      335.196        5.667      868.506
01/21/2015  11:05:00      112.402      137.721      135.955       78.605       65.675       55.450     6178.678     4313.264     3074.697        3.182        0.678      177.767       45.193        0.065      334.937        5.236      868.508
01/21/2015  11:06:00      102.203       84.326      108.722       62.069       64.613       42.861     3852.552     4174.882     1837.075        1.962        0.493      132.501       40.998        0.096      334.859        5.108      868.504
01/21/2015  11:07:00      132.286      109.476       30.847       84.101       58.726       54.571     7073.007     3448.775     2977.974        2.197        0.675      171.711       43.991        0.066      334.981        5.311      868.493
01/21/2015  11:08:00      204.155      118.420       42.756      109.607       59.905       55.647    12013.721     3588.598     3096.535        3.811        0.935      236.014       62.832        0.071      334.896        5.168      868.490
01/21/2015  11:09:00       60.283       80.026       90.209       62.028       62.891       52.312     3847.428     3955.334     2736.499        1.436        0.527      100.191       37.413        0.139      335.071        5.461      868.482
01/21/2015  11:10:00       50.863       41.317       40.479       62.853       62.460       52.745     3950.526     3901.276     2782.043        0.828        0.532       65.529       47.534        0.526      335.139        5.574      868.464
01/21/2015  11:11:00      102.574       90.768       23.294       53.421       57.457       52.609     2853.794     3301.342     2767.698        1.411        0.446      136.968       30.589        0.050      335.046        5.420      868.437
01/21/2015  11:12:00       80.766       65.856        5.598       41.703       40.328       38.953     1739.159     1626.371     1517.300        0.789        0.244      104.212       27.272        0.068      334.801        5.014      868.429
01/21/2015  11:13:00      114.673       59.713        7.087       38.642       36.243       31.906     1493.186     1313.525     1018.003        1.029        0.191      129.289       17.209        0.018      334.637        4.739      868.406
01/21/2015  11:14:00       47.951       19.176       20.299       38.436       51.000       33.499     1477.337     2600.950     1122.187        0.414        0.260       51.643       20.052        0.151      335.014        5.368      868.392
01/21/2015  11:15:00       19.256       51.988       58.213       37.267       54.793       47.345     1388.862     3002.232     2241.524        0.655        0.332       55.440       40.947        0.546      335.282        5.813      868.382
01/21/2015  11:16:00      117.202       81.101       55.919      100.296       58.076       60.766    10059.380     3372.862     3692.447        2.028        0.856      142.526       53.911        0.143      335.206        5.686      868.345
01/21/2015  11:17:00       41.651       39.017       45.132       76.039       79.504       57.961     5781.892     6320.926     3359.501        1.038        0.773       57.071       33.553        0.346      335.518        6.205      868.326
01/21/2015  11:18:00      127.450       89.559       81.936      125.840       71.144       62.986    15835.792     5061.415     3967.225        2.792        1.243      155.770       62.265        0.160      335.099        5.506      868.298
01/21/2015  11:19:00       48.291       34.545       32.126       61.264       53.818       44.237     3753.317     2896.371     1956.876        0.658        0.430       59.375       31.703        0.285      335.404        6.016      868.293
01/21/2015  11:20:00      110.996       76.440        2.972       59.261       53.410       46.974     3511.855     2852.576     2206.549        1.337        0.429      134.770       35.603        0.070      335.373        5.963      868.293
01/21/2015  11:21:00        9.985       65.109       63.302       55.108       60.101       46.304     3036.888     3612.164     2144.071        0.857        0.440       65.870       32.530        0.244      335.860        6.775      868.287
01/21/2015  11:22:00      143.645       75.943       68.441       96.728       59.567       49.111     9356.334     3548.205     2411.889        2.320        0.766      162.485       37.126        0.052      335.480        6.142      868.289
01/21/2015  11:23:00      152.974      167.737      102.258       91.068       78.913       78.906     8293.330     6227.316     6226.163        4.137        1.037      227.017       62.789        0.076      335.143        5.579      868.286
01/21/2015  11:24:00      124.156      115.800      103.049      141.267       91.167       74.498    19956.392     8311.481     5549.886        3.662        1.691      169.777       68.767        0.164      335.118        5.537      868.289
01/21/2015  11:25:00      249.207       83.295       56.587      127.065       88.930       79.850    16145.486     7908.470     6376.028        5.133        1.521      262.759       62.388        0.056      334.980        5.308      868.279
01/21/2015  11:26:00      159.626       86.652       74.432      119.736       94.582       69.622    14336.821     8945.791     4847.161        3.332        1.406      181.629       64.445        0.126      335.077        5.471      868.277
01/21/2015  11:27:00      111.946      160.108      113.023       89.147       79.318       82.563     7947.212     6291.382     6816.583        3.599        1.053      195.362       63.668        0.106      335.153        5.595      868.305
01/21/2015  11:28:00      101.305      127.241      108.498       97.168       75.613       55.113     9441.595     5717.332     3037.481        2.821        0.910      162.644       43.679        0.072      335.026        5.384      868.296
01/21/2015  11:29:00       61.613       83.371       84.511       65.586       56.948       55.571     4301.566     3243.111     3088.118        1.426        0.532      103.667       38.401        0.137      335.281        5.811      868.292
01/21/2015  11:30:00       42.417      -44.640       13.766       43.128       69.841       39.010     1860.022     4877.750     1521.782        0.612        0.413       61.579       46.382        0.567      335.351        5.926      868.270
01/21/2015  11:31:00       30.338        3.323       57.684       65.782       94.152       54.745     4327.271     8864.636     2996.996        1.022        0.809       30.519       57.582        3.560      335.727        6.554      868.247
01/21/2015  11:32:00       55.695       -8.424       35.864       70.205       86.253       51.325     4928.807     7439.625     2634.214        0.973        0.750       56.328       52.292        0.862      335.565        6.284      868.246
01/21/2015  11:33:00      151.371     -211.024      -26.393       76.986       79.006       45.697     5926.791     6241.948     2088.251        4.120        0.713      259.701       46.303        0.032      335.451        6.091      868.220
01/21/2015  11:34:00      176.307     -115.409       -2.706       90.416      105.847       52.616     8175.008    11203.515     2768.479        3.328        1.107      210.721       54.626        0.067      335.347        5.919      868.221
01/21/2015  11:35:00       98.156      -92.416       -4.829       56.482       52.898       38.869     3190.203     2798.167     1510.806        1.285        0.375      134.816       37.088        0.076      335.210        5.691      868.220
01/21/2015  11:36:00        8.083       -1.083       20.728       31.040       40.980       25.889      963.488     1679.327      670.243        0.190        0.166        8.155       18.387        5.084      335.677        6.470      868.214
01/21/2015  11:37:00       95.747       53.407       11.400       85.898       50.990       44.221     7378.423     2599.957     1955.523        1.204        0.597      109.635       21.467        0.038      335.577        6.303      868.212
01/21/2015  11:38:00      120.427       91.127       14.412       61.870       48.981       56.721     3827.933     2399.163     3217.235        1.623        0.472      151.019       38.562        0.065      335.297        5.837      868.213
01/21/2015  11:39:00      102.894       68.557       46.305       55.954       55.250       50.011     3130.840     3052.537     2501.130        1.306        0.434      123.641       34.796        0.079      335.432        6.060      868.210
01/21/2015  11:40:00       32.899       72.559        8.757       54.055       68.424       41.791     2921.992     4681.843     1746.518        0.789        0.468       79.669       30.508        0.147      335.406        6.018      868.205
01/21/2015  11:41:00       -8.501       79.911        3.984       33.014       66.010       27.235     1089.918     4357.256      741.734        0.633        0.309       80.362       30.775        0.147      335.423        6.048      868.171
01/21/2015  11:42:00       -0.102        6.239        8.963       24.239       17.259       21.566      587.548      297.874      465.099        0.073        0.068        6.240       12.293        3.881      335.781        6.643      868.156
01/21/2015  11:43:00      129.659       92.475       61.666      105.943       79.976       64.396    11223.992     6396.227     4146.876        2.546        1.088      159.257       49.152        0.095      335.567        6.284      868.150
01/21/2015  11:44:00      182.181      103.156       26.425       74.617       52.330       50.134     5567.701     2738.431     2513.408        2.767        0.541      209.359       28.867        0.019      335.336        5.900      868.122
01/21/2015  11:45:00      196.117      123.211       46.247       64.580       51.902       46.314     4170.515     2693.770     2144.983        3.239        0.450      231.610        3.242        0.000      335.376        5.966      868.113
01/21/2015  11:46:00      152.104      101.150       39.210       57.265       46.473       51.685     3279.302     2159.769     2671.386        2.151        0.406      182.666       33.698        0.034      335.353        5.928      868.111
01/21/2015  11:47:00      108.291       91.303       62.051       82.153       52.160       48.681     6749.067     2720.666     2369.883        1.787        0.592      141.645       38.946        0.076      335.564        6.283      868.108
01/21/2015  11:48:00       76.785       82.829       95.965       76.557      126.800       66.913     5860.918    16078.299     4477.324        2.419        1.321      112.945       78.786        0.487      335.788        6.653      868.103
01/21/2015  11:49:00       77.425       39.975       37.163       70.709       75.324       46.069     4999.777     5673.687     2122.366        1.088        0.640       87.135       39.217        0.203      335.600        6.342      868.101
01/21/2015  11:50:00       14.915       25.791       39.818       32.225       33.585       28.050     1038.449     1127.977      786.793        0.271        0.148       29.793       13.987        0.220      335.811        6.693      868.092
01/21/2015  11:51:00      112.961      120.472       82.531       82.010       63.651       64.897     6725.623     4051.428     4211.677        2.453        0.749      165.147       57.019        0.119      335.748        6.586      868.077
01/21/2015  11:52:00       24.339       34.156       68.739       62.068       69.205       45.861     3852.437     4789.354     2103.209        0.861        0.537       41.940       45.317        1.168      336.182        7.312      868.062
01/21/2015  11:53:00       89.095      -67.504       28.403       63.504      133.494       73.821     4032.703    17820.771     5449.533        2.030        1.365      111.780       87.794        0.617      335.604        6.346      868.060
01/21/2015  11:54:00      101.237       75.082       63.154       78.943       59.670       47.209     6232.003     3560.517     2228.689        1.595        0.601      126.041       47.027        0.139      335.673        6.463      868.049
01/21/2015  11:55:00       40.486     -115.944        8.737       39.076       85.557       45.255     1526.956     7320.046     2048.054        1.302        0.545      122.809       50.338        0.168      335.631        6.393      868.033
01/21/2015  11:56:00        8.871      -29.738       21.113       23.039       66.130       20.323      530.780     4373.135      413.026        0.336        0.266       31.032       12.569        0.164      335.909        6.857      868.025
01/21/2015  11:57:00        9.116       38.062       67.649       39.373       44.346       33.656     1550.269     1966.608     1132.717        0.538        0.232       39.139       33.440        0.730      336.176        7.302      868.018
01/21/2015  11:58:00        7.298       10.871       40.494       38.276       50.583       34.661     1465.027     2558.684     1201.375        0.352        0.261       13.093       35.117        7.194      336.057        7.104      868.010
01/21/2015  11:59:00      -13.382       -2.356       38.744       21.969       48.455       28.601      482.640     2347.935      818.030        0.267        0.182       13.588       29.734        4.789      336.120        7.209      867.995
01/21/2015  12:00:00      -26.876      -26.063        6.728       27.416       24.068       18.583      751.623      579.285      345.314        0.156        0.084       37.438       12.219        0.107      336.118        7.205      867.994
01/21/2015  12:01:00       12.205      -17.464        4.595       23.479       36.452       18.269      551.246     1328.770      333.754        0.134        0.111       21.307       13.669        0.412      335.971        6.961      867.985
01/21/2015  12:02:00       30.631       12.813       -1.450       28.136       20.567       25.096      791.632      423.006      629.786        0.147        0.092       33.202       13.117        0.156      336.011        7.026      867.977
01/21/2015  12:03:00       25.617       35.881       42.495       36.022       55.935       40.170     1297.571     3128.772     1613.634        0.489        0.302       44.087       34.860        0.625      336.231        7.394      867.983
01/21/2015  12:04:00       13.384      -49.520       -5.908       20.299       45.113       18.889      412.060     2035.209      356.787        0.273        0.140       51.297       19.914        0.151      335.560        6.274      867.974
01/21/2015  12:05:00      146.282      105.321       60.602      108.998       71.342       60.172    11880.655     5089.737     3620.628        2.837        1.030      180.252       60.831        0.114      335.739        6.572      867.964
01/21/2015  12:06:00      175.418       99.647       57.183       74.501       79.136       52.723     5550.385     6262.464     2779.742        2.928        0.730      201.745       31.152        0.024      335.568        6.286      867.958
01/21/2015  12:07:00      179.474      125.473       60.802      113.396       74.629       66.260    12858.643     5569.518     4390.360        3.723        1.141      218.985       35.795        0.027      335.734        6.563      867.949
01/21/2015  12:08:00      181.693       82.329       28.492      110.121       66.488       57.717    12126.563     4420.709     3331.284        3.024        0.994      199.476       38.984        0.038      335.857        6.767      867.947
01/21/2015  12:09:00      172.613       72.028       34.921       96.404       82.443       53.339     9293.651     6796.914     2845.020        2.757        0.947      187.038       39.144        0.044      335.756        6.598      867.950
01/21/2015  12:10:00       85.268       63.606       21.432       94.189       57.749       53.509     8871.501     3334.938     2863.212        1.342        0.753      106.379       47.293        0.198      335.939        6.906      867.932
01/21/2015  12:11:00      192.751      102.143        6.697       61.377       60.998       48.871     3767.108     3720.761     2388.409        2.875        0.494      218.143       28.087        0.017      335.751        6.590      867.928
01/21/2015  12:12:00      146.968       92.734       18.080       57.580       46.571       40.269     3315.473     2168.865     1621.561        1.881        0.355      173.779       20.197        0.014      335.809        6.688      867.920
01/21/2015  12:13:00       88.372      103.529       20.862       81.923       71.164       49.895     6711.369     5064.253     2489.485        1.661        0.713      136.117       33.254        0.060      335.923        6.879      867.889
01/21/2015  12:14:00      159.392      135.359       15.432       33.984       32.969       33.983     1154.934     1086.967     1154.826        2.368        0.170      209.112       23.853        0.013      335.444        6.078      867.904
01/21/2015  12:15:00      136.652       93.745       19.982       45.485       40.302       41.751     2068.900     1624.283     1743.163        1.665        0.272      165.716       28.385        0.029      335.751        6.593      867.881
01/21/2015  12:16:00       93.924       65.897        8.281       39.608       35.967       29.828     1568.768     1293.623      889.694        0.849        0.188      114.735       17.848        0.024      335.651        6.425      867.891
01/21/2015  12:17:00       85.571       52.140        2.177       49.757       34.367       28.887     2475.790     1181.092      834.470        0.727        0.225      100.205       24.277        0.059      335.944        6.914      867.889
01/21/2015  12:18:00       63.743       56.852        7.991       55.266       39.678       33.102     3054.350     1574.324     1095.750        0.654        0.286       85.413       29.949        0.123      335.947        6.919      867.880
01/21/2015  12:19:00       -8.844       41.662      -27.462       50.144       49.319       34.647     2514.404     2432.377     1200.383        0.436        0.307       42.590       18.625        0.191      335.634        6.399      867.878
01/21/2015  12:20:00       -9.265      -33.055       11.490       22.522       23.611       19.261      507.218      557.468      370.996        0.137        0.072       34.328       12.439        0.131      335.859        6.775      867.867
01/21/2015  12:21:00      -29.310       20.787        4.468       38.205       26.120       20.586     1459.631      682.240      423.763        0.194        0.128       35.932       19.296        0.288      336.259        7.442      867.846
01/21/2015  12:22:00        7.041      -13.764        7.939       24.761       21.440       14.061      613.118      459.681      197.721        0.079        0.064       15.460       15.073        0.950      336.114        7.198      867.836
01/21/2015  12:23:00       11.404       -4.639        6.618       15.166       10.675       16.180      230.018      113.962      261.800        0.040        0.030       12.311        8.941        0.527      336.482        7.813      867.816
01/21/2015  12:24:00        7.317        5.089       29.902       26.649       40.326       34.977      710.177     1626.179     1223.387        0.227        0.178        8.913       31.390       12.404      336.657        8.107      867.795
01/21/2015  12:25:00       34.772      -70.351       28.353       42.945       54.999       45.818     1844.281     3024.865     2099.329        0.696        0.348       78.475       24.956        0.101      336.297        7.506      867.795
01/21/2015  12:26:00       55.154      -70.064       22.191       61.659       82.570       45.198     3801.843     6817.731     2042.822        1.055        0.633       89.168       49.801        0.312      336.134        7.233      867.778
01/21/2015  12:27:00       74.192      111.504      113.679       55.384       54.940       46.513     3067.411     3018.390     2163.466        1.955        0.412      133.932       36.346        0.074      336.037        7.068      867.765
01/21/2015  12:28:00       40.317       32.291       58.483       47.497       41.526       33.342     2255.977     1724.429     1111.702        0.559        0.255       51.654       24.941        0.233      336.095        7.166      867.766
01/21/2015  12:29:00       18.000       25.299       38.468       26.957       23.322       22.141      726.693      543.923      490.226        0.210        0.088       31.049        7.460        0.058      336.291        7.493      867.738
01/21/2015  12:30:00       39.378       14.464       35.750       41.280       47.533       23.699     1704.012     2259.414      561.653        0.378        0.226       41.950       14.692        0.123      336.514        7.866      867.717
01/21/2015  12:31:00       38.119       86.359       87.545       41.960       42.467       27.345     1760.672     1803.405      747.767        1.044        0.216       94.398       21.644        0.053      336.391        7.660      867.687
01/21/2015  12:32:00       33.756      -43.756       28.941       85.750       75.288       47.299     7353.035     5668.301     2237.223        0.957        0.763       55.264       49.003        0.786      336.574        7.966      867.661
01/21/2015  12:33:00       79.181      -88.111        8.585       47.155       75.331       40.789     2223.629     5674.700     1663.781        1.183        0.478      118.462       47.293        0.159      336.270        7.456      867.636
01/21/2015  12:34:00       15.155       -6.453       25.195       59.321       64.194       55.934     3518.989     4120.857     3128.638        0.584        0.538       16.471       48.189        8.559      336.364        7.617      867.610
01/21/2015  12:35:00       78.950       36.247       55.827       45.397       66.109       44.518     2060.929     4370.350     1981.873        0.954        0.421       86.874       38.501        0.196      336.242        7.414      867.595
01/21/2015  12:36:00      127.972      103.278       39.944       64.144       52.160       43.233     4114.422     2720.686     1869.131        1.867        0.435      164.448       41.838        0.065      336.171        7.292      867.572
01/21/2015  12:37:00      105.517       68.503       21.469       78.485       50.471       39.058     6159.939     2547.277     1525.532        1.326        0.512      125.804       24.776        0.039      336.238        7.404      867.568
01/21/2015  12:38:00      148.369       88.121       18.803       84.001       67.838       54.558     7056.176     4601.932     2976.629        2.238        0.732      172.565       49.163        0.081      336.358        7.603      867.569
01/21/2015  12:39:00      186.816      100.031       16.633       63.114       54.997       45.873     3983.364     3024.637     2104.378        2.715        0.456      211.911       21.661        0.010      336.047        7.085      867.559
01/21/2015  12:40:00      103.933       68.221       31.432       63.667       45.974       34.369     4053.519     2113.652     1181.212        1.190        0.367      124.323       24.947        0.040      336.358        7.606      867.559
01/21/2015  12:41:00      126.597       52.465       13.487       79.878       66.619       43.679     6380.522     4438.098     1907.876        1.584        0.636      137.038       38.447        0.079      336.538        7.907      867.545
01/21/2015  12:42:00       75.928      101.163      107.767       72.492       69.496       70.809     5255.111     4829.742     5013.938        2.135        0.755      126.487       56.456        0.199      336.665        8.119      867.516
01/21/2015  12:43:00       81.081       94.419      102.762       84.211       77.214       58.691     7091.501     5962.003     3444.643        2.127        0.825      124.455       62.036        0.248      336.544        7.915      867.519
01/21/2015  12:44:00       53.793       20.207       53.448       73.629       49.921       38.152     5421.226     2492.133     1455.607        0.776        0.468       57.463       28.082        0.239      337.020        8.713      867.495
01/21/2015  12:45:00       86.879       91.754       72.072       74.196       45.747       31.931     5505.075     2092.779     1019.573        1.489        0.431      126.360       25.981        0.042      336.594        7.999      867.487
01/21/2015  12:46:00       45.086      101.258       96.817       62.841       62.355       44.061     3948.976     3888.098     1941.402        1.572        0.489      110.842       41.201        0.138      336.413        7.698      867.470
01/21/2015  12:47:00       89.128      123.791      130.012       64.896       61.846       43.634     4211.529     3824.985     1903.960        2.505        0.497      152.538       37.930        0.062      336.222        7.378      867.450
01/21/2015  12:48:00      201.795       93.250       40.489      120.565       78.913       70.370    14535.989     6227.279     4951.931        3.838        1.286      222.299       42.959        0.037      336.346        7.585      867.444
01/21/2015  12:49:00       77.242       70.060       51.932      121.121       64.009       49.211    14670.204     4097.141     2421.694        1.738        1.059      104.282       51.880        0.248      336.414        7.699      867.447
01/21/2015  12:50:00      128.872       82.956       34.755       71.317       63.727       50.062     5086.115     4061.136     2506.186        1.817        0.583      153.264       34.313        0.050      336.208        7.353      867.449
01/21/2015  12:51:00       97.742       78.382       72.222      128.633       92.078       76.351    16546.491     8478.327     5829.499        2.588        1.543      125.289       70.043        0.313      336.544        7.916      867.438
01/21/2015  12:52:00      163.900      127.906       84.297      116.023       86.050       77.936    13461.253     7404.548     6074.031        3.863        1.347      207.902       49.802        0.057      336.330        7.557      867.430
01/21/2015  12:53:00      188.288      130.262       73.190       91.655       79.067       73.461     8400.629     6251.572     5396.524        3.891        1.002      228.956       65.133        0.081      336.290        7.489      867.431
01/21/2015  12:54:00       85.179      109.581      112.735      101.108       82.924       72.800    10222.840     6876.327     5299.885        2.718        1.120      138.793       67.268        0.235      336.448        7.755      867.430
01/21/2015  12:55:00       91.725        5.506       63.675       88.667       91.579       60.966     7861.807     8386.643     3716.888        1.623        0.998       91.890       62.021        0.456      336.464        7.782      867.421
01/21/2015  12:56:00       25.627       -1.366       66.258       38.873       62.833       32.428     1511.106     3948.047     1051.556        0.578        0.326       25.663       38.227        2.219      336.845        8.420      867.395
01/21/2015  12:57:00       12.912       -7.772       22.358       34.816       50.078       38.319     1212.144     2507.853     1468.351        0.296        0.259       15.070       23.460        2.423      336.705        8.187      867.373
01/21/2015  12:58:00       54.523        9.557       20.827       43.029       41.911       46.111     1851.480     1756.520     2126.202        0.462        0.287       55.354       30.476        0.303      336.671        8.129      867.372
01/21/2015  12:59:00       62.968       54.168       65.230       62.197       56.444       46.517     3868.493     3185.914     2163.846        1.018        0.461       83.061       38.405        0.214      336.630        8.062      867.362
01/21/2015  13:00:00       87.867       75.562       69.426       94.058      112.971       70.836     8846.923    12762.404     5017.783        2.243        1.331      115.889       71.010        0.375      336.499        7.839      867.345
01/21/2015  13:01:00       14.903       -3.601       39.272       31.384       60.668       38.761      984.944     3680.581     1502.403        0.397        0.308       15.332       26.770        3.049      337.071        8.797      867.344
01/21/2015  13:02:00      147.864      -26.641       45.490      108.685      163.556      100.017    11812.334    26750.557    10003.479        3.660        2.428      150.244      106.119        0.499      336.498        7.838      867.335
01/21/2015  13:03:00       81.937       57.981       66.806      102.197       90.761       59.469    10444.199     8237.513     3536.594        1.837        1.111      100.377       42.999        0.184      336.834        8.399      867.334
01/21/2015  13:04:00       50.521      -85.258       43.317       62.964       93.028       57.651     3964.500     8654.122     3323.680        1.382        0.797       99.103       37.383        0.142      336.850        8.427      867.341
01/21/2015  13:05:00      140.604     -141.173       -0.135       85.214      115.647       61.074     7261.359    13374.183     3730.030        3.203        1.218      199.247       69.025        0.120      336.498        7.838      867.340
01/21/2015  13:06:00       88.443      -46.092       41.033       94.935       99.364       66.086     9012.728     9873.153     4367.380        1.744        1.163       99.733       77.346        0.601      336.501        7.845      867.350
01/21/2015  13:07:00       92.459      -86.800       35.504       77.611       71.952       63.350     6023.498     5177.126     4013.176        1.628        0.761      126.818       62.970        0.247      336.425        7.717      867.351
01/21/2015  13:08:00      120.027      -91.065       13.018       39.167       41.316       30.519     1534.029     1707.025      931.409        1.352        0.209      150.663       27.459        0.033      336.177        7.303      867.356
01/21/2015  13:09:00       66.086       27.589       18.536       43.621       55.768       43.786     1902.780     3110.064     1917.187        0.620        0.347       71.614       27.465        0.147      336.313        7.531      867.343
01/21/2015  13:10:00       50.371       42.741        6.398       64.833       49.397       35.009     4203.366     2440.091     1225.638        0.614        0.393       66.061       17.607        0.071      336.341        7.577      867.341
01/21/2015  13:11:00       44.895       53.531       57.234       72.675       60.670       56.441     5281.640     3680.823     3185.588        1.015        0.607       69.865       50.938        0.532      336.733        8.233      867.341
01/21/2015  13:12:00      161.817      103.466       54.863      103.786       76.111       61.123    10771.593     5792.906     3736.025        3.010        1.015      192.068       45.083        0.055      336.618        8.040      867.324
01/21/2015  13:13:00      -15.679       -7.543       30.332       76.838       86.735       54.127     5904.037     7523.031     2929.723        0.879        0.818       17.399       52.742        9.189      336.843        8.416      867.341
01/21/2015  13:14:00       49.813     -113.429       13.525       88.589      131.313       63.762     7848.034    17243.083     4065.550        2.234        1.458      123.885       74.834        0.365      336.958        8.607      867.338
01/21/2015  13:15:00      118.643     -142.898       11.584      112.019      147.497       99.716    12548.323    21755.502     9943.214        3.943        2.212      185.731      115.595        0.387      336.542        7.913      867.299
01/21/2015  13:16:00      125.182      -88.134       -0.145       88.109      104.837       76.122     7763.137    10990.759     5794.546        2.399        1.227      153.095       81.366        0.282      336.534        7.900      867.287
01/21/2015  13:17:00       49.256      -36.325       40.037       62.810       63.162       50.495     3945.057     3989.463     2549.707        0.791        0.524       61.201       47.034        0.591      336.723        8.218      867.284
01/21/2015  13:18:00       39.476      -40.996        6.237       39.708       41.668       21.523     1576.746     1736.262      463.218        0.353        0.189       56.912       24.258        0.182      336.948        8.592      867.282
01/21/2015  13:19:00       15.553      -66.983        9.331       37.740       74.306       34.987     1424.342     5521.413     1224.098        0.649        0.408       68.765       35.777        0.271      337.070        8.796      867.269
01/21/2015  13:20:00       45.944     -126.722      -10.247       45.710       46.375       34.651     2089.414     2150.647     1200.658        1.186        0.272      134.794       19.424        0.021      336.692        8.166      867.256
01/21/2015  13:21:00       75.639      -24.782       26.186       62.239      123.047       50.536     3873.642    15140.581     2553.880        1.429        1.078       79.595       56.508        0.504      336.815        8.370      867.239
01/21/2015  13:22:00       23.372       16.721       32.034       60.421       41.758       27.073     3650.658     1743.724      732.966        0.399        0.306       28.737        7.988        0.077      336.949        8.594      867.235
01/21/2015  13:23:00      -31.679       46.046       -5.756       26.842       21.105       18.618      720.510      445.433      346.647        0.233        0.076       55.891       14.161        0.064      336.740        8.244      867.227
01/21/2015  13:24:00        9.094       -0.579       -0.580       21.506       41.085       21.320      462.492     1688.001      454.551        0.134        0.130        9.112       11.753        1.664      336.862        8.449      867.236
01/21/2015  13:25:00       84.269      -49.520       37.518       76.521       99.857       74.227     5855.423     9971.431     5509.668        1.615        1.067       97.742       63.433        0.421      337.017        8.706      867.225
01/21/2015  13:26:00      119.021       32.937       85.113      106.902      130.589       78.353    11428.037    17053.449     6139.133        2.855        1.731      123.495       80.379        0.424      336.870        8.459      867.219
01/21/2015  13:27:00       53.445       44.737      104.196       81.974       82.067       63.928     6719.749     6734.932     4086.748        1.663        0.877       69.698       55.904        0.643      336.840        8.411      867.220
01/21/2015  13:28:00       51.777       57.587       75.815       78.880       54.275       38.597     6222.132     2945.786     1489.754        1.120        0.533       77.441       29.664        0.147      336.945        8.586      867.204
01/21/2015  13:29:00       66.508       42.723       55.321       70.135       71.651       43.988     4918.963     5133.921     1934.907        1.065        0.599       79.047       30.578        0.150      336.677        8.139      867.186
01/21/2015  13:30:00        6.059       -7.211       27.971       31.438       49.958       43.750      988.326     2495.827     1914.031        0.313        0.270        9.418       36.640       15.134      337.034        8.737      867.166
01/21/2015  13:31:00       39.998       60.030       81.144       75.153       83.338       56.046     5647.942     6945.248     3141.150        1.376        0.787       72.135       54.595        0.573      336.882        8.480      867.159
01/21/2015  13:32:00       16.323       25.081       66.785       52.445       71.427       39.051     2750.472     5101.789     1524.996        0.736        0.469       29.925       35.703        1.423      337.115        8.871      867.156
01/21/2015  13:33:00       79.617       89.745       85.965      100.349       68.686       54.303    10069.884     4717.821     2948.800        1.976        0.887      119.971       40.122        0.112      336.695        8.169      867.156
01/21/2015  13:34:00       -4.180      -47.285        7.136       49.891       54.912       31.923     2489.136     3015.295     1019.046        0.441        0.326       47.469       25.468        0.288      336.924        8.552      867.168
01/21/2015  13:35:00      100.283     -124.322      -14.941       29.463       47.071       24.510      868.053     2215.691      600.761        1.471        0.184      159.727       21.445        0.018      336.377        7.639      867.157
01/21/2015  13:36:00       35.403      -13.722       39.545       60.709       45.879       26.138     3685.636     2104.848      683.208        0.474        0.324       37.969       30.613        0.650      336.692        8.164      867.145
01/21/2015  13:37:00       20.761       32.596       15.895       26.377       24.112       20.074      695.732      581.406      402.956        0.171        0.084       38.646       12.050        0.097      336.664        8.118      867.135
01/21/2015  13:38:00       49.142       95.527      106.739       73.321       70.506       58.275     5376.036     4971.113     3395.999        1.834        0.687      107.426       54.664        0.259      336.942        8.581      867.135
01/21/2015  13:39:00       88.498       85.826      124.622      105.451      108.372       98.407    11119.875    11744.462     9684.024        3.163        1.627      123.280       95.977        0.606      336.819        8.375      867.125
01/21/2015  13:40:00      128.812       12.425       90.450      151.638      138.992       87.826    22994.227    19318.720     7713.451        3.747        2.501      129.410       78.484        0.368      336.776        8.302      867.113
01/21/2015  13:41:00       74.481     -212.835      -28.830       70.675       89.387       54.280     4994.911     7990.099     2946.345        3.380        0.797      225.490       44.949        0.040      336.827        8.387      867.126
01/21/2015  13:42:00       36.687      -28.776       25.382       62.933      116.969       67.729     3960.622    13681.810     4587.176        1.252        1.111       46.627       87.373        3.511      337.069        8.793      867.117
01/21/2015  13:43:00       12.552       40.202       94.956       67.558      105.946       70.014     4564.115    11224.514     4901.945        1.574        1.035       42.115       82.442        3.832      337.247        9.091      867.106
01/21/2015  13:44:00       60.950      -35.732       43.589       50.003      109.337       44.945     2500.320    11954.643     2020.084        1.168        0.824       70.652       59.053        0.699      337.025        8.719      867.095
01/21/2015  13:45:00       35.983       25.789       34.644       47.127       52.502       37.153     2220.989     2756.479     1380.382        0.476        0.318       44.270       19.378        0.192      337.138        8.909      867.093
01/21/2015  13:46:00       47.914       13.514       33.915       33.700       66.662       41.162     1135.682     4443.779     1694.317        0.545        0.364       49.784       35.985        0.522      337.004        8.684      867.082
01/21/2015  13:47:00       11.054       50.181        2.906       30.020       35.829       28.213      901.184     1283.690      795.953        0.281        0.149       51.384       20.566        0.160      336.985        8.654      867.066
01/21/2015  13:48:00       46.040       35.898       25.327       24.991       30.379       28.630      624.566      922.909      819.673        0.321        0.118       58.381       10.755        0.034      337.074        8.803      867.042
01/21/2015  13:49:00       31.155      -28.803        8.863       54.079      119.376       53.561     2924.590    14250.715     2868.784        1.096        1.002       42.430       70.406        2.753      337.010        8.694      867.013
01/21/2015  13:50:00       51.273       -1.859       39.188       53.671       68.405       59.579     2880.620     4679.268     3549.689        0.764        0.555       51.307       57.913        1.274      337.030        8.731      866.993
01/21/2015  13:51:00       44.044      -33.294       29.401       72.651       94.620       60.051     5278.199     8952.960     3606.099        1.087        0.892       55.212       72.156        1.708      337.091        8.831      866.984
01/21/2015  13:52:00       68.757      -81.267      -16.782       60.935       81.628       38.598     3713.083     6663.144     1489.820        1.174        0.593      106.451       20.965        0.039      336.815        8.369      866.962
01/21/2015  13:53:00      -18.791       31.459        1.257       46.797       38.530       26.761     2189.956     1484.569      716.161        0.287        0.220       36.644       25.304        0.477      336.847        8.423      866.947
01/21/2015  13:54:00       75.418       50.606       16.286       52.290       37.694       28.509     2734.268     1420.802      812.759        0.674        0.248       90.824       13.673        0.023      336.862        8.448      866.931
01/21/2015  13:55:00       88.437       69.334       49.494       90.505       47.513       43.960     8191.126     2257.465     1932.473        1.373        0.619      112.376       47.194        0.176      337.095        8.836      866.915
01/21/2015  13:56:00       18.462       54.329       58.966       36.042       37.665       34.988     1298.994     1418.627     1224.177        0.535        0.197       57.380       26.883        0.220      337.313        9.203      866.905
01/21/2015  13:57:00       20.627       54.051       87.253       55.819       58.218       38.407     3115.750     3389.343     1475.094        0.947        0.399       57.854       41.256        0.509      337.455        9.441      866.899
01/21/2015  13:58:00       56.426      149.473      146.702      123.816       85.983       77.100    15330.497     7393.114     5944.407        3.785        1.433      159.768       76.624        0.230      337.086        8.820      866.864
01/21/2015  13:59:00      138.323      -69.653        7.564       96.114      159.710       59.305     9237.827    25507.175     3517.131        3.115        1.913      154.870       59.714        0.149      337.030        8.727      866.843
01/21/2015  14:00:00      105.118      -78.672       13.560       95.002      103.049       54.478     9025.286    10619.124     2967.829        2.001        1.131      131.298       69.017        0.276      337.118        8.874      866.844
01/21/2015  14:01:00      136.335       20.534       73.142      102.966      143.796       77.783    10602.089    20677.292     6050.230        3.084        1.866      137.873       75.806        0.302      337.235        9.069      866.827
01/21/2015  14:02:00      185.595      192.864      181.468      129.521      107.057       79.508    16775.590    11461.263     6321.515        6.956        1.728      267.660       72.163        0.073      336.980        8.641      866.831
01/21/2015  14:03:00      140.757      165.256      144.110       90.494       70.705       67.731     8189.099     4999.252     4587.541        4.283        0.889      217.076       44.128        0.041      336.685        8.149      866.854
01/21/2015  14:04:00       68.878       78.673       86.196       87.256       67.552       54.977     7613.630     4563.214     3022.514        1.678        0.760      104.564       47.289        0.205      336.997        8.673      866.835
01/21/2015  14:05:00       66.927       59.890       55.090       86.060       57.604       54.227     7406.270     3318.191     2940.617        1.238        0.683       89.811       55.116        0.377      337.089        8.827      866.822
01/21/2015  14:06:00       44.526       49.584       26.674       53.744       34.625       32.761     2888.456     1198.903     1073.302        0.516        0.258       66.642       19.195        0.083      337.037        8.740      866.805
01/21/2015  14:07:00       25.691       57.336       88.953       53.046       52.742       41.822     2813.834     2781.724     1749.095        0.960        0.367       62.829       32.328        0.265      337.010        8.696      866.791
01/21/2015  14:08:00      129.469       77.732       46.535       89.584       55.047       65.036     8025.308     3030.207     4229.650        2.013        0.764      151.012       59.471        0.155      337.117        8.874      866.769
01/21/2015  14:09:00      146.513       91.800       27.578       82.017       53.998       59.179     6726.731     2915.794     3502.205        2.190        0.657      172.897       34.625        0.040      337.137        8.908      866.765
01/21/2015  14:10:00      236.834      178.203       45.226       81.167       57.635       54.784     6588.023     3321.764     3001.295        5.140        0.646      296.389       24.892        0.007      336.854        8.430      866.759
01/21/2015  14:11:00      122.622       87.927      100.470       96.406       77.318       73.574     9294.076     5978.071     5413.070        2.677        1.034      150.889       50.118        0.110      337.082        8.813      866.738
01/21/2015  14:12:00      237.912      110.370       50.948      101.388       84.925       73.540    10279.443     7212.319     5408.089        4.714        1.145      262.266       62.400        0.057      336.993        8.662      866.729
01/21/2015  14:13:00      157.369      109.705       88.382      125.971       76.296       64.860    15868.790     5821.065     4206.824        3.525        1.295      191.834       40.948        0.046      337.040        8.743      866.730
01/21/2015  14:14:00      215.043      134.946       55.401      127.582       91.604       79.175    16277.074     8391.371     6268.701        4.923        1.547      253.878       62.909        0.061      337.031        8.727      866.734
01/21/2015  14:15:00      160.327       52.928       77.231       82.523       81.937       64.205     6810.048     6713.680     4122.256        2.606        0.882      168.838       55.790        0.109      337.036        8.737      866.738
01/21/2015  14:16:00       82.989      107.966      135.931      102.105       98.508       71.802    10425.461     9703.793     5155.504        3.115        1.264      136.176       76.055        0.312      337.093        8.832      866.737
01/21/2015  14:17:00       56.806       88.197      104.365       66.105       58.983       42.210     4369.910     3478.946     1781.658        1.576        0.482      104.908       34.686        0.109      337.117        8.874      866.747
01/21/2015  14:18:00       83.910       50.507       53.956       89.146       65.672       57.101     7946.961     4312.753     3260.504        1.401        0.776       97.938       53.659        0.300      337.152        8.932      866.757
01/21/2015  14:19:00       47.658       39.222       52.715       68.044       66.665       61.124     4630.040     4444.238     3736.083        0.970        0.641       61.722       32.530        0.278      337.122        8.882      866.758
01/21/2015  14:20:00      109.806      117.212       93.922      133.448       68.482       69.564    17808.346     4689.736     4839.100        3.097        1.367      160.611       75.719        0.222      337.104        8.848      866.772
01/21/2015  14:21:00      165.023      112.243       37.878       79.105       65.447       61.145     6257.642     4283.276     3738.739        2.777        0.714      199.578       46.642        0.055      336.924        8.548      866.783
01/21/2015  14:22:00      134.661       76.797       58.384       63.375       46.373       48.255     4016.352     2150.479     2328.516        1.797        0.425      155.021       39.617        0.065      337.108        8.859      866.772
01/21/2015  14:23:00       45.607       81.139       85.471      109.427       74.930       60.972    11974.249     5614.437     3717.547        1.863        1.065       93.078       47.529        0.261      337.314        9.203      866.771
01/21/2015  14:24:00       85.339      100.012      118.216       89.605       85.339       65.825     8029.137     7282.782     4332.914        2.545        0.982      131.473       64.633        0.242      337.066        8.788      866.770
01/21/2015  14:25:00      146.256      125.734       96.691       99.875       86.634       78.026     9974.937     7505.500     6088.128        3.505        1.178      192.872       69.809        0.131      337.056        8.769      866.773
01/21/2015  14:26:00      141.797       88.381       74.207       85.201       75.748       62.387     7259.130     5737.684     3892.136        2.515        0.844      167.086       44.596        0.071      337.019        8.709      866.775
01/21/2015  14:27:00       48.817       34.128       50.801       81.264       70.799       56.545     6603.802     5012.536     3197.387        1.047        0.741       59.563       53.043        0.793      337.318        9.211      866.775
01/21/2015  14:28:00       29.541       26.613       12.393       50.923       52.570       35.181     2593.201     2763.566     1237.735        0.416        0.330       39.761       22.183        0.311      337.335        9.238      866.787
01/21/2015  14:29:00       -8.093        8.407       51.070       25.845       43.113       33.066      667.959     1858.698     1093.363        0.318        0.181       11.670       30.176        6.686      337.660        9.783      866.796
01/21/2015  14:30:00      109.771     -126.902        2.675       88.423       91.573       53.163     7818.588     8385.566     2826.296        2.359        0.952      167.791       53.148        0.100      337.108        8.858      866.776
01/21/2015  14:31:00       77.542      128.964      114.980      107.722       96.604       80.773    11604.118     9332.357     6524.280        3.166        1.373      150.480       69.979        0.216      337.240        9.078      866.770
01/21/2015  14:32:00      195.235      237.111      171.991      102.732       77.717       93.116    10553.875     6039.957     8670.610        7.459        1.263      307.145       75.147        0.060      336.759        8.272      866.778
01/21/2015  14:33:00       96.882       52.570       88.557       94.855       80.717       62.581     8997.565     6515.245     3916.341        1.971        0.971      110.226       55.520        0.254      336.950        8.594      866.805
01/21/2015  14:34:00      141.377     -143.228      -16.745       37.795       37.322       20.251     1428.487     1392.903      410.086        2.201        0.162      201.250        8.913        0.002      336.748        8.257      866.792
01/21/2015  14:35:00       17.540        8.323       57.956       45.624       83.893       54.923     2081.576     7038.103     3016.558        0.793        0.607       19.414       59.305        9.331      337.209        9.028      866.789
01/21/2015  14:36:00       53.785       24.953       19.283       80.073       58.963       33.018     6411.615     3476.595     1090.160        0.743        0.549       59.292       22.217        0.140      337.140        8.913      866.799
01/21/2015  14:37:00       32.711      -14.166        3.360       33.383       70.484       31.338     1114.449     4967.939      982.066        0.417        0.353       35.646       25.888        0.527      337.416        9.376      866.790
01/21/2015  14:38:00       85.087       68.341       22.775       74.226       58.059       36.848     5509.538     3370.894     1357.792        1.133        0.512      109.134       19.958        0.033      337.401        9.350      866.798
01/21/2015  14:39:00      215.880      113.538       38.848       91.914       66.618       56.031     8448.221     4438.006     3139.467        3.851        0.801      243.917       43.563        0.032      337.217        9.040      866.794
01/21/2015  14:40:00      173.755      106.038       41.858       55.433       77.492       50.695     3072.863     6005.041     2569.955        2.742        0.582      203.555       33.843        0.028      337.103        8.848      866.777
01/21/2015  14:41:00      225.865      132.439       59.230      133.566       75.555       71.020    17839.931     5708.608     5043.872        5.032        1.430      261.830       65.755        0.063      337.197        9.006      866.771
01/21/2015  14:42:00      188.517      183.601      140.175      107.867       94.681       81.857    11635.236     8964.455     6700.546        5.809        1.365      263.150       77.877        0.088      337.020        8.708      866.766
01/21/2015  14:43:00       75.589       53.612       81.906       80.748      103.409       69.021     6520.172    10693.342     4763.962        1.863        1.099       92.671       69.190        0.557      337.018        8.708      866.775
01/21/2015  14:44:00      169.376       89.197       20.018       55.351       50.072       45.540     3063.742     2507.203     2073.915        2.234        0.382      191.427       20.646        0.012      337.099        8.842      866.773
01/21/2015  14:45:00      127.153      115.302       57.275       76.019       53.790       65.492     5778.945     2893.349     4289.219        2.285        0.648      171.646       50.000        0.085      337.160        8.946      866.760
01/21/2015  14:46:00      172.563       87.328       57.331       95.617       66.942       67.436     9142.563     4481.240     4547.617        2.943        0.909      193.401       50.695        0.069      337.089        8.826      866.757
01/21/2015  14:47:00      119.501      114.389      122.824      109.577       91.890       79.842    12007.176     8443.735     6374.688        3.463        1.341      165.425       65.434        0.156      337.167        8.956      866.744
01/21/2015  14:48:00       77.504      128.761      153.308      100.716       91.407       68.791    10143.769     8355.269     4732.179        3.466        1.162      150.287       60.371        0.161      337.444        9.419      866.753
01/21/2015  14:49:00      146.395      108.628      109.966       87.309       75.881       72.460     7622.792     5757.993     5250.465        3.197        0.932      182.295       47.307        0.067      337.118        8.872      866.762
01/21/2015  14:50:00      154.502       93.525       28.065       89.932       80.719       57.001     8087.761     6515.572     3249.101        2.563        0.893      180.604       32.312        0.032      337.133        8.898      866.742
01/21/2015  14:51:00       98.557       41.924       23.488       70.804       48.201       38.948     5013.157     2323.320     1516.938        1.044        0.443      107.103       24.882        0.054      337.318        9.210      866.729
01/21/2015  14:52:00       90.765      103.344       84.932       71.912       59.607       63.586     5171.308     3552.937     4043.148        1.945        0.638      137.544       46.857        0.116      337.389        9.329      866.706
01/21/2015  14:53:00       22.537       92.415      118.648       63.627       65.490       59.376     4048.438     4288.996     3525.544        1.749        0.593       95.123       50.900        0.286      337.637        9.745      866.691
01/21/2015  14:54:00       99.760      133.296       76.422      114.488       82.321       85.135    13107.457     6776.795     7247.920        3.034        1.357      166.492       67.210        0.163      337.502        9.515      866.688
01/21/2015  14:55:00      210.853      123.628       50.315      103.547       76.677       65.363    10721.973     5879.294     4272.327        4.157        1.044      244.423       37.555        0.024      337.264        9.117      866.697
01/21/2015  14:56:00      263.082      135.885       43.126      103.410       90.374       69.584    10693.669     8167.469     4841.926        5.662        1.185      296.103       42.758        0.021      337.129        8.891      866.693
01/21/2015  14:57:00      178.976      136.631       36.829      121.501       83.234       48.897    14762.416     6927.962     2390.921        3.806        1.204      225.167       33.200        0.022      337.062        8.780      866.696
01/21/2015  14:58:00      121.812       71.164       33.690       73.641       50.897       41.743     5422.949     2590.544     1742.439        1.540        0.488      141.076       39.603        0.079      337.366        9.290      866.683
01/21/2015  14:59:00      130.384      134.462      115.744      134.846       77.107       91.118    18183.434     5945.456     8302.483        4.045        1.622      187.297       72.936        0.152      337.369        9.293      866.667
01/21/2015  15:00:00      195.699      150.011      150.147      161.062      105.739       91.133    25940.982    11180.731     8305.192        6.438        2.271      246.579      100.324        0.166      337.194        9.000      866.648
01/21/2015  15:01:00       97.900      147.769      131.310      109.079       94.594       86.096    11898.213     8948.105     7412.481        3.846        1.413      177.257       62.892        0.126      337.135        8.903      866.642
01/21/2015  15:02:00      199.525      136.166       57.549      142.454       87.225       79.891    20293.040     7608.279     6382.500        4.797        1.714      241.561       54.516        0.051      337.341        9.247      866.631
01/21/2015  15:03:00      216.531      141.820       47.774      107.015       97.529       78.206    11452.104     9511.942     6116.233        4.818        1.354      258.841       44.877        0.030      337.235        9.068      866.639
01/21/2015  15:04:00      212.837      111.552       42.984      118.671       75.834       74.159    14082.811     5750.865     5499.533        4.246        1.267      240.299       55.417        0.053      337.162        8.948      866.640
01/21/2015  15:05:00      240.035      152.319       36.073       74.051       66.303       65.528     5483.486     4396.039     4293.897        4.814        0.709      284.285       48.725        0.029      337.135        8.901      866.644
01/21/2015  15:06:00      140.108       91.477       74.434      103.256       64.450       65.071    10661.846     4153.775     4234.195        2.629        0.952      167.327       47.895        0.082      337.388        9.327      866.637
01/21/2015  15:07:00      124.287      140.722      108.017      113.352       91.389       88.423    12848.582     8351.870     7818.547        3.796        1.451      187.750       82.608        0.194      337.303        9.183      866.634
01/21/2015  15:08:00      147.962       91.093       29.230      125.657       92.998       56.556    15789.632     8648.684     3198.609        2.934        1.382      173.755       52.467        0.091      337.145        8.920      866.634
01/21/2015  15:09:00      183.404      129.708       59.961      112.784       83.051       60.773    12720.197     6897.457     3693.368        3.868        1.166      224.636       42.261        0.035      337.278        9.143      866.619
01/21/2015  15:10:00       44.861      115.163      128.764       80.389       85.710       88.730     6462.349     7346.241     7873.053        2.676        1.084      123.592       76.106        0.379      337.307        9.191      866.603
01/21/2015  15:11:00      141.777      114.577       83.432       89.032       68.755       75.371     7926.683     4727.218     5680.746        2.926        0.917      182.288       58.947        0.105      337.389        9.326      866.593
01/21/2015  15:12:00      129.383       80.510       64.885       96.289      109.850       81.214     9271.570    12067.063     6595.758        2.768        1.397      152.387       62.579        0.169      337.383        9.319      866.581
01/21/2015  15:13:00      145.797      114.763      122.729      101.877       86.929       75.320    10378.841     7556.647     5673.058        3.655        1.180      185.546       67.605        0.133      337.392        9.333      866.580
01/21/2015  15:14:00      151.321      124.447      141.411      124.839      116.513      107.048    15584.734    13575.174    11459.217        4.949        2.031      195.921       86.868        0.197      337.305        9.187      866.563
01/21/2015  15:15:00      172.120       80.600      106.669      120.835       80.941       75.970    14601.203     6551.507     5771.505        3.721        1.346      190.056       69.906        0.135      337.201        9.013      866.554
01/21/2015  15:16:00      203.062      211.525      118.201      150.682       89.118       94.723    22704.977     7941.944     8972.513        6.978        1.981      293.218      101.221        0.119      337.264        9.117      866.556
01/21/2015  15:17:00      166.451      111.560       73.766      107.488       81.023       75.333    11553.745     6564.773     5675.135        3.469        1.190      200.379       62.487        0.097      337.254        9.102      866.566
01/21/2015  15:18:00      111.220      106.137       97.607      112.175       66.465       72.366    12583.167     4417.558     5236.788        2.770        1.112      153.737       61.254        0.159      337.164        8.950      866.556
01/21/2015  15:19:00      115.203      163.895       96.683       72.277       63.264       92.927     5224.001     4002.338     8635.418        3.367        0.893      200.333       59.022        0.087      337.278        9.142      866.568
01/21/2015  15:20:00      260.861      170.566       56.027      107.424       81.271       67.893    11539.891     6604.934     4609.512        6.151        1.138      311.675       46.090        0.022      337.261        9.114      866.592
01/21/2015  15:21:00      181.241      103.633       57.161      147.624       96.909       74.806    21792.853     9391.312     5595.945        4.181        1.839      208.778       41.755        0.040      337.258        9.109      866.600
01/21/2015  15:22:00       52.033       62.607       48.252       96.564       78.269       49.346     9324.565     6126.017     2434.986        1.342        0.894       81.407       40.116        0.243      337.423        9.385      866.612
01/21/2015  15:23:00      113.263       68.152       51.846       94.049       78.203       62.959     8845.277     6115.729     3963.806        1.954        0.946      132.186       60.170        0.207      337.450        9.431      866.627
01/21/2015  15:24:00      188.114      115.847       37.395       85.662       77.305       52.909     7337.975     5976.005     2799.395        3.316        0.806      220.924       23.515        0.011      337.421        9.380      866.627
01/21/2015  15:25:00      268.068      179.343       31.810      146.508      106.893       91.037    21464.691    11426.203     8287.813        7.310        2.059      322.529       53.093        0.027      337.263        9.116      866.615
01/21/2015  15:26:00      270.274      212.754       19.981      176.581      129.140       95.774    31180.949    16677.065     9172.725        8.786        2.852      343.966       57.211        0.028      337.108        8.856      866.589
01/21/2015  15:27:00      250.062      180.494       37.209      141.092       86.090       79.643    19907.010     7411.429     6343.072        6.507        1.683      308.397       56.235        0.033      337.187        8.990      866.589
01/21/2015  15:28:00      259.242      151.842       42.139       87.275       77.863       69.387     7616.929     6062.635     4814.601        5.526        0.925      300.437       36.335        0.015      337.327        9.222      866.616
01/21/2015  15:29:00       94.391      137.565      127.147      115.961       84.407       67.474    13446.983     7124.480     4552.759        3.456        1.256      166.834       60.171        0.130      337.449        9.428      866.619
01/21/2015  15:30:00      274.586      128.599       55.964      132.428       99.384       88.115    17537.131     9877.228     7764.174        6.512        1.759      303.208       71.420        0.055      337.189        8.991      866.631
01/21/2015  15:31:00      232.581       97.383       55.958      164.604      129.390       81.566    27094.370    16741.703     6652.947        5.859        2.524      252.146       65.997        0.069      337.123        8.881      866.627
01/21/2015  15:32:00      203.615      131.786       75.033      113.194      100.139       73.226    12812.778    10027.804     5362.089        4.632        1.410      242.542       47.558        0.038      337.189        8.993      866.637
01/21/2015  15:33:00      183.964      105.807       33.194      108.446       89.166       68.709    11760.438     7950.499     4720.968        3.528        1.222      212.221       50.273        0.056      337.238        9.076      866.663
01/21/2015  15:34:00      183.523      116.612       21.726      117.704       87.952       78.374    13854.179     7735.582     6142.469        3.774        1.387      217.437       39.577        0.033      337.292        9.166      866.661
01/21/2015  15:35:00      313.872      213.895       28.732      142.976      113.868       94.916    20442.146    12965.824     9009.127        9.375        2.121      379.825       64.745        0.029      337.072        8.796      866.656
01/21/2015  15:36:00      315.027      220.014       26.902      121.813       97.601       93.661    14838.426     9525.994     8772.452        9.075        1.657      384.250       56.447        0.022      337.007        8.687      866.637
01/21/2015  15:37:00      276.909      188.761       62.998      138.952       90.427       75.531    19307.727     8177.073     5704.859        7.473        1.659      335.126       63.204        0.036      337.081        8.810      866.615
01/21/2015  15:38:00      289.577      170.275       61.776      105.853       92.720       80.718    11204.901     8597.022     6515.379        7.149        1.316      335.929       54.810        0.027      337.070        8.792      866.614
01/21/2015  15:39:00      149.221       95.669       78.025      166.637      106.970       96.097    27767.794    11442.507     9234.697        4.297        2.422      177.255       98.484        0.309      337.150        8.929      866.607
01/21/2015  15:40:00      145.249       93.788       70.593      123.957       88.319       79.387    15365.354     7800.256     6302.317        3.217        1.473      172.897       68.619        0.158      337.225        9.053      866.630
01/21/2015  15:41:00      193.932      146.785       89.267      122.787       95.456       94.399    15076.658     9111.881     8911.264        5.011        1.655      243.219       78.480        0.104      337.198        9.008      866.646
01/21/2015  15:42:00      234.217      118.378       24.323       98.817       86.293       76.938     9764.857     7446.484     5919.398        4.629        1.157      262.433       54.367        0.043      337.208        9.025      866.682
01/21/2015  15:43:00      288.928      153.945       50.569      143.683      112.598       81.499    20644.878    12678.309     6642.023        7.484        1.998      327.382       41.358        0.016      337.112        8.863      866.674
01/21/2015  15:44:00      134.888      129.323        8.015      121.855       97.235       78.964    14848.596     9454.643     6235.312        3.276        1.527      186.867       62.637        0.112      337.134        8.902      866.662
01/21/2015  15:45:00      170.876      123.690       23.020      127.549       73.530       58.989    16268.779     5406.649     3479.711        3.509        1.258      210.946       42.996        0.042      337.176        8.972      866.664
01/21/2015  15:46:00      257.281      180.444       13.157      117.716       90.053       75.787    13857.112     8109.540     5743.612        6.331        1.386      314.250       47.950        0.023      337.118        8.872      866.656
01/21/2015  15:47:00      283.993      162.109       51.505      115.486      105.332       73.883    13336.924    11094.757     5458.748        6.973        1.495      327.003       50.185        0.024      337.140        8.909      866.661
01/21/2015  15:48:00      264.380      158.129       49.976      111.299       98.147       84.419    12387.547     9632.765     7126.623        6.327        1.457      308.061       54.371        0.031      337.082        8.812      866.658
01/21/2015  15:49:00      175.573      129.586       16.713      123.399       99.535       68.381    15227.226     9907.118     4675.937        3.885        1.491      218.216       53.927        0.061      337.070        8.793      866.650
01/21/2015  15:50:00      245.590      164.140       42.799      134.447       92.382       80.788    18076.114     8534.388     6526.770        6.111        1.657      295.392       46.837        0.025      337.070        8.791      866.642
01/21/2015  15:51:00      313.004      220.067       41.099      133.756       82.768       90.103    17890.793     6850.484     8118.509        9.047        1.643      382.624       59.757        0.024      337.062        8.777      866.652
01/21/2015  15:52:00      223.256      185.846       14.524      130.385       99.111       87.735    17000.243     9823.071     7697.415        5.955        1.726      290.485       62.318        0.046      337.002        8.678      866.662
01/21/2015  15:53:00      260.247      162.428       28.207      100.833       82.026       72.825    10167.309     6728.187     5303.551        5.855        1.110      306.776       23.785        0.006      337.042        8.745      866.681
01/21/2015  15:54:00      181.592      149.312       27.264      143.215      108.826       78.672    20510.607    11843.170     6189.213        4.727        1.927      235.096       60.590        0.066      337.059        8.775      866.685
01/21/2015  15:55:00      189.124      144.068       26.117      112.390       98.141       91.658    12631.498     9631.712     8401.145        4.393        1.533      237.747       63.576        0.072      337.022        8.712      866.681
01/21/2015  15:56:00      190.064      160.449       27.729      149.270       92.899       80.845    22281.643     8630.219     6535.980        5.004        1.872      248.733       54.905        0.049      337.009        8.691      866.679
01/21/2015  15:57:00      208.994      116.444       30.359      100.410       75.000       58.798    10082.172     5624.950     3457.201        3.866        0.958      239.244       43.638        0.033      337.078        8.805      866.660
01/21/2015  15:58:00      244.975      174.129       28.114      117.778       86.733       72.450    13871.698     7522.560     5248.949        5.888        1.332      300.556       43.876        0.021      337.027        8.721      866.643
01/21/2015  15:59:00      208.220      183.081       26.671      164.151       95.086       96.466    26945.412     9041.325     9305.701        6.143        2.265      277.262       68.695        0.061      337.021        8.710      866.643
01/21/2015  16:00:00      192.444      109.602       37.637      144.956      120.040       72.394    21012.118    14409.639     5240.883        4.556        2.033      221.466       51.869        0.055      337.092        8.829      866.655
01/21/2015  16:01:00      224.115       97.819       36.140      133.845      107.784       68.455    17914.483    11617.453     4686.117        4.765        1.711      244.532       47.735        0.038      337.075        8.801      866.650
01/21/2015  16:02:00      264.390      195.409       44.427      160.242      135.808      104.957    25677.494    18443.699    11016.007        8.259        2.757      328.766       73.712        0.050      336.975        8.634      866.643
01/21/2015  16:03:00      177.879      139.449       13.419      140.596       94.685       87.409    19767.235     8965.278     7640.283        4.381        1.819      226.025       54.795        0.059      336.995        8.668      866.642
01/21/2015  16:04:00      283.035      205.294       37.359      177.476      111.025      102.395    31497.821    12326.648    10484.667        8.897        2.715      349.649       61.034        0.030      336.940        8.576      866.655
01/21/2015  16:05:00      293.813      181.787       63.204      177.310      121.408      108.672    31438.819    14739.840    11809.602        9.067        2.899      345.504       74.109        0.046      336.886        8.485      866.649
01/21/2015  16:06:00      214.689      142.578       51.886      139.675      102.752       84.994    19509.233    10558.049     7223.918        5.320        1.865      257.721       52.077        0.041      336.921        8.542      866.668
01/21/2015  16:07:00      224.497      132.017       44.871      134.649       84.125       89.083    18130.351     7076.999     7935.736        5.149        1.657      260.438       45.401        0.030      336.919        8.540      866.665
01/21/2015  16:08:00      298.572      201.700       39.296      137.463       95.784       75.326    18895.970     9174.533     5674.037        8.255        1.687      360.317       40.809        0.013      336.873        8.463      866.668
01/21/2015  16:09:00      304.053      201.540       40.845      123.450      103.689       95.787    15239.943    10751.382     9175.200        8.494        1.758      364.783       40.583        0.012      336.903        8.514      866.664
01/21/2015  16:10:00      274.729      120.046       60.454      184.672      107.755       87.855    34103.915    11611.229     7718.457        7.348        2.672      299.812       91.472        0.093      336.911        8.526      866.658
01/21/2015  16:11:00      241.308      148.458       27.297      136.522      102.665       80.290    18638.132    10540.007     6446.437        5.831        1.781      283.319       43.360        0.023      336.941        8.576      866.654
01/21/2015  16:12:00      207.527      132.538       59.411      147.104      119.282       95.050    21639.474    14228.289     9034.452        5.453        2.245      246.239       65.190        0.070      336.930        8.560      866.648
01/21/2015  16:13:00      288.487      204.977       16.039      149.533      118.610       92.213    22360.015    14068.418     8503.151        8.521        2.247      353.893       79.100        0.050      336.825        8.384      866.647
01/21/2015  16:14:00      331.438      221.619       34.674      134.352      102.234       85.983    18050.576    10451.764     7393.056        9.803        1.795      398.705       46.676        0.014      336.842        8.411      866.643
01/21/2015  16:15:00      220.621      129.127       49.881      165.319       89.927       90.612    27330.213     8086.916     8210.612        5.572        2.181      255.631       79.711        0.097      336.848        8.422      866.658
01/21/2015  16:16:00      146.077      149.349       93.152      132.475       81.537       81.424    17549.669     6648.289     6629.927        4.157        1.541      208.911       69.840        0.112      336.901        8.511      866.671
01/21/2015  16:17:00      162.038      129.032       19.293      105.812       83.390       73.885    11196.230     6953.846     5459.015        3.344        1.180      207.137       53.990        0.068      336.911        8.528      866.681
01/21/2015  16:18:00      212.768      112.658       40.182      134.647       94.317       60.374    18129.901     8895.763     3645.048        4.512        1.534      240.753       40.621        0.028      336.893        8.497      866.704
01/21/2015  16:19:00      271.741      165.459       40.383      144.246      111.790       75.716    20806.965    12496.894     5732.898        7.094        1.952      318.150       30.935        0.009      336.837        8.403      866.718
01/21/2015  16:20:00      123.812      101.889       20.350       92.853       83.885       74.029     8621.698     7036.772     5480.362        2.363        1.057      160.346       54.091        0.114      336.838        8.408      866.740
01/21/2015  16:21:00      223.488      108.940       40.848      107.237       74.327       76.150    11499.712     5524.559     5798.808        4.315        1.141      248.626       29.346        0.014      336.786        8.318      866.756
01/21/2015  16:22:00      177.386      127.905       19.200      101.076       77.160       50.460    10216.337     5953.603     2546.219        3.345        0.936      218.690       26.915        0.015      336.776        8.303      866.781
01/21/2015  16:23:00      248.455      198.008       24.493      166.428      108.930       83.193    27698.291    11865.664     6921.137        7.400        2.324      317.706       41.512        0.017      336.691        8.161      866.790
01/21/2015  16:24:00      293.051      186.748       27.771      112.544       97.171       83.807    12666.176     9442.130     7023.669        7.532        1.457      347.496       30.414        0.008      336.701        8.178      866.797
01/21/2015  16:25:00      302.240      181.424       57.496      133.517       77.001       85.729    17826.757     5929.156     7349.424        7.933        1.555      352.511       35.816        0.010      336.659        8.108      866.813
01/21/2015  16:26:00      251.357      143.162       61.037      203.814      149.663      101.456    41540.165    22399.011    10293.411        8.080        3.712      289.268       47.857        0.027      336.604        8.014      866.793
01/21/2015  16:27:00      330.611      230.173       70.214      167.938      135.171       90.412    28203.140    18271.286     8174.370       11.092        2.732      402.844       61.595        0.023      336.587        7.988      866.800
01/21/2015  16:28:00      243.528      130.210       34.228      136.791      107.868       91.747    18711.729    11635.442     8417.537        5.809        1.938      276.153       61.530        0.050      336.592        7.996      866.796
01/21/2015  16:29:00      166.673      103.001       55.807      110.340       70.271       63.256    12174.923     4938.013     4001.376        3.131        1.056      195.932       52.631        0.072      336.606        8.020      866.823
01/21/2015  16:30:00      184.980       71.830       57.797      112.078       82.824       79.999    12561.557     6859.860     6399.855        3.427        1.291      198.436       61.399        0.096      336.585        7.984      866.826
01/21/2015  16:31:00      180.194      102.171       42.600      117.181       88.119       69.186    13731.446     7765.000     4786.702        3.550        1.314      207.144       55.480        0.072      336.550        7.925      866.824
01/21/2015  16:32:00      295.722      215.475       18.807      121.913      103.094       80.390    14862.800    10628.288     6462.484        8.309        1.598      365.898       40.934        0.013      336.528        7.887      866.845
01/21/2015  16:33:00      247.791      152.817       23.854      105.931       79.937       78.665    11221.482     6389.895     6188.124        5.456        1.190      291.124       34.222        0.014      336.503        7.845      866.860
01/21/2015  16:34:00      197.419       85.506       37.974      102.802       89.676       57.925    10568.170     8041.715     3355.316        3.484        1.098      215.141       30.868        0.021      336.487        7.819      866.868
01/21/2015  16:35:00      435.085      296.139       67.322      114.272      111.378       89.706    13058.099    12405.106     8047.254       15.751        1.676      526.305       54.661        0.011      336.411        7.690      866.875
01/21/2015  16:36:00      310.374      214.177       79.987      135.103      105.719       81.925    18252.851    11176.485     6711.695        9.237        1.807      377.099       51.221        0.018      336.389        7.653      866.871
01/21/2015  16:37:00      192.881      139.619       20.876      115.901       84.768       74.310    13432.974     7185.599     5522.048        4.163        1.307      238.110       20.282        0.007      336.404        7.680      866.907
01/21/2015  16:38:00      217.624      149.498       48.701      113.200       87.988       60.175    12814.280     7741.829     3621.058        4.813        1.209      264.026       28.477        0.012      336.408        7.685      866.900
01/21/2015  16:39:00      302.241      207.100       44.155       97.673       87.762       68.430     9540.001     7702.182     4682.701        7.905        1.096      366.388       30.832        0.007      336.402        7.674      866.893
01/21/2015  16:40:00      178.101      113.390       26.168       97.331       73.095       68.630     9473.266     5342.844     4710.143        3.239        0.976      211.134       41.050        0.038      336.381        7.643      866.907
01/21/2015  16:41:00      196.025       84.341       17.361      122.472       78.606       73.194    14999.387     6178.960     5357.405        3.618        1.327      213.399       47.242        0.049      336.381        7.640      866.900
01/21/2015  16:42:00      200.897      132.803       17.781      125.986       92.102       79.095    15872.532     8482.743     6256.077        4.446        1.531      240.824       37.117        0.024      336.357        7.599      866.905
01/21/2015  16:43:00      237.315      147.419       36.853      118.900       85.148       71.160    14137.112     7250.237     5063.763        5.293        1.323      279.376       24.141        0.007      336.339        7.568      866.909
01/21/2015  16:44:00      237.114      123.753       33.425       87.075       91.557       63.210     7582.122     8382.599     3995.533        4.630        0.998      267.466       17.887        0.004      336.309        7.520      866.916
01/21/2015  16:45:00      161.099      123.562       42.377      119.547       86.246       69.250    14291.473     7438.394     4795.617        3.477        1.326      203.028       67.997        0.112      336.274        7.462      866.918
01/21/2015  16:46:00      299.583      174.530       63.479      178.027      104.795       76.208    31693.501    10981.970     5807.702        8.635        2.424      346.714       60.798        0.031      336.243        7.412      866.934
01/21/2015  16:47:00      254.751      124.423       36.481      103.484       89.172       58.082    10709.016     7951.582     3373.542        5.187        1.102      283.512       20.447        0.005      336.221        7.374      866.937
01/21/2015  16:48:00      297.171      196.887       42.603      132.532       90.992       74.948    17564.826     8279.501     5617.176        8.017        1.573      356.476       43.884        0.015      336.180        7.305      866.951
01/21/2015  16:49:00      226.321      167.325       22.867       97.144       81.959       77.584     9436.913     6717.244     6019.298        5.095        1.109      281.458       44.061        0.025      336.133        7.226      866.939
01/21/2015  16:50:00      299.198      213.829       14.658       95.782       80.781       69.953     9174.235     6525.523     4893.396        7.802        1.030      367.753       22.373        0.004      336.121        7.208      866.946
01/21/2015  16:51:00      214.409      127.209       40.234      141.752      102.299       75.937    20093.653    10465.027     5766.482        5.004        1.816      249.306       40.469        0.026      336.097        7.167      866.927
01/21/2015  16:52:00      228.233      129.844       48.639      101.628       92.014       65.736    10328.257     8466.620     4321.171        4.721        1.156      262.583       23.034        0.008      336.085        7.148      866.919
01/21/2015  16:53:00      198.768      137.976       13.907       92.816       78.198       65.389     8614.775     6114.884     4275.748        3.887        0.950      241.963       54.227        0.050      336.064        7.112      866.934
01/21/2015  16:54:00      188.087      132.244       24.765      105.458       68.308       71.803    11121.358     4666.021     5155.619        3.721        1.047      229.924       50.322        0.048      336.040        7.071      866.944
01/21/2015  16:55:00      203.327      151.045       24.011      147.911       84.742       85.576    21877.668     7181.135     7323.304        5.055        1.819      253.291       32.245        0.016      336.027        7.050      866.954
01/21/2015  16:56:00      282.673      200.255       35.071      127.499       83.399       71.639    16255.933     6955.363     5132.207        7.479        1.417      346.419       26.304        0.006      336.003        7.010      866.950
01/21/2015  16:57:00      228.069      179.973       20.140      115.681       82.082       86.193    13382.154     6737.390     7429.288        5.618        1.377      290.527       58.568        0.041      335.993        6.994      866.969
01/21/2015  16:58:00      260.283      174.456       29.322      112.123       79.034       58.290    12571.619     6246.423     3397.685        6.062        1.111      313.340       28.997        0.009      335.967        6.948      866.973
01/21/2015  16:59:00      149.943       96.103        8.897       98.706       71.701       54.537     9742.830     5141.041     2974.233        2.482        0.893      178.097       39.251        0.049      335.938        6.903      866.975
01/21/2015  17:00:00      126.651       91.813       16.942       68.651       40.178       42.901     4712.966     1614.310     1840.480        1.646        0.408      156.429       15.361        0.010      335.913        6.861      866.989
01/21/2015  17:01:00      127.898      123.737       18.354       95.097       89.831       64.250     9043.485     8069.617     4128.065        2.662        1.062      177.957       46.986        0.070      335.936        6.900      867.000
01/21/2015  17:02:00      226.072      168.740       42.065      114.866       64.352       67.895    13194.219     4141.172     4609.693        5.164        1.097      282.103       48.298        0.029      335.904        6.843      867.013
01/21/2015  17:03:00      135.828      102.559       10.314      106.216       86.078       58.244    11281.782     7409.447     3392.382        2.558        1.104      170.198       41.227        0.059      335.878        6.802      867.032
01/21/2015  17:04:00      189.230      124.244       14.337      114.704       66.663       64.614    13157.029     4443.968     4174.992        3.661        1.089      226.373       41.387        0.033      335.867        6.784      867.045
01/21/2015  17:05:00       69.038       64.232       21.294       59.395       46.211       41.082     3527.765     2135.452     1687.762        0.835        0.368       94.297       21.304        0.051      335.814        6.698      867.055
01/21/2015  17:06:00      172.472      105.513       17.026      120.969       83.955       58.084    14633.513     7048.427     3373.763        3.311        1.253      202.187       35.205        0.030      335.849        6.754      867.067
01/21/2015  17:07:00      137.469      123.870        1.139       93.679       89.276       78.011     8775.701     7970.127     6085.727        2.853        1.142      185.045       60.200        0.106      335.814        6.695      867.074
01/21/2015  17:08:00      155.078      107.327       12.062       64.673       64.959       57.075     4182.553     4219.634     3257.597        2.368        0.583      188.596       31.415        0.028      335.815        6.698      867.089
01/21/2015  17:09:00      164.232      110.632       20.874       85.684       69.645       46.964     7341.730     4850.378     2205.632        2.702        0.720      198.020       31.043        0.025      335.832        6.726      867.107
01/21/2015  17:10:00      107.873       70.958        8.587       74.826       62.825       40.802     5598.896     3947.009     1664.789        1.398        0.561      129.119       23.665        0.034      335.791        6.659      867.137
01/21/2015  17:11:00       52.014       69.228        5.556       69.867       59.993       46.534     4881.389     3599.159     2165.388        0.909        0.532       86.591       40.284        0.216      335.739        6.574      867.150
01/21/2015  17:12:00      162.989      109.742       12.791       78.750       68.873       62.304     6201.556     4743.551     3881.787        2.680        0.741      196.490       39.842        0.041      335.765        6.614      867.153
01/21/2015  17:13:00      132.654       96.195       25.417       93.779       74.058       57.146     8794.546     5484.602     3265.620        2.252        0.877      163.861       39.252        0.057      335.771        6.623      867.162
01/21/2015  17:14:00       92.265      103.238        3.616       78.034       49.247       45.822     6089.310     2425.239     2099.615        1.490        0.531      138.459       32.114        0.054      335.722        6.544      867.162
01/21/2015  17:15:00      168.333      109.454       31.568      110.502       65.972       51.618    12210.801     4352.307     2664.385        3.027        0.961      200.789       39.067        0.038      335.738        6.571      867.147
01/21/2015  17:16:00      108.478       92.658        7.295       74.703       56.220       52.180     5580.502     3160.687     2722.772        1.593        0.573      142.664       31.366        0.048      335.729        6.556      867.147
01/21/2015  17:17:00       77.108       92.316        7.407       62.174       45.495       43.943     3865.580     2069.787     1931.015        1.119        0.393      120.282       31.453        0.068      335.690        6.493      867.155
01/21/2015  17:18:00       81.631       84.431        8.076       60.616       44.367       35.246     3674.316     1968.390     1242.294        1.037        0.344      117.440       29.219        0.062      335.655        6.434      867.163
01/21/2015  17:19:00      152.989      125.476       23.557       83.965       62.263       53.878     7050.073     3876.736     2902.864        2.676        0.691      197.863       34.378        0.030      335.693        6.493      867.174
01/21/2015  17:20:00      128.232       72.270       14.196       59.181       44.522       35.063     3502.382     1982.178     1229.408        1.429        0.336      147.195       24.534        0.028      335.669        6.457      867.186
01/21/2015  17:21:00       53.059       53.045        3.031       40.376       34.928       31.056     1630.214     1219.970      964.503        0.473        0.191       75.027       16.096        0.046      335.622        6.380      867.195
01/21/2015  17:22:00       62.802       60.372        1.855       68.910       55.063       41.876     4748.581     3031.912     1753.637        0.856        0.477       87.114       37.259        0.183      335.648        6.422      867.195
01/21/2015  17:23:00      146.793      109.101       -0.993       66.575       48.774       38.630     4432.165     2378.856     1492.257        2.088        0.415      182.897       27.093        0.022      335.676        6.467      867.210
01/21/2015  17:24:00       72.520       58.773        9.273       54.520       38.948       23.561     2972.378     1516.975      555.139        0.692        0.252       93.346       18.714        0.040      335.627        6.388      867.225
01/21/2015  17:25:00      112.373      108.871        9.660       61.156       39.121       38.350     3740.100     1530.473     1470.705        1.566        0.337      156.463       24.233        0.024      335.634        6.398      867.227
01/21/2015  17:26:00       53.894       65.989       -1.565       33.921       41.609       33.031     1150.650     1731.296     1091.062        0.562        0.199       85.200       27.570        0.105      335.586        6.319      867.235
01/21/2015  17:27:00       84.724       86.628        2.890       63.844       59.656       43.381     4076.077     3558.898     1881.877        1.210        0.476      121.171       37.637        0.096      335.552        6.262      867.243
01/21/2015  17:28:00      171.245      113.423       36.447       87.869       50.539       45.809     7720.954     2554.150     2098.485        2.794        0.619      205.401       30.091        0.021      335.571        6.291      867.250
01/21/2015  17:29:00       60.717       64.149       13.462       66.553       43.659       37.535     4429.345     1906.120     1408.845        0.786        0.387       88.327       27.482        0.097      335.488        6.156      867.255
01/21/2015  17:30:00       62.226       87.797       -4.363       73.267       61.663       38.233     5368.031     3802.368     1461.726        1.111        0.532      107.613       33.400        0.096      335.531        6.227      867.266
01/21/2015  17:31:00       54.821       68.700       13.758       44.893       44.718       36.442     2015.418     1999.723     1327.988        0.663        0.267       87.892       30.888        0.123      335.519        6.208      867.279
01/21/2015  17:32:00       60.920       63.487        9.819       50.080       50.977       43.661     2508.009     2598.648     1906.288        0.742        0.351       87.988       28.822        0.107      335.514        6.199      867.307
01/21/2015  17:33:00       95.162       77.143        4.988       72.156       44.001       38.755     5206.517     1936.097     1501.969        1.184        0.432      122.503       31.624        0.067      335.509        6.190      867.336
01/21/2015  17:34:00       67.645       94.703        0.204       55.513       74.043       47.365     3081.743     5482.302     2243.472        1.217        0.540      116.381       42.122        0.131      335.502        6.178      867.354
01/21/2015  17:35:00       63.067      103.450       -8.155       71.202       68.236       39.449     5069.760     4656.102     1556.215        1.301        0.564      121.158       33.474        0.076      335.456        6.101      867.369
01/21/2015  17:36:00       60.175       78.485       -3.441       62.535       60.979       48.651     3910.591     3718.426     2366.890        0.989        0.500       98.899       37.675        0.145      335.440        6.075      867.390
01/21/2015  17:37:00       42.464       76.736       -0.714       58.077       62.926       42.988     3372.991     3959.654     1847.969        0.843        0.459       87.702       33.367        0.145      335.424        6.047      867.403
01/21/2015  17:38:00       59.190       78.419        6.367       55.877       51.249       39.060     3122.256     2626.509     1525.710        0.848        0.364       98.250       34.049        0.120      335.447        6.086      867.426
01/21/2015  17:39:00       67.389       96.698       11.304       60.966       69.622       47.796     3716.810     4847.228     2284.432        1.243        0.542      117.863       42.714        0.131      335.418        6.039      867.444
01/21/2015  17:40:00       28.606      124.785       -4.849       47.447       68.718       42.479     2251.199     4722.122     1804.435        1.259        0.439      128.021       39.274        0.094      335.382        5.977      867.465
01/21/2015  17:41:00       30.845      115.961      -12.142       36.935       66.500       32.242     1364.177     4422.309     1039.555        1.068        0.341      119.993       35.678        0.088      335.340        5.908      867.496
01/21/2015  17:42:00       39.072      109.629       -0.779       45.831       71.977       42.613     2100.441     5180.641     1815.882        1.132        0.455      116.383       40.859        0.123      335.320        5.874      867.508
01/21/2015  17:43:00       28.172      182.292      -22.811       53.151       96.551       38.907     2825.027     9322.086     1513.718        2.410        0.683      184.456       38.628        0.044      335.311        5.860      867.519
01/21/2015  17:44:00       41.877      108.343       -3.759       49.746       71.666       48.725     2474.618     5136.048     2374.129        1.174        0.499      116.155       48.062        0.171      335.286        5.817      867.523
01/21/2015  17:45:00       47.035       75.348       -1.718       50.310       45.019       34.184     2531.115     2026.706     1168.536        0.681        0.286       88.823       26.634        0.090      335.241        5.742      867.522
01/21/2015  17:46:00       64.385      119.247        1.185       56.939       83.959       49.697     3242.093     7049.180     2469.821        1.556        0.638      135.518       49.756        0.135      335.266        5.784      867.508
01/21/2015  17:47:00       26.686       81.000       -0.141       42.955       53.418       34.792     1845.164     2853.472     1210.498        0.659        0.295       85.283       31.353        0.135      335.225        5.716      867.508
01/21/2015  17:48:00       54.545      123.629       -4.646       67.974       82.516       48.849     4620.418     6808.853     2386.191        1.605        0.691      135.127       49.495        0.134      335.218        5.704      867.498
01/21/2015  17:49:00       48.361      153.396      -16.869       49.296       86.381       52.514     2430.096     7461.617     2757.738        1.940        0.632      160.839       51.698        0.103      335.202        5.676      867.501
01/21/2015  17:50:00       72.620      104.312       -3.170       66.777       76.138       41.072     4459.185     5796.960     1686.907        1.405        0.597      127.100       41.287        0.106      335.202        5.679      867.500
01/21/2015  17:51:00      112.820      105.634        6.680       71.202       47.774       40.454     5069.793     2282.379     1636.489        1.646        0.449      154.554       29.124        0.036      335.220        5.707      867.514
01/21/2015  17:52:00       76.074       82.943        1.615       59.530       57.775       38.801     3543.837     3337.989     1505.489        1.053        0.419      112.547       27.912        0.062      335.202        5.678      867.516
01/21/2015  17:53:00       87.232       87.428        1.595       72.532       48.957       47.523     5260.828     2396.822     2258.429        1.258        0.496      123.503       36.038        0.085      335.194        5.665      867.511
01/21/2015  17:54:00       68.410       59.070       16.818       52.113       36.202       34.621     2715.770     1310.618     1198.592        0.684        0.261       90.384       15.489        0.029      335.144        5.582      867.510
01/21/2015  17:55:00       88.298       70.237       13.625       70.244       39.436       38.856     4934.218     1555.182     1509.786        1.046        0.400      112.826       24.564        0.047      335.175        5.634      867.527
01/21/2015  17:56:00       41.401       63.061        6.426       53.682       47.222       38.612     2881.775     2229.935     1490.871        0.617        0.330       75.437       30.282        0.161      335.162        5.612      867.531
01/21/2015  17:57:00       97.451       81.936       15.241       69.726       45.795       41.490     4861.704     2097.167     1721.401        1.256        0.434      127.319       36.249        0.081      335.178        5.638      867.553
01/21/2015  17:58:00       78.147       70.874       10.632       75.949       44.890       42.604     5768.238     2015.098     1815.066        1.042        0.480      105.499       24.129        0.052      335.158        5.607      867.564
01/21/2015  17:59:00      115.222       67.914       17.097       45.541       42.611       30.881     2073.984     1815.664      953.661        1.151        0.242      133.747       26.904        0.040      335.142        5.578      867.575
01/21/2015  18:00:00       67.981       58.715       -3.347       41.182       39.482       30.987     1695.983     1558.817      960.215        0.615        0.211       89.827       22.424        0.062      335.124        5.551      867.575
01/21/2015  18:01:00       72.650       84.001        1.545       62.198       44.135       35.111     3868.593     1947.859     1232.776        0.969        0.352      111.060       27.395        0.061      335.170        5.627      867.576
01/21/2015  18:02:00       62.373      109.122      -11.492       48.304       68.395       39.624     2333.302     4677.900     1570.049        1.225        0.429      125.691       37.591        0.089      335.144        5.583      867.578
01/21/2015  18:03:00      106.274       89.189       17.974       68.802       38.210       39.711     4733.697     1460.008     1576.953        1.367        0.389      138.740       26.180        0.036      335.141        5.579      867.592
01/21/2015  18:04:00       59.011      127.860      -12.946       46.691       81.368       44.271     2180.045     6620.829     1959.894        1.538        0.538      140.821       44.639        0.100      335.120        5.543      867.593
01/21/2015  18:05:00      101.059       88.901        5.209       74.679       61.344       61.902     5577.003     3763.049     3831.910        1.566        0.659      134.596       47.709        0.126      335.135        5.568      867.589
01/21/2015  18:06:00       70.627      106.564       -5.838       70.124       51.133       43.015     4917.431     2614.611     1850.309        1.288        0.469      127.845       37.348        0.085      335.121        5.546      867.597
01/21/2015  18:07:00       78.087       87.431        4.063       60.909       48.509       44.507     3709.879     2353.095     1980.873        1.090        0.402      117.226       36.594        0.097      335.118        5.541      867.592
01/21/2015  18:08:00       36.751       97.935      -12.830       44.906       67.024       33.103     2016.520     4492.197     1095.823        0.935        0.380      104.604       29.973        0.082      335.068        5.457      867.609
01/21/2015  18:09:00       12.710      110.502      -14.845       41.111       51.172       23.784     1690.122     2618.612      565.701        0.873        0.244      111.231       23.459        0.044      335.081        5.479      867.612
01/21/2015  18:10:00       32.762      125.779       -7.336       42.231       81.770       42.278     1783.443     6686.255     1787.398        1.360        0.513      129.976       42.223        0.106      335.043        5.416      867.629
01/21/2015  18:11:00       37.338       68.182       -8.035       49.709       48.700       35.362     2470.979     2371.677     1250.466        0.610        0.305       77.737       34.481        0.197      335.040        5.412      867.625
01/21/2015  18:12:00       42.457       77.368        7.466       45.026       52.992       37.671     2027.338     2808.139     1419.101        0.705        0.313       88.252       35.030        0.158      334.998        5.341      867.634
01/21/2015  18:13:00       54.301       65.467        1.505       36.717       34.436       24.222     1348.144     1185.839      586.707        0.518        0.156       85.057       20.919        0.060      334.998        5.342      867.637
01/21/2015  18:14:00       49.286       81.528        3.027       46.226       59.806       35.663     2136.834     3576.705     1271.869        0.803        0.349       95.267       29.411        0.095      334.950        5.261      867.661
01/21/2015  18:15:00       43.046       73.652        2.219       51.786       78.717       40.523     2681.783     6196.291     1642.092        0.890        0.526       85.309       38.439        0.203      334.962        5.281      867.668
01/21/2015  18:16:00       36.388       91.050        5.678       56.963       70.601       35.645     3244.837     4984.454     1270.572        0.957        0.475       98.052       37.650        0.147      334.946        5.254      867.683
01/21/2015  18:17:00       58.427      116.239       -9.162       63.059       73.684       52.390     3976.449     5429.324     2744.674        1.458        0.608      130.097       43.013        0.109      334.996        5.337      867.689
01/21/2015  18:18:00       13.806      106.906      -10.627       39.547       52.629       26.317     1563.928     2769.770      692.584        0.838        0.251      107.794       28.264        0.069      334.975        5.303      867.707
01/21/2015  18:19:00       -3.094      150.220      -19.521       27.049       32.402       18.965      731.658     1049.903      359.660        1.255        0.107      150.252       13.194        0.008      334.973        5.300      867.720
01/21/2015  18:20:00      -20.550      171.501      -27.034       37.502       54.868       24.756     1406.393     3010.477      612.844        1.780        0.251      172.727       30.542        0.031      334.947        5.254      867.736
01/21/2015  18:21:00       -0.213      295.763      -43.118       53.148       61.452       29.524     2824.730     3776.355      871.641        4.840        0.374      295.763       36.217        0.015      334.947        5.252      867.750
01/21/2015  18:22:00       10.020      194.250      -16.590       38.968       47.539       31.287     1518.494     2259.956      978.870        2.143        0.238      194.508       27.351        0.020      334.911        5.194      867.753
01/21/2015  18:23:00       -7.922      194.282      -29.724       51.691       45.002       24.125     2671.942     2025.201      582.026        2.198        0.264      194.443       22.359        0.013      334.924        5.216      867.775
01/21/2015  18:24:00       11.857      218.435      -31.977       32.822       42.255       18.941     1077.311     1785.489      358.748        2.605        0.161      218.757       12.656        0.003      334.950        5.260      867.796
01/21/2015  18:25:00      -17.653      203.659      -25.058       47.751       62.175       30.074     2280.164     3865.724      904.444        2.473        0.353      204.423       32.939        0.026      334.916        5.202      867.812
01/21/2015  18:26:00      -10.939      239.377      -36.478       38.634       44.360       21.541     1492.599     1967.775      464.008        3.134        0.196      239.627       18.698        0.006      334.919        5.206      867.836
01/21/2015  18:27:00      -11.123      220.444      -29.129       36.096       62.832       19.893     1302.893     3947.874      395.733        2.761        0.282      220.724       19.304        0.008      334.943        5.247      867.853
01/21/2015  18:28:00       -4.069      178.048      -25.384       31.355       38.525       19.299      983.110     1484.199      372.469        1.760        0.142      178.095       10.922        0.004      334.927        5.221      867.877
01/21/2015  18:29:00       15.190      208.575      -30.097       34.160       32.814       23.561     1166.926     1076.754      555.138        2.372        0.140      209.127       15.344        0.005      334.875        5.134      867.896
01/21/2015  18:30:00       22.545      165.182       -9.131       43.877       71.484       38.765     1925.212     5109.965     1502.698        1.821        0.427      166.714       44.362        0.071      334.872        5.130      867.902
01/21/2015  18:31:00        3.828      167.725      -22.443       38.005       56.016       20.946     1444.366     3137.762      438.746        1.683        0.251      167.769       25.721        0.024      334.868        5.122      867.922
01/21/2015  18:32:00       34.255      145.442      -20.166       43.956       49.263       22.355     1932.112     2426.854      499.750        1.380        0.243      149.422       15.732        0.011      334.833        5.066      867.936
01/21/2015  18:33:00       19.368      139.930      -17.078       36.701       60.721       33.098     1346.955     3687.022     1095.480        1.319        0.306      141.264       36.634        0.067      334.788        4.991      867.951
01/21/2015  18:34:00       28.822      155.265      -22.442       43.001       44.891       28.555     1849.071     2015.211      815.401        1.506        0.234      157.917       25.821        0.027      334.792        4.998      867.973
01/21/2015  18:35:00       18.783      164.266      -20.503       32.998       53.267       30.147     1088.879     2837.353      908.841        1.629        0.242      165.336       28.131        0.029      334.824        5.051      867.980
01/21/2015  18:36:00       25.347      159.948      -20.672       30.486       31.197       22.334      929.405      973.271      498.796        1.453        0.120      161.944       12.286        0.006      334.804        5.019      867.994
01/21/2015  18:37:00        8.032      167.371      -25.909       32.653       41.908       21.216     1066.237     1756.262      450.112        1.601        0.164      167.564       19.189        0.013      334.793        4.999      868.004
01/21/2015  18:38:00        9.615      208.271      -29.268       26.384       40.273       24.595      696.127     1621.924      604.938        2.362        0.146      208.493       14.048        0.005      334.853        5.097      868.009
01/21/2015  18:39:00       16.758      162.486      -27.576       30.038       47.579       19.622      902.263     2263.797      385.029        1.550        0.178      163.348       18.684        0.013      334.809        5.025      868.009
01/21/2015  18:40:00       -5.574      171.211      -19.682       32.337       53.887       26.758     1045.684     2903.860      716.004        1.720        0.233      171.302       22.601        0.017      334.757        4.939      868.021
01/21/2015  18:41:00       23.577      172.447      -31.393       31.800       56.156       26.152     1011.259     3153.537      683.924        1.806        0.242      174.052       30.832        0.031      334.749        4.925      868.020
01/21/2015  18:42:00        6.029       82.637       -2.204       31.368       77.537       28.730      983.931     6011.920      825.399        0.734        0.391       82.857       39.805        0.231      334.662        4.783      868.029
01/21/2015  18:43:00       24.390      162.933      -19.717       39.325       62.696       32.665     1546.443     3930.784     1066.987        1.704        0.327      164.748       34.634        0.044      334.690        4.827      868.041
01/21/2015  18:44:00       42.829      147.265      -19.692       33.147       51.844       31.272     1098.704     2687.784      977.913        1.434        0.238      153.367       28.238        0.034      334.640        4.746      868.039
01/21/2015  18:45:00       30.626      137.963      -17.241       40.555       74.591       37.295     1644.680     5563.839     1390.921        1.443        0.430      141.321       40.863        0.084      334.622        4.714      868.046
01/21/2015  18:46:00       19.373      154.238      -14.620       40.332       79.813       34.312     1626.696     6370.139     1177.292        1.677        0.459      155.450       39.664        0.065      334.663        4.783      868.045
01/21/2015  18:47:00       16.306      152.453      -19.342       42.232       42.595       32.126     1783.514     1814.306     1032.068        1.426        0.231      153.323       27.946        0.033      334.602        4.681      868.040
01/21/2015  18:48:00       18.454      172.904      -19.900       44.416       69.089       31.288     1972.814     4773.248      978.959        1.918        0.386      173.886       32.668        0.035      334.608        4.691      868.051
01/21/2015  18:49:00       28.104      194.379      -33.311       38.074       44.656       21.040     1449.614     1994.141      442.686        2.178        0.194      196.400       17.142        0.008      334.639        4.741      868.048
01/21/2015  18:50:00       13.359      178.800      -18.394       45.735       84.427       43.978     2091.706     7127.893     1934.057        2.182        0.558      179.298       49.618        0.077      334.622        4.713      868.046
01/21/2015  18:51:00        2.237      185.952      -22.435       43.326       75.956       36.212     1877.182     5769.348     1311.296        2.202        0.448      185.965       34.715        0.035      334.587        4.654      868.056
01/21/2015  18:52:00       31.616       94.882        4.902       53.141       70.132       40.620     2824.007     4918.491     1649.944        0.971        0.470      100.011       42.751        0.183      334.529        4.560      868.064
01/21/2015  18:53:00       17.712       79.023       -4.247       36.066       60.068       24.487     1300.791     3608.214      599.614        0.604        0.275       80.984       27.337        0.114      334.523        4.550      868.061
01/21/2015  18:54:00       -3.853      122.752       -9.308       27.825       54.011       28.503      774.254     2917.229      812.395        0.984        0.225      122.812       27.793        0.051      334.554        4.603      868.068
01/21/2015  18:55:00       18.358      142.997      -11.351       38.187       65.188       32.192     1458.260     4249.532     1036.351        1.383        0.337      144.171       35.887        0.062      334.530        4.561      868.072
01/21/2015  18:56:00       23.030      127.060       -7.948       38.328       64.733       38.857     1469.053     4190.425     1509.899        1.195        0.358      129.130       39.581        0.094      334.512        4.532      868.079
01/21/2015  18:57:00       22.475       64.721        9.980       42.573       53.483       37.098     1812.426     2860.475     1376.259        0.542        0.302       68.513       35.006        0.261      334.429        4.396      868.077
01/21/2015  18:58:00       56.424      138.187      -22.467       47.721       68.995       41.474     2277.294     4760.319     1720.076        1.577        0.438      149.262       42.510        0.081      334.519        4.543      868.069
01/21/2015  18:59:00       24.090       89.940        2.988       31.927       58.814       37.579     1019.351     3459.137     1412.216        0.728        0.295       93.110       39.052        0.176      334.447        4.426      868.068
01/21/2015  19:00:00       27.220       91.587      -10.686       40.109       59.102       35.272     1608.710     3493.087     1244.136        0.779        0.317       95.546       32.808        0.118      334.444        4.420      868.064
01/21/2015  19:01:00       29.718      115.296      -10.338       35.739       64.859       36.731     1277.254     4206.648     1349.173        1.056        0.342      119.064       36.368        0.093      334.416        4.374      868.076
01/21/2015  19:02:00        4.661      151.965      -16.254       39.277       90.390       31.774     1542.701     8170.429     1009.586        1.705        0.536      152.037       44.621        0.086      334.463        4.450      868.086
01/21/2015  19:03:00       33.785      139.043       -9.005       43.684       89.398       39.635     1908.298     7992.030     1570.934        1.601        0.574      143.089       49.142        0.118      334.424        4.386      868.102
01/21/2015  19:04:00       39.185       72.667       -1.282       50.219       63.203       41.182     2521.933     3994.654     1695.926        0.751        0.411       82.559       40.735        0.243      334.432        4.402      868.139
01/21/2015  19:05:00       32.972       49.803        3.671       36.864       46.381       37.495     1358.918     2151.171     1405.905        0.425        0.246       59.729       29.092        0.237      334.434        4.406      868.161
01/21/2015  19:06:00        3.961       97.243       -8.590       42.508       52.832       22.173     1806.944     2791.267      491.633        0.732        0.254       97.324       16.712        0.029      334.439        4.413      868.167
01/21/2015  19:07:00       21.685      139.056      -15.946       38.779       50.194       25.912     1503.840     2519.486      671.441        1.238        0.235      140.737       28.736        0.042      334.478        4.477      868.185
01/21/2015  19:08:00       15.003      152.211      -19.680       41.634       31.756       20.970     1733.432     1008.469      439.724        1.348        0.159      152.949       20.678        0.018      334.481        4.481      868.205
01/21/2015  19:09:00       14.977      185.916      -29.327       34.943       31.731       18.810     1221.036     1006.853      353.804        1.911        0.129      186.518       16.192        0.008      334.487        4.490      868.216
01/21/2015  19:10:00       20.411      150.722      -21.977       28.466       35.797       22.890      810.293     1281.433      523.973        1.312        0.131      152.098       19.270        0.016      334.472        4.466      868.226
01/21/2015  19:11:00       35.669      192.587      -25.096       31.260       48.331       28.791      977.195     2335.868      828.940        2.157        0.207      195.862       28.600        0.021      334.562        4.613      868.249
01/21/2015  19:12:00       15.375      180.334      -24.959       31.848       56.516       23.394     1014.295     3194.009      547.281        1.907        0.238      180.988       22.091        0.015      334.507        4.523      868.254
01/21/2015  19:13:00       34.414      140.153      -16.336       31.163       50.903       32.659      971.139     2591.135     1066.597        1.286        0.231      144.316       30.100        0.044      334.465        4.456      868.260
01/21/2015  19:14:00       31.869      108.524       -8.036       39.124       67.407       37.294     1530.719     4543.726     1390.817        1.016        0.373      113.107       35.114        0.096      334.444        4.420      868.278
01/21/2015  19:15:00       38.839      110.338        3.145       52.370       58.767       44.469     2742.570     3453.533     1977.479        1.093        0.409      116.974       41.465        0.126      334.428        4.395      868.284
01/21/2015  19:16:00        4.488      209.686      -32.821       37.800       30.016       24.164     1428.855      900.935      583.907        2.399        0.146      209.734       14.346        0.005      334.490        4.494      868.287
01/21/2015  19:17:00       21.634      199.454      -25.667       39.371       57.320       36.395     1550.047     3285.625     1324.567        2.353        0.308      200.624       36.506        0.033      334.477        4.471      868.303
01/21/2015  19:18:00        6.506      151.915      -17.059       33.072       54.419       31.673     1093.735     2961.421     1003.151        1.423        0.253      152.055       30.014        0.039      334.435        4.405      868.334
01/21/2015  19:19:00        6.423      174.581      -22.886       37.565       57.200       27.500     1411.110     3271.814      756.223        1.824        0.272      174.699       31.379        0.032      334.474        4.468      868.351
01/21/2015  19:20:00       18.540      195.975      -33.022       27.417       35.657       17.464      751.667     1271.408      304.987        2.108        0.116      196.850       15.504        0.006      334.484        4.485      868.359
01/21/2015  19:21:00       15.740      171.874      -28.589       30.783       30.839       20.807      947.593      951.040      432.942        1.647        0.117      172.593       15.529        0.008      334.435        4.405      868.352
01/21/2015  19:22:00       13.127      161.540      -24.872       25.555       43.721       19.898      653.076     1911.515      395.932        1.492        0.148      162.073       19.745        0.015      334.441        4.416      868.351
01/21/2015  19:23:00       13.430      161.719      -21.905       27.959       42.684       20.514      781.688     1821.933      420.808        1.492        0.151      162.275       13.561        0.007      334.434        4.403      868.343
01/21/2015  19:24:00       44.568       87.655       -6.114       39.715       56.464       28.588     1577.319     3188.141      817.246        0.764        0.279       98.334       29.109        0.088      334.353        4.270      868.332
01/21/2015  19:25:00       49.469       73.852       -0.211       34.472       40.447       24.344     1188.300     1635.945      592.632        0.566        0.171       88.889       22.403        0.064      334.290        4.166      868.323
01/21/2015  19:26:00       33.552       75.795       -2.940       45.695       43.635       35.558     2087.996     1903.979     1264.361        0.607        0.263       82.889       28.187        0.116      334.243        4.086      868.336
01/21/2015  19:27:00       15.764      178.536      -14.786       46.417       65.384       42.940     2154.534     4275.084     1843.812        2.031        0.414      179.231       41.792        0.054      334.245        4.088      868.344
01/21/2015  19:28:00       26.158      186.554      -21.108       57.818       72.973       37.947     3342.975     5325.119     1439.946        2.302        0.505      188.379       44.052        0.055      334.229        4.060      868.353
01/21/2015  19:29:00       14.981      136.918      -12.293       43.737       61.872       30.306     1912.931     3828.168      918.469        1.289        0.333      137.735       26.809        0.038      334.193        4.004      868.374
01/21/2015  19:30:00       10.228      121.553       -7.304       29.430       55.321       33.330      866.131     3060.391     1110.860        0.998        0.252      121.983       32.548        0.071      334.179        3.979      868.402
01/21/2015  19:31:00       14.899      173.212      -23.738       41.772       38.663       23.815     1744.865     1494.811      567.147        1.730        0.190      173.852       22.823        0.017      334.236        4.075      868.424
01/21/2015  19:32:00       -3.134      186.391      -19.731       54.151       44.206       29.832     2932.343     1954.130      889.956        2.046        0.289      186.417       28.252        0.023      334.253        4.102      868.430
01/21/2015  19:33:00      -12.366      161.361      -27.647       34.145       32.559       17.941     1165.851     1060.062      321.867        1.475        0.127      161.834       12.590        0.006      334.264        4.122      868.421
01/21/2015  19:34:00      -19.614      179.489      -26.309       27.896       45.561       24.319      778.201     2075.811      591.424        1.837        0.172      180.557       23.655        0.017      334.337        4.241      868.418
01/21/2015  19:35:00      -24.473      207.174      -28.167       35.069       34.382       21.020     1229.812     1182.097      441.854        2.358        0.143      208.615       19.636        0.009      334.377        4.307      868.422
01/21/2015  19:36:00      -27.015      179.675      -24.472       38.231       53.637       25.093     1461.623     2876.903      629.637        1.929        0.248      181.695       27.463        0.023      334.407        4.356      868.404
01/21/2015  19:37:00      -11.523      161.192      -17.319       39.461       50.160       20.854     1557.165     2516.050      434.910        1.546        0.225      161.603       13.774        0.007      334.431        4.399      868.395
01/21/2015  19:38:00      -44.410      184.608      -18.960       40.563       52.858       23.409     1645.367     2793.934      547.970        2.070        0.249      189.874       24.804        0.017      334.355        4.270      868.398
01/21/2015  19:39:00      -31.530      149.249      -17.573       37.788       38.750       24.539     1427.958     1501.591      602.179        1.355        0.177      152.543       23.187        0.023      334.476        4.474      868.409
01/21/2015  19:40:00      -11.043      139.005      -18.103       25.642       35.506       14.430      657.504     1260.683      208.220        1.095        0.106      139.443       10.574        0.006      334.412        4.367      868.416
01/21/2015  19:41:00      -15.488      153.275      -23.296       27.798       31.105       16.041      772.724      967.507      257.298        1.314        0.100      154.056       12.333        0.006      334.329        4.231      868.411
01/21/2015  19:42:00      -30.645      122.791      -11.449       33.267       51.824       19.815     1106.694     2685.723      392.648        1.017        0.209      126.557       23.027        0.033      334.323        4.219      868.406
01/21/2015  19:43:00      -71.583      140.382      -24.392       38.833       49.299       19.434     1508.018     2430.405      377.697        1.487        0.216      157.580       15.056        0.009      334.233        4.070      868.407
01/21/2015  19:44:00      -68.040      141.669      -14.146       49.668       51.541       25.437     2466.945     2656.453      647.040        1.533        0.289      157.161       24.668        0.025      334.258        4.110      868.404
01/21/2015  19:45:00      -51.314      128.987      -15.447       46.815       41.207       26.954     2191.674     1698.002      726.499        1.206        0.231      138.819       23.204        0.028      334.199        4.014      868.392
01/21/2015  19:46:00      -74.237      110.969      -15.259       40.533       37.751       25.776     1642.927     1425.138      664.393        1.089        0.187      133.511       18.635        0.019      334.173        3.971      868.381
01/21/2015  19:47:00      -64.022      121.981      -20.289       39.303       49.862       24.336     1544.718     2486.198      592.218        1.201        0.231      137.761       21.768        0.025      334.231        4.068      868.387
01/21/2015  19:48:00      -53.108      199.310      -30.454       40.910       58.710       22.277     1673.645     3446.851      496.276        2.454        0.281      206.264       20.669        0.010      334.204        4.020      868.402
01/21/2015  19:49:00      -43.665      131.332      -20.784       37.995       48.179       18.685     1443.592     2321.189      349.113        1.185        0.206      138.401       21.095        0.023      334.210        4.032      868.414
01/21/2015  19:50:00      -46.273       65.606       -5.832       35.870       50.534       20.525     1286.622     2553.676      421.270        0.537        0.213       80.283       26.943        0.113      334.179        3.981      868.432
01/21/2015  19:51:00      -20.550       34.061       -2.195       27.877       29.195       12.235      777.105      852.360      149.685        0.168        0.089       39.780       11.506        0.084      334.197        4.010      868.456
01/21/2015  19:52:00      -26.544       51.507       -3.228       31.238       33.189       17.489      975.793     1101.523      305.868        0.288        0.119       57.944       19.128        0.109      334.146        3.927      868.486
01/21/2015  19:53:00      -40.025      100.676      -17.515       43.394       50.847       19.438     1883.072     2585.379      377.828        0.844        0.242      108.340       19.442        0.032      334.175        3.973      868.509
01/21/2015  19:54:00      -44.351      225.843      -32.727       32.300       33.369       20.073     1043.295     1113.490      402.944        2.830        0.128      230.156       14.113        0.004      334.205        4.019      868.522
01/21/2015  19:55:00      -16.829      184.696      -23.936       26.578       54.962       17.697      706.392     3020.806      313.182        1.950        0.202      185.461       20.779        0.013      334.187        3.992      868.540
01/21/2015  19:56:00      -27.961      168.916      -20.952       39.236       36.615       23.176     1539.452     1340.634      537.148        1.658        0.171      171.215       20.929        0.015      334.132        3.902      868.553
01/21/2015  19:57:00      -36.812      186.579      -21.602       30.242       32.754       16.350      914.590     1072.845      267.338        1.944        0.113      190.176        9.905        0.003      334.152        3.935      868.547
01/21/2015  19:58:00       -3.291      170.538      -25.197       28.340       23.664       16.831      803.132      559.964      283.292        1.569        0.082      170.570       12.962        0.006      334.164        3.957      868.531
01/21/2015  19:59:00       17.107      125.220      -18.053       32.566       32.597       17.248     1060.517     1062.574      297.510        0.936        0.121      126.383        7.375        0.003      334.027        3.729      868.542
01/21/2015  20:00:00        5.923      100.467       -4.865       29.589       32.579       21.490      875.511     1061.386      461.836        0.628        0.120      100.642       21.006        0.044      333.992        3.671      868.544
01/21/2015  20:01:00        2.093       94.971      -11.926       25.686       46.962       21.167      659.793     2205.416      448.058        0.624        0.166       94.994       22.214        0.055      333.979        3.649      868.545
01/21/2015  20:02:00      -22.535      158.808      -23.360       25.129       26.945       18.001      631.481      726.018      324.035        1.398        0.084      160.399       16.237        0.010      334.093        3.839      868.548
01/21/2015  20:03:00      -20.004      142.126      -19.636       22.984       39.763       17.220      528.280     1581.107      296.541        1.170        0.120      143.527       15.376        0.011      334.096        3.842      868.555
01/21/2015  20:04:00      -16.775      122.190      -18.919       18.657       36.777       17.919      348.079     1352.560      321.092        0.880        0.101      123.336       17.549        0.020      334.082        3.820      868.568
01/21/2015  20:05:00       -8.233      112.381      -13.075       28.385       28.297       16.707      805.706      800.696      279.127        0.738        0.094      112.682       12.634        0.013      334.106        3.860      868.566
01/21/2015  20:06:00        3.748      122.980      -18.886       28.171       20.072       14.402      793.594      402.869      207.421        0.845        0.070      123.037        8.580        0.005      334.059        3.781      868.569
01/21/2015  20:07:00       -4.565      136.501      -18.849       35.466       28.026       18.472     1257.813      785.453      341.230        1.070        0.119      136.577       18.618        0.019      334.051        3.769      868.569
01/21/2015  20:08:00      -43.771      135.647      -19.815       27.418       28.930       21.182      751.746      836.954      448.663        1.137        0.102      142.534       16.550        0.013      334.003        3.688      868.566
01/21/2015  20:09:00      -16.867      147.774      -22.459       20.026       25.686       13.395      401.022      659.768      179.431        1.193        0.062      148.733        7.880        0.003      334.017        3.713      868.565
01/21/2015  20:10:00      -11.211      126.163      -22.210       17.592       13.928        9.776      309.487      193.986       95.565        0.857        0.030      126.660        4.635        0.001      334.006        3.694      868.561
01/21/2015  20:11:00      -25.275      152.508      -20.970       22.966       22.659       15.694      527.457      513.438      246.290        1.281        0.064      154.588       13.149        0.007      334.033        3.739      868.555
01/21/2015  20:12:00       -2.145      148.168      -19.487       21.696       29.770       15.399      470.735      886.261      237.144        1.197        0.080      148.183       16.042        0.012      333.956        3.612      868.559
01/21/2015  20:13:00        9.888       83.224      -12.113       26.602       23.033       15.550      707.647      530.526      241.799        0.433        0.074       83.809       12.657        0.023      333.978        3.648      868.549
01/21/2015  20:14:00       14.797      126.123      -15.981       25.634       42.546       24.028      657.110     1810.122      577.322        0.971        0.152      126.988       23.675        0.035      333.933        3.574      868.556
01/21/2015  20:15:00       45.150       77.375       -4.091       48.085       52.678       32.115     2312.141     2774.933     1031.352        0.708        0.306       89.584       27.301        0.093      333.909        3.532      868.550
01/21/2015  20:16:00       54.788       68.475        5.039       48.158       37.441       32.308     2319.193     1401.803     1043.790        0.624        0.238       87.695       22.794        0.068      333.909        3.533      868.546
01/21/2015  20:17:00       41.982       95.067      -10.494       54.010       49.903       37.296     2917.032     2490.328     1390.956        0.885        0.340      103.924       29.110        0.078      333.965        3.627      868.540
01/21/2015  20:18:00       36.521      120.000      -11.974       47.368       58.380       34.943     2243.730     3408.185     1221.010        1.137        0.344      125.435       35.132        0.078      333.922        3.552      868.540
01/21/2015  20:19:00       65.854       87.497       -6.386       36.075       46.577       32.278     1301.396     2169.424     1041.889        0.827        0.226      109.510       25.761        0.055      333.909        3.534      868.546
01/21/2015  20:20:00       40.253       70.312        1.069       44.579       51.741       31.592     1987.266     2677.166      998.077        0.611        0.283       81.019       30.738        0.144      333.907        3.531      868.562
01/21/2015  20:21:00       44.814       99.857       -7.849       36.146       68.048       31.300     1306.569     4630.540      979.702        0.948        0.346      109.452       36.915        0.114      333.864        3.458      868.570
01/21/2015  20:22:00       33.623       90.065      -10.325       34.389       46.781       24.647     1182.614     2188.442      607.471        0.666        0.199       96.137       26.955        0.079      333.854        3.443      868.578
01/21/2015  20:23:00       22.545       67.478       -2.173       29.349       36.115       24.069      861.343     1304.311      579.315        0.391        0.137       71.145       21.167        0.089      333.847        3.430      868.589
01/21/2015  20:24:00       35.148      147.735      -18.934       40.193       56.014       31.797     1615.450     3137.606     1011.077        1.459        0.288      151.858       33.295        0.048      333.911        3.534      868.586
01/21/2015  20:25:00       21.773      162.659      -19.874       37.032       37.345       25.138     1371.389     1394.683      631.906        1.536        0.170      164.109       22.550        0.019      333.926        3.561      868.592
01/21/2015  20:26:00       52.054      126.685      -18.098       30.978       40.142       27.398      959.661     1611.341      750.644        1.120        0.166      136.962       26.052        0.036      333.913        3.541      868.602
01/21/2015  20:27:00       39.863       61.896        0.545       36.157       48.490       35.304     1307.358     2351.302     1246.342        0.516        0.245       73.622       32.477        0.195      333.846        3.430      868.607
01/21/2015  20:28:00       26.015       96.660      -11.501       27.657       43.606       21.022      764.897     1901.462      441.911        0.663        0.155      100.100       23.963        0.057      333.886        3.495      868.595
01/21/2015  20:29:00       34.569      123.106      -11.591       35.585       64.202       25.858     1266.268     4121.908      668.646        1.127        0.303      127.867       33.297        0.068      333.916        3.544      868.598
01/21/2015  20:30:00       35.395      107.995      -10.877       37.063       44.557       31.696     1373.651     1985.310     1004.646        0.870        0.218      113.648       32.391        0.081      333.928        3.564      868.598
01/21/2015  20:31:00       35.450       58.744       -0.681       41.054       35.887       27.228     1685.456     1287.874      741.373        0.421        0.186       68.612       16.871        0.060      333.909        3.534      868.600
01/21/2015  20:32:00       27.814      114.483      -10.228       35.077       60.080       31.608     1230.404     3609.581      999.041        0.991        0.292      117.814       34.084        0.084      333.931        3.569      868.591
01/21/2015  20:33:00       22.193      150.388      -24.845       29.938       31.549       17.156      896.276      995.309      294.316        1.296        0.109      152.016       14.213        0.009      333.977        3.646      868.596
01/21/2015  20:34:00       38.191      146.007      -17.900       34.905       40.880       27.430     1218.329     1671.184      752.396        1.337        0.182      150.919       21.083        0.020      334.010        3.700      868.587
01/21/2015  20:35:00       47.325      143.257      -12.884       41.266       63.259       42.125     1702.895     4001.727     1774.481        1.520        0.374      150.871       39.303        0.068      333.990        3.667      868.568
01/21/2015  20:36:00       36.439       87.988        3.131       43.669       59.427       34.602     1906.964     3531.525     1197.330        0.786        0.332       95.235       36.892        0.150      333.912        3.537      868.553
01/21/2015  20:37:00       59.334       93.740       -6.490       36.144       50.888       38.305     1306.397     2589.624     1467.275        0.886        0.268      110.940       34.418        0.096      333.966        3.627      868.536
01/21/2015  20:38:00       43.823       72.842        4.892       50.967       49.019       30.798     2597.626     2402.890      948.487        0.660        0.297       85.008       29.279        0.119      333.953        3.606      868.530
01/21/2015  20:39:00       65.861       74.883      -14.630       36.779       44.448       26.603     1352.665     1975.581      707.734        0.710        0.202       99.726       21.515        0.047      333.911        3.537      868.532
01/21/2015  20:40:00       85.139       58.938       12.194       41.006       30.185       28.099     1681.509      911.150      789.549        0.713        0.169      103.548       14.365        0.019      333.864        3.460      868.534
01/21/2015  20:41:00       91.677       68.830       13.836       39.377       36.326       25.914     1550.557     1319.568      671.523        0.844        0.177      114.639       21.353        0.035      333.864        3.458      868.546
01/21/2015  20:42:00       52.892       42.379       -0.922       51.726       25.659       21.215     2675.537      658.366      450.094        0.419        0.189       67.776       14.013        0.043      333.809        3.368      868.555
01/21/2015  20:43:00       34.873       66.715       -5.764       26.620       41.181       22.564      708.635     1695.847      509.135        0.431        0.146       75.279       21.434        0.081      333.843        3.424      868.566
01/21/2015  20:44:00       34.851       52.317       -5.918       36.455       30.874       20.768     1328.943      953.232      431.318        0.335        0.136       62.862       16.278        0.067      333.826        3.395      868.587
01/21/2015  20:45:00       32.349       63.813       -8.996       30.764       33.988       21.513      946.448     1155.153      462.795        0.388        0.128       71.544       19.478        0.074      333.849        3.433      868.617
01/21/2015  20:46:00       42.092       70.889       -1.424       36.575       49.023       32.591     1337.733     2403.216     1062.163        0.580        0.240       82.444       29.410        0.127      333.812        3.373      868.624
01/21/2015  20:47:00       46.742       63.028        0.376       30.172       41.859       26.506      910.344     1752.197      702.574        0.476        0.168       78.469       26.790        0.117      333.817        3.379      868.621
01/21/2015  20:48:00       22.682       69.832       -1.931       32.749       46.759       25.746     1072.494     2186.438      662.844        0.466        0.196       73.423       26.255        0.128      333.772        3.308      868.623
01/21/2015  20:49:00       81.304       81.432        5.152       47.716       42.351       33.849     2276.800     1793.574     1145.781        0.924        0.261      115.072       29.456        0.066      333.792        3.340      868.620
01/21/2015  20:50:00      141.919       96.185       12.806       42.773       31.938       34.548     1829.541     1020.042     1193.593        1.680        0.202      171.443       22.336        0.017      333.833        3.405      868.603
01/21/2015  20:51:00      118.791       82.302       18.861       36.840       27.539       31.211     1357.187      758.412      974.141        1.216        0.154      144.516       20.995        0.021      333.791        3.337      868.595
01/21/2015  20:52:00       83.515       75.574        6.442       47.757       25.207       28.729     2280.756      635.372      825.378        0.823        0.187      112.633       19.388        0.030      333.740        3.254      868.603
01/21/2015  20:53:00       38.194       34.969        9.072       34.843       34.804       20.927     1214.052     1211.287      437.939        0.281        0.143       51.784       19.361        0.140      333.662        3.126      868.602
01/21/2015  20:54:00       31.890       48.778       -1.662       28.703       27.605       20.350      823.859      762.063      414.114        0.270        0.100       58.277       16.677        0.082      333.688        3.166      868.610
01/21/2015  20:55:00       29.239       47.112        2.113       30.024       33.158       26.107      901.442     1099.433      681.586        0.288        0.134       55.448       21.315        0.148      333.707        3.198      868.615
01/21/2015  20:56:00       39.056       66.149        0.337       22.778       30.789       23.678      518.817      947.950      560.649        0.396        0.101       76.818       18.043        0.055      333.680        3.155      868.613
01/21/2015  20:57:00       11.983       78.040       -0.792       21.113       28.265       18.309      445.761      798.936      335.226        0.391        0.079       78.955       14.808        0.035      333.660        3.120      868.618
01/21/2015  20:58:00       39.029       81.966       -8.573       37.885       49.721       26.511     1435.298     2472.136      702.834        0.646        0.231       90.784       25.785        0.081      333.676        3.147      868.624
01/21/2015  20:59:00       20.401       62.961        1.111       34.612       47.442       29.191     1198.014     2250.778      852.096        0.434        0.215       66.183       29.735        0.202      333.655        3.113      868.637
01/21/2015  21:00:00       23.253      125.912      -22.152       17.247       33.216       17.935      297.449     1103.328      321.652        0.930        0.086      128.041       19.306        0.023      333.729        3.236      868.645
01/21/2015  21:01:00       31.638      148.669      -27.076       23.770       25.344       14.758      564.993      642.338      217.791        1.263        0.071      151.998       10.290        0.005      333.732        3.239      868.639
01/21/2015  21:02:00       18.773      128.316      -11.965       26.680       38.511       22.829      711.841     1483.133      521.183        0.984        0.136      129.682       21.721        0.028      333.695        3.178      868.638
01/21/2015  21:03:00        8.689      146.696      -25.250       19.456       26.977       15.311      378.548      727.752      234.423        1.179        0.067      146.953        8.734        0.004      333.766        3.295      868.632
01/21/2015  21:04:00       25.423      122.378      -20.080       40.961       31.739       21.923     1677.842     1007.384      480.598        0.960        0.158      124.991       21.309        0.029      333.746        3.261      868.627
01/21/2015  21:05:00       16.398      100.615      -13.902       16.938       26.466       14.005      286.893      700.440      196.138        0.588        0.059      101.943       10.385        0.010      333.736        3.246      868.615
01/21/2015  21:06:00       38.453       76.130       -6.245       27.761       36.442       23.899      770.700     1327.986      571.148        0.499        0.133       85.290       22.970        0.073      333.686        3.164      868.603
01/21/2015  21:07:00       24.647       47.258       -7.277       22.353       26.038       17.975      499.658      677.984      323.098        0.220        0.075       53.299       18.744        0.124      333.657        3.115      868.598
01/21/2015  21:08:00       13.640       72.453       -5.107       21.427       43.187       21.155      459.135     1865.155      447.522        0.412        0.139       73.726       23.187        0.099      333.708        3.200      868.595
01/21/2015  21:09:00       28.160       65.013       -9.939       19.566       20.303       13.773      382.826      412.201      189.707        0.305        0.049       70.850       12.624        0.032      333.738        3.250      868.608
01/21/2015  21:10:00       14.685       54.927       -1.113       15.668       29.119       14.424      245.474      847.891      208.054        0.227        0.065       56.856       17.392        0.094      333.731        3.238      868.620
01/21/2015  21:11:00       16.027       37.044       -7.897       14.727       29.388       12.238      216.884      863.656      149.758        0.146        0.062       40.362       10.592        0.069      333.707        3.197      868.628
01/21/2015  21:12:00        6.434       43.017       -7.025       18.477       18.124       15.455      341.402      328.467      238.861        0.142        0.045       43.496       13.049        0.090      333.721        3.222      868.634
01/21/2015  21:13:00       -7.296       56.508       -8.875       14.971       22.085       14.274      224.125      487.744      203.744        0.212        0.046       56.977       12.820        0.051      333.792        3.339      868.634
01/21/2015  21:14:00       -9.242       73.051      -15.919       27.207       31.704       13.893      740.225     1005.127      193.007        0.381        0.097       73.634       15.908        0.047      333.708        3.199      868.648
01/21/2015  21:15:00      -12.723       60.498       -6.348       21.573       29.297       15.126      465.410      858.328      228.800        0.271        0.078       61.822       13.537        0.048      333.681        3.156      868.661
01/21/2015  21:16:00       -5.278       89.195      -12.647       31.640       37.626       13.803     1001.099     1415.738      190.521        0.537        0.130       89.351       13.937        0.024      333.673        3.143      868.668
01/21/2015  21:17:00      -19.212       48.843       -6.898       31.873       22.650       12.369     1015.897      513.020      152.999        0.224        0.084       52.486       14.556        0.077      333.628        3.067      868.679
01/21/2015  21:18:00      -16.915        7.343       -4.122       12.179       22.764        6.561      148.330      518.202       43.047        0.053        0.035       18.440        3.229        0.031      333.574        2.978      868.688
01/21/2015  21:19:00      -17.069       26.117       -4.679       20.569       25.279       10.784      423.095      639.029      116.285        0.109        0.059       31.200        8.884        0.081      333.596        3.015      868.702
01/21/2015  21:20:00      -24.081       14.533      -10.763       10.306       17.711        7.788      106.222      313.678       60.649        0.069        0.024       28.127        4.506        0.026      333.401        2.692      868.722
01/21/2015  21:21:00      -36.417       28.300      -10.500       26.356       25.048       10.844      694.622      627.381      117.598        0.184        0.072       46.120        8.566        0.034      333.479        2.821      868.739
01/21/2015  21:22:00      -55.990        5.990      -10.585       26.263       14.865       15.363      689.727      220.954      236.021        0.221        0.057       56.309       13.687        0.059      333.146        2.270      868.750
01/21/2015  21:23:00      -54.838       15.553      -12.262       23.844       25.644       11.777      568.548      657.604      138.697        0.238        0.068       57.001        8.950        0.025      333.324        2.563      868.752
01/21/2015  21:24:00      -18.106       17.665       -2.020       10.686       17.905        8.176      114.201      320.605       66.846        0.057        0.025       25.296        9.154        0.131      333.655        3.113      868.751
01/21/2015  21:25:00       -8.606       21.787        6.622       17.827       16.714        9.157      317.788      279.362       83.859        0.064        0.034       23.425        4.216        0.032      333.561        2.957      868.749
01/21/2015  21:26:00      -30.137       20.581        1.792       11.411       10.283        8.145      130.211      105.741       66.346        0.082        0.015       36.494        3.957        0.012      333.490        2.840      868.742
01/21/2015  21:27:00      -18.001        1.208        4.945       11.593        7.916        8.416      134.395       62.661       70.833        0.031        0.013       18.042        3.571        0.039      333.315        2.548      868.734
01/21/2015  21:28:00      -11.785        6.857       -0.379       17.904        5.709        7.692      320.543       32.598       59.174        0.030        0.021       13.635        3.554        0.068      333.367        2.636      868.724
01/21/2015  21:29:00       -5.550       27.458       -0.422       10.375       15.075        5.461      107.639      227.258       29.821        0.057        0.018       28.014        7.091        0.064      333.498        2.852      868.726
01/21/2015  21:30:00        2.656       58.547       -5.524       11.794       14.588       11.891      139.094      212.796      141.402        0.198        0.025       58.607        4.372        0.006      333.604        3.027      868.733
01/21/2015  21:31:00       27.590       55.220       -7.255       18.418       20.000       10.218      339.210      399.999      104.409        0.235        0.042       61.729        7.446        0.015      333.520        2.889      868.738
01/21/2015  21:32:00       19.121       55.021       -0.034       15.726       23.993       14.403      247.307      575.661      207.438        0.221        0.052       58.249       13.622        0.055      333.485        2.831      868.730
01/21/2015  21:33:00       52.904       48.113       12.346       38.629       20.543       16.556     1492.194      422.013      274.106        0.373        0.109       71.510        7.995        0.012      333.510        2.870      868.734
01/21/2015  21:34:00       60.124       41.484        9.283       29.826       21.961       15.151      889.605      482.267      229.563        0.351        0.080       73.047        8.579        0.014      333.523        2.894      868.731
01/21/2015  21:35:00       68.840       43.801       13.581       22.827       15.649       15.509      521.083      244.906      240.523        0.392        0.050       81.593       12.516        0.024      333.498        2.850      868.720
01/21/2015  21:36:00       72.284       43.324       10.820       19.138       17.596       14.445      366.279      309.616      208.668        0.405        0.044       84.273       11.685        0.019      333.464        2.795      868.708
01/21/2015  21:37:00       60.105       44.201        8.264       29.101       18.250       15.804      846.862      333.065      249.766        0.353        0.071       74.608       10.742        0.021      333.407        2.699      868.701
01/21/2015  21:38:00       62.158       43.430        5.726       29.220       21.577       16.354      853.828      465.557      267.456        0.368        0.079       75.827       11.793        0.024      333.468        2.802      868.703
01/21/2015  21:39:00       34.992       33.093        7.848       22.661       16.363       14.893      513.520      267.763      221.812        0.169        0.050       48.162       10.985        0.052      333.398        2.685      868.711
01/21/2015  21:40:00       61.587       50.709        4.460       46.650       32.210       18.892     2176.201     1037.511      356.896        0.498        0.179       79.777       16.552        0.043      333.412        2.709      868.717
01/21/2015  21:41:00       45.898       41.305        3.322       36.980       30.609       19.496     1367.540      936.889      380.080        0.325        0.134       61.747       16.951        0.075      333.401        2.691      868.726
01/21/2015  21:42:00       79.252       40.298        7.450       29.341       19.969       18.349      860.875      398.744      336.701        0.478        0.080       88.909       13.767        0.024      333.339        2.589      868.730
01/21/2015  21:43:00       72.060       34.360        4.525       19.060       19.682       16.356      363.301      387.381      267.509        0.371        0.051       79.832        8.508        0.011      333.297        2.519      868.734
01/21/2015  21:44:00       33.088       18.124        5.179       19.663       15.457       15.388      386.627      238.904      236.779        0.116        0.043       37.726        9.505        0.063      333.263        2.463      868.732
01/21/2015  21:45:00       40.184       23.205        5.812       13.684       13.651       13.938      187.260      186.340      194.278        0.138        0.028       46.403        7.294        0.025      333.368        2.637      868.724
01/21/2015  21:46:00       28.517       29.364        2.045       15.034       17.907       10.036      226.011      320.664      100.729        0.116        0.032       40.933        8.597        0.044      333.399        2.688      868.717
01/21/2015  21:47:00       16.952       37.195       -2.351       15.452       19.802       10.541      238.776      392.131      111.121        0.121        0.037       40.876        8.226        0.040      333.385        2.665      868.717
01/21/2015  21:48:00       15.596       48.736       -5.018       17.730       19.871       10.003      314.359      394.847      100.066        0.173        0.040       51.171        9.212        0.032      333.420        2.723      868.718
01/21/2015  21:49:00        7.733       64.510      -10.370       18.623       15.963        8.540      346.803      254.806       72.938        0.250        0.034       64.971        7.561        0.014      333.464        2.795      868.730
01/21/2015  21:50:00       12.907       47.974       -9.951       17.745       11.257       10.001      314.898      126.722      100.014        0.155        0.027       49.680        7.968        0.026      333.534        2.912      868.753
01/21/2015  21:51:00        5.834       46.332       -7.019       11.983       11.320        6.683      143.586      128.141       44.660        0.127        0.016       46.698        6.514        0.019      333.513        2.877      868.766
01/21/2015  21:52:00      -11.805       15.845       -1.355       15.713       11.098        8.643      246.893      123.173       74.700        0.042        0.022       19.759        7.945        0.162      333.462        2.792      868.773
01/21/2015  21:53:00      -20.706       -2.324       -2.585       10.469       10.014        6.682      109.600      100.289       44.655        0.035        0.013       20.835        1.990        0.009      333.327        2.569      868.771
01/21/2015  21:54:00      -22.886      -16.790       -2.845       13.733       11.197        6.341      188.598      125.368       40.203        0.058        0.018       28.384        8.060        0.081      333.210        2.377      868.769
01/21/2015  21:55:00      -25.276      -11.249       -6.854       17.355       12.780        8.782      301.202      163.324       77.118        0.068        0.027       27.666        8.777        0.101      333.192        2.345      868.766
01/21/2015  21:56:00      -49.029       -6.135       -8.983       10.589       10.784        6.836      112.120      116.301       46.731        0.140        0.014       49.411        3.380        0.005      332.935        1.923      868.767
01/21/2015  21:57:00      -47.151       -6.851      -15.934        9.812       13.456       10.965       96.266      181.055      120.227        0.146        0.020       47.646        5.300        0.012      332.910        1.880      868.776
01/21/2015  21:58:00      -54.161       -8.479       -7.846       14.504       11.368        9.036      210.372      129.238       81.655        0.174        0.021       54.820        4.764        0.008      332.720        1.568      868.789
01/21/2015  21:59:00      -40.672      -10.266       -7.673       17.018       13.145        9.509      289.629      172.790       90.413        0.119        0.028       41.948        5.933        0.020      332.839        1.762      868.798
01/21/2015  22:00:00      -72.305      -31.518      -10.826       12.771       12.335        8.171      163.092      152.164       66.768        0.336        0.019       78.876        4.907        0.004      332.707        1.545      868.800
01/21/2015  22:01:00      -83.981      -25.326      -11.137       10.298       11.819        7.799      106.053      139.699       60.817        0.406        0.015       87.717        2.290        0.001      332.620        1.402      868.811
01/21/2015  22:02:00      -81.299      -23.844      -15.189       12.896       13.331        7.254      166.305      177.713       52.623        0.390        0.020       84.723        4.479        0.003      332.639        1.432      868.824
01/21/2015  22:03:00      -88.740      -13.241      -10.674       10.269        9.967        8.573      105.458       99.344       73.502        0.422        0.014       89.723        6.685        0.006      332.557        1.298      868.839
01/21/2015  22:04:00      -87.007      -10.252      -13.170       11.653       11.078        9.426      135.784      122.730       88.851        0.410        0.017       87.609        5.226        0.004      332.515        1.228      868.843
01/21/2015  22:05:00      -78.959       -9.956      -13.507       12.730        9.511        9.932      162.061       90.466       98.637        0.343        0.018       79.584        7.655        0.009      332.496        1.196      868.842
01/21/2015  22:06:00      -95.564       -7.691      -18.526       12.611        8.098        8.760      159.031       65.582       76.730        0.492        0.015       95.873        3.468        0.001      332.388        1.018      868.831
01/21/2015  22:07:00      -76.005       -9.678      -13.703       23.950        9.380       11.100      573.592       87.985      123.220        0.342        0.039       76.618       11.271        0.022      332.367        0.983      868.825
01/21/2015  22:08:00      -42.833       -5.100      -11.223       18.243       12.648        9.958      332.814      159.972       99.157        0.129        0.030       43.136        7.694        0.032      332.547        1.282      868.825
01/21/2015  22:09:00      -23.977       -3.629      -10.558       12.583        5.465        7.307      158.331       29.863       53.396        0.047        0.012       24.250        7.524        0.096      332.457        1.131      868.828
01/21/2015  22:10:00       -7.869       56.119       -8.232       16.250       26.424       12.204      264.078      698.203      148.945        0.219        0.056       56.668        9.566        0.028      333.020        2.060      868.832
01/21/2015  22:11:00       -3.349       79.006      -11.006       23.268       17.738       11.022      541.400      314.625      121.483        0.368        0.049       79.077        9.208        0.014      333.134        2.249      868.842
01/21/2015  22:12:00       -3.066       73.833       -9.939       17.132       14.447        7.276      293.513      208.705       52.947        0.306        0.028       73.896        6.864        0.009      333.122        2.231      868.859
01/21/2015  22:13:00      -33.285       29.764       -9.345       23.600       29.685       13.147      556.954      881.171      172.844        0.185        0.081       44.652        9.715        0.047      332.831        1.748      868.863
01/21/2015  22:14:00      -30.180       -1.313       -6.421       27.887       36.530       16.005      777.663     1334.432      256.171        0.166        0.118       30.209       12.699        0.177      332.593        1.356      868.874
01/21/2015  22:15:00      -48.659      -12.447       -7.730       28.191       22.475       11.548      794.753      505.107      133.365        0.201        0.072       50.226        9.878        0.039      332.503        1.209      868.889
01/21/2015  22:16:00      -82.353      -37.349      -12.109       19.353       22.412       15.502      374.546      502.292      240.299        0.472        0.056       90.427       15.723        0.030      332.141        0.611      868.902
01/21/2015  22:17:00      -82.210      -24.562      -16.416       21.236       15.902       15.785      450.982      252.867      249.159        0.429        0.048       85.800       13.633        0.025      332.132        0.595      868.923
01/21/2015  22:18:00      -95.116      -11.514      -17.769       20.167       16.384       17.467      406.727      268.433      305.109        0.524        0.049       95.810        4.749        0.002      332.105        0.550      868.950
01/21/2015  22:19:00     -100.771        1.744      -13.588       21.377       19.137       15.696      456.970      366.221      246.360        0.571        0.053      100.786       10.676        0.011      332.117        0.571      868.958
01/21/2015  22:20:00     -100.301       -1.290      -12.175       29.760       24.922       17.115      885.650      621.099      292.924        0.600        0.090      100.309       15.696        0.024      332.126        0.585      868.963
01/21/2015  22:21:00      -61.989       -1.193       -7.052       29.694       23.136       13.605      881.759      535.264      185.083        0.275        0.080       62.000       14.581        0.055      332.183        0.681      868.970
01/21/2015  22:22:00      -60.956       -6.071       -5.842       34.660       22.770       15.102     1201.309      518.460      228.057        0.287        0.097       61.257       13.758        0.050      332.095        0.537      868.977
01/21/2015  22:23:00      -92.982        2.703       -9.740       33.193       25.265       19.384     1101.799      638.344      375.747        0.543        0.106       93.021       17.860        0.037      332.160        0.642      868.966
01/21/2015  22:24:00      -71.917       11.422       -8.865       25.462       24.742       15.034      648.336      612.184      226.029        0.343        0.074       72.818       12.757        0.031      332.177        0.671      868.962
01/21/2015  22:25:00      -46.075       -1.747       -4.970       31.775       18.732       13.129     1009.637      350.878      172.382        0.184        0.077       46.108        7.347        0.025      332.145        0.618      868.972
01/21/2015  22:26:00      -62.839        3.348       -7.135       26.513       22.532       15.571      702.952      507.682      242.447        0.273        0.073       62.928       13.003        0.043      332.284        0.847      868.972
01/21/2015  22:27:00      -48.759      -16.323       -6.459       32.597       24.900       13.953     1062.580      620.021      194.698        0.228        0.094       51.419        9.797        0.036      332.195        0.701      868.973
01/21/2015  22:28:00      -30.948      -17.386       -5.899       25.955       21.565       11.682      673.680      465.031      136.479        0.128        0.064       35.497       10.660        0.090      332.158        0.638      868.992
01/21/2015  22:29:00      -33.122      -12.760       -3.410       25.697       26.850       19.133      660.358      720.940      366.086        0.151        0.087       35.495       13.653        0.148      332.138        0.605      868.996
01/21/2015  22:30:00      -42.904      -17.254        1.103       33.701       21.191       15.319     1135.727      449.051      234.663        0.198        0.091       46.243       16.186        0.123      332.120        0.576      868.998
01/21/2015  22:31:00      -69.239      -15.604       -3.156       34.217       17.997       13.240     1170.829      323.897      175.297        0.336        0.084       70.975       13.645        0.037      332.058        0.474      868.999
01/21/2015  22:32:00      -54.026      -11.282       -7.193       20.502       19.579       14.186      420.324      383.342      201.256        0.205        0.050       55.192       12.089        0.048      332.021        0.414      868.998
01/21/2015  22:33:00      -70.834      -15.347      -18.044        9.997        9.434        6.794       99.946       88.993       46.165        0.291        0.012       72.478        4.642        0.004      332.095        0.535      868.997
01/21/2015  22:34:00      -77.537      -18.386       -8.176       11.592       10.514        8.612      134.382      110.536       74.161        0.337        0.016       79.687        4.475        0.003      332.075        0.503      869.011
01/21/2015  22:35:00      -74.680      -24.925      -16.963       16.189       16.206        9.891      262.084      262.626       97.840        0.355        0.031       78.730        8.356        0.011      332.090        0.527      869.010
01/21/2015  22:36:00      -76.305      -17.180      -11.518       20.327       16.866       12.424      413.180      284.471      154.365        0.355        0.043       78.216        6.985        0.008      332.091        0.530      869.028
01/21/2015  22:37:00      -73.728      -16.895      -14.065       15.421       17.175       15.207      237.796      294.982      231.265        0.334        0.038       75.639       11.600        0.024      332.138        0.606      869.030
01/21/2015  22:38:00      -59.406      -24.918      -11.618       18.800       10.435        9.151      353.437      108.894       83.746        0.242        0.027       64.420        5.000        0.006      332.315        0.898      869.032
01/21/2015  22:39:00      -37.315      -27.460      -11.291       12.293       12.695        8.533      151.110      161.165       72.807        0.133        0.019       46.330        5.770        0.016      332.286        0.849      869.046
01/21/2015  22:40:00      -34.251      -21.980       -9.586       11.382        9.860        9.518      129.544       97.223       90.587        0.103        0.016       40.697        5.414        0.018      332.315        0.898      869.058
01/21/2015  22:41:00      -12.815      -28.290       -4.076       10.963       15.937        6.411      120.178      253.978       41.100        0.070        0.021       31.058        4.214        0.018      332.428        1.083      869.062
01/21/2015  22:42:00        4.373      -14.872       -4.461       11.688       16.204        6.626      136.604      262.559       43.907        0.035        0.022       15.502        4.500        0.084      332.700        1.534      869.069
01/21/2015  22:43:00       -3.238       12.355       -4.075       24.719       18.188        8.217      611.016      330.798       67.512        0.059        0.050       12.772        6.822        0.285      332.625        1.409      869.081
01/21/2015  22:44:00       -4.037       -3.034        4.401       10.110       11.159        5.897      102.213      124.534       34.773        0.015        0.013        5.050        5.755        1.299      332.497        1.199      869.086
01/21/2015  22:45:00      -32.735      -20.872        0.216       17.345        9.371        7.000      300.843       87.808       48.994        0.097        0.022       38.822        3.808        0.010      332.264        0.813      869.102
01/21/2015  22:46:00      -52.401      -22.732       -2.199       11.077       10.560        6.041      122.698      111.522       36.497        0.177        0.014       57.119        3.106        0.003      332.106        0.554      869.128
01/21/2015  22:47:00      -37.966      -10.472       -5.770       13.619        9.443        8.223      185.465       89.162       67.619        0.096        0.017       39.384        5.187        0.017      332.093        0.531      869.134
01/21/2015  22:48:00       -8.513      -12.926      -10.064       13.670       12.116        5.153      186.881      146.792       26.550        0.035        0.018       15.477        4.268        0.076      332.515        1.227      869.140
01/21/2015  22:49:00      -12.811      -13.101       -6.031       14.130       12.460        6.364      199.659      155.250       40.500        0.038        0.020       18.323        5.483        0.090      332.391        1.021      869.148
01/21/2015  22:50:00      -38.360      -26.667       -4.651       10.665        8.727        7.571      113.750       76.161       57.320        0.123        0.012       46.718        5.534        0.014      332.303        0.879      869.151
01/21/2015  22:51:00      -46.513      -22.110       -8.009       11.440        9.078        7.564      130.874       82.416       57.212        0.149        0.014       51.500        4.615        0.008      332.094        0.532      869.158
01/21/2015  22:52:00      -53.088      -25.392       -1.180       18.188       10.003       10.406      330.816      100.063      108.280        0.200        0.027       58.848        6.660        0.013      332.008        0.391      869.160
01/21/2015  22:53:00      -81.442      -36.887      -12.026        8.718        8.622        7.757       76.009       74.333       60.168        0.417        0.011       89.406        3.135        0.001      332.093        0.531      869.169
01/21/2015  22:54:00      -73.281      -45.604       -3.289       17.854       13.954       10.874      318.749      194.710      118.236        0.405        0.032       86.312        7.610        0.008      332.073        0.498      869.172
01/21/2015  22:55:00      -89.781      -56.174       -4.703       18.131       17.872       13.869      328.737      319.419      192.353        0.604        0.042      105.907        5.941        0.003      332.088        0.524      869.184
01/21/2015  22:56:00      -93.553      -70.817      -11.144       20.309       32.231       15.502      412.468     1038.807      240.310        0.779        0.085      117.334        7.945        0.005      332.152        0.628      869.191
01/21/2015  22:57:00      -98.510      -60.832       -7.334       25.364       33.876       14.647      643.313     1147.606      214.534        0.773        0.100      115.779       13.402        0.013      332.159        0.641      869.185
01/21/2015  22:58:00      -86.287      -31.642       -6.334       16.848       17.149       12.083      283.869      294.086      146.009        0.461        0.036       91.906        6.146        0.004      332.059        0.473      869.180
01/21/2015  22:59:00      -80.480      -22.567       -7.384       11.545       11.012        8.355      133.285      121.270       69.803        0.368        0.016       83.584        4.813        0.003      332.063        0.483      869.179
01/21/2015  23:00:00      -70.667      -10.520       -7.737       14.858       11.445       10.093      220.750      130.978      101.868        0.281        0.023       71.446        6.574        0.008      332.034        0.434      869.170
01/21/2015  23:01:00      -81.589       -3.647      -14.568        9.182        8.345        8.153       84.308       69.642       66.468        0.355        0.011       81.670        3.242        0.002      332.020        0.412      869.169
01/21/2015  23:02:00      -66.876       -2.289      -15.290       23.755        6.134        8.470      564.314       37.629       71.746        0.269        0.034       66.915        6.603        0.010      332.039        0.443      869.166
01/21/2015  23:03:00      -54.718      -16.504       -8.109       10.087       11.191        6.870      101.738      125.227       47.200        0.180        0.014       57.153        6.696        0.014      331.957        0.307      869.146
01/21/2015  23:04:00      -40.616      -14.284       -9.954        7.910        9.960        6.771       62.568       99.207       45.846        0.108        0.010       43.055        4.404        0.010      331.889        0.195      869.133
01/21/2015  23:05:00      -24.188      -20.064       -1.086       17.639       10.257       12.543      311.131      105.214      157.332        0.078        0.029       31.426       10.363        0.109      331.998        0.375      869.123
01/21/2015  23:06:00        0.902       -7.381        3.627        8.481       10.284        6.718       71.920      105.769       45.130        0.015        0.011        7.436        7.410        0.993      332.118        0.573      869.126
01/21/2015  23:07:00      -19.783      -20.248       -2.398        8.874        8.921        9.144       78.747       79.577       83.618        0.052        0.012       28.308        5.901        0.043      332.138        0.605      869.132
01/21/2015  23:08:00      -44.857      -13.196      -10.424       10.844       10.337        7.577      117.586      106.849       57.414        0.129        0.014       46.758        6.354        0.018      331.863        0.153      869.130
01/21/2015  23:09:00      -51.729      -12.773      -15.235        8.943        9.658        5.336       79.979       93.272       28.470        0.164        0.010       53.283        2.852        0.003      331.833        0.102      869.150
01/21/2015  23:10:00      -60.674      -10.878      -11.726       14.909       11.818       11.647      222.277      139.654      135.646        0.222        0.025       61.642        5.767        0.009      331.806        0.059      869.159
01/21/2015  23:11:00      -67.291      -15.401      -14.062       17.037       15.453       11.802      290.272      238.787      139.293        0.282        0.033       69.031        7.991        0.013      331.751       -0.031      869.166
01/21/2015  23:12:00      -99.233      -18.489      -13.563       19.188       13.354        9.963      368.185      178.322       99.264        0.551        0.032      100.941        6.755        0.004      331.681       -0.147      869.174
01/21/2015  23:13:00      -85.377      -27.672      -10.953       10.802       10.088       10.078      116.692      101.777      101.575        0.425        0.016       89.750        4.460        0.002      331.659       -0.182      869.171
01/21/2015  23:14:00      -89.126      -31.087      -17.215       15.593       10.576        9.824      243.126      111.853       96.517        0.483        0.023       94.392        6.241        0.004      331.607       -0.269      869.172
01/21/2015  23:15:00      -85.361      -23.829      -12.786       17.614       15.487       13.088      310.270      239.853      171.295        0.437        0.036       88.624        8.620        0.009      331.606       -0.271      869.171
01/21/2015  23:16:00      -83.958      -11.834      -15.129       19.569       11.361       12.610      382.932      129.082      159.020        0.404        0.034       84.788        9.710        0.013      331.694       -0.125      869.173
01/21/2015  23:17:00      -88.174      -20.276      -15.607        9.191       10.904       10.231       84.466      118.906      104.678        0.437        0.015       90.475        2.175        0.001      331.686       -0.137      869.179
01/21/2015  23:18:00      -91.663      -19.475      -10.253       13.805       15.593       13.391      190.573      243.147      179.325        0.475        0.031       93.709        8.685        0.009      331.695       -0.122      869.176
01/21/2015  23:19:00      -99.695      -10.785      -14.795       13.611       12.147        9.570      185.255      147.549       91.581        0.535        0.021      100.276        7.376        0.005      331.683       -0.142      869.169
01/21/2015  23:20:00      -98.136       -5.802      -13.646       11.941       14.487       12.999      142.595      209.886      168.983        0.519        0.026       98.307        8.965        0.008      331.661       -0.178      869.174
01/21/2015  23:21:00      -96.379      -11.758      -10.682       18.977       16.518       11.869      360.119      272.853      140.881        0.516        0.039       97.093        8.643        0.008      331.597       -0.286      869.181
01/21/2015  23:22:00      -92.301       -8.949      -10.087       27.187       21.961       15.455      739.151      482.280      238.868        0.508        0.073       92.734       12.351        0.018      331.602       -0.276      869.195
01/21/2015  23:23:00      -90.808       -5.585       -8.387       21.292       16.689       13.697      453.355      278.529      187.614        0.463        0.046       90.979       11.898        0.017      331.567       -0.335      869.201
01/21/2015  23:24:00      -92.133       -7.858      -15.758       26.623       18.083       16.499      708.792      327.004      272.211        0.505        0.065       92.468       14.390        0.024      331.584       -0.307      869.199
01/21/2015  23:25:00      -89.512      -13.724      -13.397       24.093       18.748       14.443      580.483      351.484      208.607        0.476        0.057       90.558        8.838        0.010      331.542       -0.374      869.197
01/21/2015  23:26:00      -49.652      -16.621       -5.241       17.796       18.152       13.646      316.686      329.496      186.210        0.180        0.042       52.361       11.152        0.045      331.513       -0.424      869.196
01/21/2015  23:27:00      -67.037       -8.602       -9.501       16.772       16.209       12.854      281.301      262.746      165.226        0.268        0.035       67.587        9.251        0.019      331.545       -0.371      869.200
01/21/2015  23:28:00      -55.124      -14.926       -8.830       12.887       10.096        9.641      166.075      101.938       92.952        0.185        0.018       57.109        6.649        0.014      331.612       -0.260      869.196
01/21/2015  23:29:00      -16.568      -18.281       -7.060       13.652       14.844        7.662      186.374      220.346       58.704        0.056        0.023       24.672        3.412        0.019      331.871        0.167      869.192
01/21/2015  23:30:00      -22.338      -29.270       -7.183       13.372       12.465       10.553      178.797      155.381      111.359        0.093        0.022       36.820        6.904        0.035      331.863        0.153      869.182
01/21/2015  23:31:00      -52.237      -27.369       -8.902       11.241       10.743        7.602      126.355      115.404       57.794        0.193        0.015       58.973        4.162        0.005      331.611       -0.265      869.183
01/21/2015  23:32:00      -66.504      -14.492      -13.676       12.147       10.027       10.198      147.547      100.532      104.006        0.259        0.018       68.065        4.771        0.005      331.600       -0.281      869.192
01/21/2015  23:33:00      -77.517      -19.103       -7.458       22.701       18.456       10.414      515.328      340.614      108.447        0.370        0.048       79.836        8.003        0.010      331.557       -0.351      869.203
01/21/2015  23:34:00      -89.706       -6.780      -10.650       14.631       15.220       14.733      214.054      231.648      217.069        0.443        0.033       89.962       10.031        0.012      331.597       -0.285      869.208
01/21/2015  23:35:00      -79.316      -17.453      -13.306       10.791       10.529       10.295      116.453      110.851      105.990        0.355        0.017       81.214        4.522        0.003      331.569       -0.332      869.225
01/21/2015  23:36:00      -79.096      -19.142       -9.277       15.015       13.271       13.132      225.462      176.112      172.454        0.364        0.029       81.379        8.880        0.012      331.511       -0.427      869.235
01/21/2015  23:37:00      -76.545       -8.679       -9.095       18.308       14.029       12.523      335.200      196.805      156.821        0.335        0.034       77.036        7.642        0.010      331.517       -0.417      869.240
01/21/2015  23:38:00      -95.128       -3.784      -13.275       16.654       10.600       13.865      277.366      112.357      192.228        0.491        0.029       95.204        7.828        0.007      331.554       -0.356      869.235
01/21/2015  23:39:00     -109.602      -11.750      -17.204       13.485       15.916       12.903      181.849      253.315      166.500        0.652        0.030      110.230        6.272        0.003      331.571       -0.328      869.236
01/21/2015  23:40:00     -127.903      -23.311      -20.586       13.289       12.707        9.554      176.599      161.461       91.284        0.888        0.021      130.010        3.552        0.001      331.543       -0.375      869.250
01/21/2015  23:41:00     -111.334      -27.894      -21.925       12.073       10.513        9.228      145.768      110.514       85.163        0.700        0.017      114.775        3.396        0.001      331.516       -0.418      869.246
01/21/2015  23:42:00     -119.862      -29.405      -20.958       14.710       11.915       12.268      216.373      141.969      150.514        0.809        0.025      123.416        8.075        0.004      331.544       -0.373      869.243
01/21/2015  23:43:00     -111.454      -32.591      -11.577       16.193       15.629       10.944      262.216      244.259      119.762        0.712        0.031      116.121        5.872        0.003      331.554       -0.356      869.243
01/21/2015  23:44:00     -117.757      -43.610      -13.880       14.231       14.784       11.470      202.524      218.571      131.557        0.826        0.028      125.573        9.223        0.005      331.514       -0.422      869.245
01/21/2015  23:45:00     -132.048      -20.451      -22.440       12.820       12.150        9.783      164.345      147.623       95.704        0.938        0.020      133.622        5.683        0.002      331.547       -0.367      869.244
01/21/2015  23:46:00     -127.606      -36.899      -14.415       11.019       15.523       10.406      121.416      240.968      108.283        0.916        0.024      132.834        6.133        0.002      331.526       -0.402      869.235
01/21/2015  23:47:00     -131.087      -31.621      -14.574       10.605       11.814        9.683      112.466      139.563       93.751        0.937        0.017      134.847        4.734        0.001      331.566       -0.338      869.225
01/21/2015  23:48:00     -129.406      -20.218      -14.535       10.828        9.854       11.032      117.242       97.096      121.705        0.885        0.017      130.976        5.976        0.002      331.523       -0.407      869.220
01/21/2015  23:49:00     -114.807      -42.718       -9.916       13.889       18.454        8.986      192.900      340.549       80.745        0.786        0.031      122.497        5.478        0.002      331.487       -0.468      869.224
01/21/2015  23:50:00     -120.025      -42.699      -16.787       10.900       14.192        7.731      118.806      201.419       59.771        0.845        0.019      127.394        4.880        0.001      331.511       -0.427      869.229
01/21/2015  23:51:00     -113.181      -42.162      -10.471       23.542       18.799       11.369      554.236      353.395      129.259        0.787        0.052      120.779       10.793        0.008      331.569       -0.330      869.235
01/21/2015  23:52:00     -114.582      -38.708       -9.738       18.287       19.314       11.149      334.420      373.048      124.293        0.778        0.042      120.943        4.836        0.002      331.549       -0.364      869.250
01/21/2015  23:53:00     -127.386      -41.867       -6.241       25.362       16.821       13.199      643.217      282.931      174.210        0.956        0.055      134.090       12.563        0.009      331.545       -0.372      869.251
01/21/2015  23:54:00     -118.263      -34.733       -2.661       26.107       20.902       15.402      681.565      436.913      237.216        0.828        0.068      123.258       13.010        0.011      331.523       -0.407      869.253
01/21/2015  23:55:00     -116.037      -31.194       -0.969       26.683       24.911       14.741      711.967      620.534      217.307        0.799        0.077      120.157       12.308        0.010      331.440       -0.544      869.256
01/21/2015  23:56:00     -120.664      -34.632       -4.908       18.751       19.839       12.250      351.597      393.600      150.061        0.834        0.045      125.536        9.045        0.005      331.430       -0.560      869.265
01/21/2015  23:57:00     -123.250      -31.731       -6.886       24.319       27.606       15.655      591.398      762.113      245.086        0.892        0.080      127.269       14.229        0.012      331.402       -0.607      869.263
01/21/2015  23:58:00      -98.237      -43.378       -0.071       25.442       21.600       14.066      647.286      466.568      197.859        0.642        0.066      107.388       11.257        0.011      331.387       -0.631      869.258
01/21/2015  23:59:00      -90.838      -36.695        1.905       22.266       19.051       15.225      495.780      362.923      231.792        0.535        0.055       97.970       11.106        0.013      331.374       -0.652      869.246
